<?xml version="1.0" encoding="UTF-8" standalone="no" ?>
<gpx xmlns="http://www.topografix.com/GPX/1/1" xmlns:xsi="http://www.w3.org/2001/XMLSchema-instance" xsi:schemaLocation="http://www.topografix.com/GPX/1/1 http://www.topografix.com/GPX/1/1/gpx.xsd" version="1.1" creator="VisuGPX - https://www.visugpx.com">
  <metadata>
    <name>Sources et Pont Naturel</name>
    <desc><![CDATA[Itinéraire facile sur les hauteurs de La Ciotat]]></desc>
  </metadata>
  <trk>
    <name><![CDATA[Sources et Pont Naturel_1]]></name>
    <trkseg>
      <trkpt lat="43.18313" lon="5.59839">
        <ele>46.8</ele>
        <time>2022-10-19T08:04:46Z</time>
      </trkpt>
      <trkpt lat="43.18315" lon="5.59831">
        <ele>47.6</ele>
        <time>2022-10-19T08:04:50Z</time>
      </trkpt>
      <trkpt lat="43.18314" lon="5.59822">
        <ele>48.8</ele>
        <time>2022-10-19T08:04:56Z</time>
      </trkpt>
      <trkpt lat="43.18312" lon="5.59817">
        <ele>49.5</ele>
        <time>2022-10-19T08:05:00Z</time>
      </trkpt>
      <trkpt lat="43.18309" lon="5.5981">
        <ele>50.4</ele>
        <time>2022-10-19T08:05:06Z</time>
      </trkpt>
      <trkpt lat="43.18306" lon="5.59803">
        <ele>51.2</ele>
        <time>2022-10-19T08:05:12Z</time>
      </trkpt>
      <trkpt lat="43.18305" lon="5.59797">
        <ele>51.6</ele>
        <time>2022-10-19T08:05:18Z</time>
      </trkpt>
      <trkpt lat="43.18302" lon="5.59791">
        <ele>51.9</ele>
        <time>2022-10-19T08:05:24Z</time>
      </trkpt>
      <trkpt lat="43.18298" lon="5.59788">
        <ele>52</ele>
        <time>2022-10-19T08:05:28Z</time>
      </trkpt>
      <trkpt lat="43.18293" lon="5.59788">
        <ele>51.8</ele>
        <time>2022-10-19T08:05:32Z</time>
      </trkpt>
      <trkpt lat="43.18289" lon="5.59785">
        <ele>51.9</ele>
        <time>2022-10-19T08:05:38Z</time>
      </trkpt>
      <trkpt lat="43.18284" lon="5.59779">
        <ele>52.2</ele>
        <time>2022-10-19T08:05:44Z</time>
      </trkpt>
      <trkpt lat="43.18278" lon="5.59777">
        <ele>52</ele>
        <time>2022-10-19T08:05:50Z</time>
      </trkpt>
      <trkpt lat="43.18274" lon="5.59782">
        <ele>51.5</ele>
        <time>2022-10-19T08:05:56Z</time>
      </trkpt>
      <trkpt lat="43.18269" lon="5.59785">
        <ele>50.9</ele>
        <time>2022-10-19T08:06:02Z</time>
      </trkpt>
      <trkpt lat="43.18264" lon="5.59788">
        <ele>50.5</ele>
        <time>2022-10-19T08:06:08Z</time>
      </trkpt>
      <trkpt lat="43.18259" lon="5.59789">
        <ele>50.1</ele>
        <time>2022-10-19T08:06:16Z</time>
      </trkpt>
      <trkpt lat="43.18254" lon="5.5979">
        <ele>49.8</ele>
        <time>2022-10-19T08:06:20Z</time>
      </trkpt>
      <trkpt lat="43.18249" lon="5.5979">
        <ele>49.5</ele>
        <time>2022-10-19T08:06:24Z</time>
      </trkpt>
      <trkpt lat="43.18244" lon="5.5979">
        <ele>49.2</ele>
        <time>2022-10-19T08:06:30Z</time>
      </trkpt>
      <trkpt lat="43.18237" lon="5.59789">
        <ele>48.9</ele>
        <time>2022-10-19T08:06:36Z</time>
      </trkpt>
      <trkpt lat="43.18231" lon="5.59789">
        <ele>48.5</ele>
        <time>2022-10-19T08:06:42Z</time>
      </trkpt>
      <trkpt lat="43.18226" lon="5.59791">
        <ele>48.2</ele>
        <time>2022-10-19T08:06:46Z</time>
      </trkpt>
      <trkpt lat="43.1822" lon="5.59792">
        <ele>47.9</ele>
        <time>2022-10-19T08:06:52Z</time>
      </trkpt>
      <trkpt lat="43.18215" lon="5.59792">
        <ele>47.7</ele>
        <time>2022-10-19T08:06:58Z</time>
      </trkpt>
      <trkpt lat="43.18209" lon="5.59792">
        <ele>47.5</ele>
        <time>2022-10-19T08:07:04Z</time>
      </trkpt>
      <trkpt lat="43.18203" lon="5.59792">
        <ele>47.3</ele>
        <time>2022-10-19T08:07:08Z</time>
      </trkpt>
      <trkpt lat="43.18199" lon="5.5979">
        <ele>47.2</ele>
        <time>2022-10-19T08:07:12Z</time>
      </trkpt>
      <trkpt lat="43.18194" lon="5.59787">
        <ele>47</ele>
        <time>2022-10-19T08:07:18Z</time>
      </trkpt>
      <trkpt lat="43.18189" lon="5.59786">
        <ele>46.7</ele>
        <time>2022-10-19T08:07:22Z</time>
      </trkpt>
      <trkpt lat="43.18183" lon="5.59785">
        <ele>46.3</ele>
        <time>2022-10-19T08:07:28Z</time>
      </trkpt>
      <trkpt lat="43.18178" lon="5.59784">
        <ele>45.9</ele>
        <time>2022-10-19T08:07:32Z</time>
      </trkpt>
      <trkpt lat="43.18173" lon="5.59782">
        <ele>45.6</ele>
        <time>2022-10-19T08:07:36Z</time>
      </trkpt>
      <trkpt lat="43.18168" lon="5.5978">
        <ele>45.2</ele>
        <time>2022-10-19T08:07:40Z</time>
      </trkpt>
      <trkpt lat="43.18163" lon="5.59778">
        <ele>44.8</ele>
        <time>2022-10-19T08:07:44Z</time>
      </trkpt>
      <trkpt lat="43.18159" lon="5.59775">
        <ele>44.3</ele>
        <time>2022-10-19T08:07:50Z</time>
      </trkpt>
      <trkpt lat="43.18152" lon="5.59773">
        <ele>43.7</ele>
        <time>2022-10-19T08:07:58Z</time>
      </trkpt>
      <trkpt lat="43.18147" lon="5.5977">
        <ele>43.2</ele>
        <time>2022-10-19T08:08:04Z</time>
      </trkpt>
      <trkpt lat="43.1814" lon="5.5977">
        <ele>42.8</ele>
        <time>2022-10-19T08:08:10Z</time>
      </trkpt>
      <trkpt lat="43.18133" lon="5.59771">
        <ele>42.4</ele>
        <time>2022-10-19T08:08:16Z</time>
      </trkpt>
      <trkpt lat="43.18128" lon="5.59772">
        <ele>42.1</ele>
        <time>2022-10-19T08:08:24Z</time>
      </trkpt>
      <trkpt lat="43.18123" lon="5.59774">
        <ele>41.8</ele>
        <time>2022-10-19T08:08:30Z</time>
      </trkpt>
      <trkpt lat="43.18118" lon="5.59776">
        <ele>41.5</ele>
        <time>2022-10-19T08:08:34Z</time>
      </trkpt>
      <trkpt lat="43.18113" lon="5.5978">
        <ele>41.1</ele>
        <time>2022-10-19T08:08:40Z</time>
      </trkpt>
      <trkpt lat="43.18107" lon="5.59779">
        <ele>40.7</ele>
        <time>2022-10-19T08:08:46Z</time>
      </trkpt>
      <trkpt lat="43.18101" lon="5.59779">
        <ele>40.3</ele>
        <time>2022-10-19T08:08:54Z</time>
      </trkpt>
      <trkpt lat="43.18095" lon="5.5978">
        <ele>39.9</ele>
        <time>2022-10-19T08:08:58Z</time>
      </trkpt>
      <trkpt lat="43.18089" lon="5.5978">
        <ele>39.5</ele>
        <time>2022-10-19T08:09:02Z</time>
      </trkpt>
      <trkpt lat="43.18083" lon="5.59781">
        <ele>39.1</ele>
        <time>2022-10-19T08:09:08Z</time>
      </trkpt>
      <trkpt lat="43.18078" lon="5.59783">
        <ele>39.1</ele>
        <time>2022-10-19T08:09:12Z</time>
      </trkpt>
      <trkpt lat="43.18073" lon="5.59782">
        <ele>39.1</ele>
        <time>2022-10-19T08:09:16Z</time>
      </trkpt>
      <trkpt lat="43.18068" lon="5.59782">
        <ele>39.1</ele>
        <time>2022-10-19T08:09:20Z</time>
      </trkpt>
      <trkpt lat="43.18062" lon="5.59782">
        <ele>39</ele>
        <time>2022-10-19T08:09:26Z</time>
      </trkpt>
      <trkpt lat="43.18055" lon="5.59783">
        <ele>39</ele>
        <time>2022-10-19T08:09:32Z</time>
      </trkpt>
      <trkpt lat="43.1805" lon="5.59782">
        <ele>39.2</ele>
        <time>2022-10-19T08:09:36Z</time>
      </trkpt>
      <trkpt lat="43.18045" lon="5.59783">
        <ele>39.3</ele>
        <time>2022-10-19T08:09:42Z</time>
      </trkpt>
      <trkpt lat="43.1804" lon="5.59782">
        <ele>39.5</ele>
        <time>2022-10-19T08:09:48Z</time>
      </trkpt>
      <trkpt lat="43.18034" lon="5.59781">
        <ele>39.7</ele>
        <time>2022-10-19T08:09:54Z</time>
      </trkpt>
      <trkpt lat="43.18029" lon="5.59782">
        <ele>39.8</ele>
        <time>2022-10-19T08:09:58Z</time>
      </trkpt>
      <trkpt lat="43.18024" lon="5.59781">
        <ele>40</ele>
        <time>2022-10-19T08:10:02Z</time>
      </trkpt>
      <trkpt lat="43.18019" lon="5.5978">
        <ele>40.2</ele>
        <time>2022-10-19T08:10:06Z</time>
      </trkpt>
      <trkpt lat="43.18015" lon="5.5978">
        <ele>40.3</ele>
        <time>2022-10-19T08:10:10Z</time>
      </trkpt>
      <trkpt lat="43.18008" lon="5.59779">
        <ele>40.6</ele>
        <time>2022-10-19T08:10:16Z</time>
      </trkpt>
      <trkpt lat="43.18003" lon="5.59778">
        <ele>40.9</ele>
        <time>2022-10-19T08:10:22Z</time>
      </trkpt>
      <trkpt lat="43.17997" lon="5.59774">
        <ele>41.4</ele>
        <time>2022-10-19T08:10:28Z</time>
      </trkpt>
      <trkpt lat="43.17992" lon="5.59773">
        <ele>41.6</ele>
        <time>2022-10-19T08:10:32Z</time>
      </trkpt>
      <trkpt lat="43.17987" lon="5.59773">
        <ele>41.8</ele>
        <time>2022-10-19T08:10:36Z</time>
      </trkpt>
      <trkpt lat="43.17981" lon="5.59771">
        <ele>42.2</ele>
        <time>2022-10-19T08:10:42Z</time>
      </trkpt>
      <trkpt lat="43.17976" lon="5.59769">
        <ele>42.5</ele>
        <time>2022-10-19T08:10:46Z</time>
      </trkpt>
      <trkpt lat="43.1797" lon="5.59767">
        <ele>42.8</ele>
        <time>2022-10-19T08:10:52Z</time>
      </trkpt>
      <trkpt lat="43.17965" lon="5.59764">
        <ele>43.1</ele>
        <time>2022-10-19T08:10:58Z</time>
      </trkpt>
      <trkpt lat="43.1796" lon="5.59762">
        <ele>43.4</ele>
        <time>2022-10-19T08:11:04Z</time>
      </trkpt>
      <trkpt lat="43.17955" lon="5.59763">
        <ele>43.4</ele>
        <time>2022-10-19T08:11:08Z</time>
      </trkpt>
      <trkpt lat="43.1795" lon="5.59759">
        <ele>43.9</ele>
        <time>2022-10-19T08:11:12Z</time>
      </trkpt>
      <trkpt lat="43.17945" lon="5.59758">
        <ele>44.1</ele>
        <time>2022-10-19T08:11:16Z</time>
      </trkpt>
      <trkpt lat="43.1794" lon="5.59755">
        <ele>44.3</ele>
        <time>2022-10-19T08:11:26Z</time>
      </trkpt>
      <trkpt lat="43.17935" lon="5.59754">
        <ele>44.3</ele>
        <time>2022-10-19T08:11:32Z</time>
      </trkpt>
      <trkpt lat="43.1793" lon="5.59753">
        <ele>44.2</ele>
        <time>2022-10-19T08:11:38Z</time>
      </trkpt>
      <trkpt lat="43.17925" lon="5.5975">
        <ele>44.3</ele>
        <time>2022-10-19T08:11:44Z</time>
      </trkpt>
      <trkpt lat="43.17919" lon="5.59748">
        <ele>44.2</ele>
        <time>2022-10-19T08:11:48Z</time>
      </trkpt>
      <trkpt lat="43.17913" lon="5.59746">
        <ele>44.1</ele>
        <time>2022-10-19T08:11:52Z</time>
      </trkpt>
      <trkpt lat="43.17907" lon="5.59745">
        <ele>44.2</ele>
        <time>2022-10-19T08:11:56Z</time>
      </trkpt>
      <trkpt lat="43.17901" lon="5.59746">
        <ele>44.1</ele>
        <time>2022-10-19T08:12:02Z</time>
      </trkpt>
      <trkpt lat="43.17896" lon="5.59746">
        <ele>44.1</ele>
        <time>2022-10-19T08:12:06Z</time>
      </trkpt>
      <trkpt lat="43.17892" lon="5.59747">
        <ele>44.1</ele>
        <time>2022-10-19T08:12:10Z</time>
      </trkpt>
      <trkpt lat="43.17887" lon="5.59749">
        <ele>44.1</ele>
        <time>2022-10-19T08:12:14Z</time>
      </trkpt>
      <trkpt lat="43.17882" lon="5.59746">
        <ele>44.2</ele>
        <time>2022-10-19T08:12:18Z</time>
      </trkpt>
      <trkpt lat="43.17877" lon="5.59742">
        <ele>44.5</ele>
        <time>2022-10-19T08:12:22Z</time>
      </trkpt>
      <trkpt lat="43.17871" lon="5.59742">
        <ele>44.6</ele>
        <time>2022-10-19T08:12:28Z</time>
      </trkpt>
      <trkpt lat="43.17865" lon="5.59742">
        <ele>44.8</ele>
        <time>2022-10-19T08:12:34Z</time>
      </trkpt>
      <trkpt lat="43.17859" lon="5.59742">
        <ele>44.8</ele>
        <time>2022-10-19T08:12:38Z</time>
      </trkpt>
      <trkpt lat="43.17854" lon="5.59742">
        <ele>44.9</ele>
        <time>2022-10-19T08:12:42Z</time>
      </trkpt>
      <trkpt lat="43.17849" lon="5.59736">
        <ele>45.5</ele>
        <time>2022-10-19T08:12:48Z</time>
      </trkpt>
      <trkpt lat="43.17844" lon="5.59737">
        <ele>45.4</ele>
        <time>2022-10-19T08:12:52Z</time>
      </trkpt>
      <trkpt lat="43.17838" lon="5.59738">
        <ele>45.3</ele>
        <time>2022-10-19T08:12:58Z</time>
      </trkpt>
      <trkpt lat="43.17833" lon="5.59739">
        <ele>45.2</ele>
        <time>2022-10-19T08:13:02Z</time>
      </trkpt>
      <trkpt lat="43.17828" lon="5.59737">
        <ele>45.5</ele>
        <time>2022-10-19T08:13:06Z</time>
      </trkpt>
      <trkpt lat="43.17824" lon="5.59733">
        <ele>46</ele>
        <time>2022-10-19T08:13:10Z</time>
      </trkpt>
      <trkpt lat="43.17819" lon="5.59735">
        <ele>45.9</ele>
        <time>2022-10-19T08:13:14Z</time>
      </trkpt>
      <trkpt lat="43.17813" lon="5.59737">
        <ele>45.8</ele>
        <time>2022-10-19T08:13:18Z</time>
      </trkpt>
      <trkpt lat="43.17807" lon="5.59741">
        <ele>45.3</ele>
        <time>2022-10-19T08:13:22Z</time>
      </trkpt>
      <trkpt lat="43.17803" lon="5.59738">
        <ele>45.7</ele>
        <time>2022-10-19T08:13:28Z</time>
      </trkpt>
      <trkpt lat="43.17797" lon="5.59738">
        <ele>45.6</ele>
        <time>2022-10-19T08:13:34Z</time>
      </trkpt>
      <trkpt lat="43.17793" lon="5.59739">
        <ele>45.4</ele>
        <time>2022-10-19T08:13:38Z</time>
      </trkpt>
      <trkpt lat="43.17787" lon="5.59742">
        <ele>45</ele>
        <time>2022-10-19T08:13:44Z</time>
      </trkpt>
      <trkpt lat="43.17781" lon="5.59743">
        <ele>44.8</ele>
        <time>2022-10-19T08:13:50Z</time>
      </trkpt>
      <trkpt lat="43.17774" lon="5.59742">
        <ele>44.8</ele>
        <time>2022-10-19T08:13:56Z</time>
      </trkpt>
      <trkpt lat="43.17769" lon="5.59744">
        <ele>44.6</ele>
        <time>2022-10-19T08:14:02Z</time>
      </trkpt>
      <trkpt lat="43.17763" lon="5.59745">
        <ele>44.5</ele>
        <time>2022-10-19T08:14:08Z</time>
      </trkpt>
      <trkpt lat="43.17757" lon="5.59746">
        <ele>44.4</ele>
        <time>2022-10-19T08:14:12Z</time>
      </trkpt>
      <trkpt lat="43.17752" lon="5.59746">
        <ele>44.4</ele>
        <time>2022-10-19T08:14:16Z</time>
      </trkpt>
      <trkpt lat="43.17747" lon="5.59747">
        <ele>44.5</ele>
        <time>2022-10-19T08:14:20Z</time>
      </trkpt>
      <trkpt lat="43.17742" lon="5.59749">
        <ele>44.4</ele>
        <time>2022-10-19T08:14:24Z</time>
      </trkpt>
      <trkpt lat="43.17737" lon="5.59751">
        <ele>44.3</ele>
        <time>2022-10-19T08:14:28Z</time>
      </trkpt>
      <trkpt lat="43.17732" lon="5.59754">
        <ele>44.2</ele>
        <time>2022-10-19T08:14:32Z</time>
      </trkpt>
      <trkpt lat="43.17727" lon="5.59754">
        <ele>44.4</ele>
        <time>2022-10-19T08:14:36Z</time>
      </trkpt>
      <trkpt lat="43.17723" lon="5.59754">
        <ele>44.5</ele>
        <time>2022-10-19T08:14:40Z</time>
      </trkpt>
      <trkpt lat="43.17717" lon="5.59756">
        <ele>44.5</ele>
        <time>2022-10-19T08:14:44Z</time>
      </trkpt>
      <trkpt lat="43.17712" lon="5.59755">
        <ele>44.8</ele>
        <time>2022-10-19T08:14:50Z</time>
      </trkpt>
      <trkpt lat="43.17706" lon="5.59756">
        <ele>45</ele>
        <time>2022-10-19T08:14:56Z</time>
      </trkpt>
      <trkpt lat="43.17701" lon="5.59757">
        <ele>45</ele>
        <time>2022-10-19T08:15:00Z</time>
      </trkpt>
      <trkpt lat="43.17697" lon="5.59759">
        <ele>45</ele>
        <time>2022-10-19T08:15:04Z</time>
      </trkpt>
      <trkpt lat="43.17692" lon="5.59762">
        <ele>44.8</ele>
        <time>2022-10-19T08:15:10Z</time>
      </trkpt>
      <trkpt lat="43.17687" lon="5.59764">
        <ele>44.7</ele>
        <time>2022-10-19T08:15:18Z</time>
      </trkpt>
      <trkpt lat="43.17682" lon="5.59765">
        <ele>44.6</ele>
        <time>2022-10-19T08:15:22Z</time>
      </trkpt>
      <trkpt lat="43.17676" lon="5.59766">
        <ele>44.6</ele>
        <time>2022-10-19T08:15:28Z</time>
      </trkpt>
      <trkpt lat="43.1767" lon="5.59766">
        <ele>44.8</ele>
        <time>2022-10-19T08:15:32Z</time>
      </trkpt>
      <trkpt lat="43.17665" lon="5.59768">
        <ele>44.7</ele>
        <time>2022-10-19T08:15:36Z</time>
      </trkpt>
      <trkpt lat="43.17658" lon="5.5977">
        <ele>44.7</ele>
        <time>2022-10-19T08:15:42Z</time>
      </trkpt>
      <trkpt lat="43.17653" lon="5.5977">
        <ele>44.7</ele>
        <time>2022-10-19T08:15:46Z</time>
      </trkpt>
      <trkpt lat="43.17647" lon="5.59767">
        <ele>45.1</ele>
        <time>2022-10-19T08:15:52Z</time>
      </trkpt>
      <trkpt lat="43.17643" lon="5.5977">
        <ele>44.8</ele>
        <time>2022-10-19T08:15:56Z</time>
      </trkpt>
      <trkpt lat="43.17636" lon="5.59771">
        <ele>44.9</ele>
        <time>2022-10-19T08:16:00Z</time>
      </trkpt>
      <trkpt lat="43.1763" lon="5.59769">
        <ele>45.2</ele>
        <time>2022-10-19T08:16:06Z</time>
      </trkpt>
      <trkpt lat="43.17625" lon="5.59768">
        <ele>45.4</ele>
        <time>2022-10-19T08:16:10Z</time>
      </trkpt>
      <trkpt lat="43.17619" lon="5.59767">
        <ele>45.6</ele>
        <time>2022-10-19T08:16:16Z</time>
      </trkpt>
      <trkpt lat="43.17613" lon="5.59765">
        <ele>45.9</ele>
        <time>2022-10-19T08:16:22Z</time>
      </trkpt>
      <trkpt lat="43.17608" lon="5.59762">
        <ele>46.1</ele>
        <time>2022-10-19T08:16:30Z</time>
      </trkpt>
      <trkpt lat="43.17604" lon="5.5976">
        <ele>46.3</ele>
        <time>2022-10-19T08:16:34Z</time>
      </trkpt>
      <trkpt lat="43.17598" lon="5.5976">
        <ele>46.3</ele>
        <time>2022-10-19T08:16:38Z</time>
      </trkpt>
      <trkpt lat="43.17592" lon="5.59761">
        <ele>46.2</ele>
        <time>2022-10-19T08:16:42Z</time>
      </trkpt>
      <trkpt lat="43.17587" lon="5.59762">
        <ele>46.2</ele>
        <time>2022-10-19T08:16:46Z</time>
      </trkpt>
      <trkpt lat="43.17582" lon="5.59761">
        <ele>46.3</ele>
        <time>2022-10-19T08:16:50Z</time>
      </trkpt>
      <trkpt lat="43.17577" lon="5.5976">
        <ele>46.6</ele>
        <time>2022-10-19T08:16:54Z</time>
      </trkpt>
      <trkpt lat="43.17572" lon="5.59758">
        <ele>47</ele>
        <time>2022-10-19T08:17:00Z</time>
      </trkpt>
      <trkpt lat="43.17566" lon="5.59758">
        <ele>47.4</ele>
        <time>2022-10-19T08:17:06Z</time>
      </trkpt>
      <trkpt lat="43.1756" lon="5.59759">
        <ele>47.5</ele>
        <time>2022-10-19T08:17:12Z</time>
      </trkpt>
      <trkpt lat="43.17554" lon="5.59761">
        <ele>47.5</ele>
        <time>2022-10-19T08:17:16Z</time>
      </trkpt>
      <trkpt lat="43.17549" lon="5.59762">
        <ele>47.7</ele>
        <time>2022-10-19T08:17:20Z</time>
      </trkpt>
      <trkpt lat="43.17543" lon="5.59762">
        <ele>47.9</ele>
        <time>2022-10-19T08:17:26Z</time>
      </trkpt>
      <trkpt lat="43.17536" lon="5.59764">
        <ele>48</ele>
        <time>2022-10-19T08:17:32Z</time>
      </trkpt>
      <trkpt lat="43.17532" lon="5.59766">
        <ele>48</ele>
        <time>2022-10-19T08:17:36Z</time>
      </trkpt>
      <trkpt lat="43.17526" lon="5.59767">
        <ele>48.3</ele>
        <time>2022-10-19T08:17:42Z</time>
      </trkpt>
      <trkpt lat="43.17521" lon="5.59768">
        <ele>48.5</ele>
        <time>2022-10-19T08:17:46Z</time>
      </trkpt>
      <trkpt lat="43.17515" lon="5.5977">
        <ele>48.7</ele>
        <time>2022-10-19T08:17:52Z</time>
      </trkpt>
      <trkpt lat="43.1751" lon="5.59773">
        <ele>48.7</ele>
        <time>2022-10-19T08:17:58Z</time>
      </trkpt>
      <trkpt lat="43.17504" lon="5.59775">
        <ele>48.9</ele>
        <time>2022-10-19T08:18:04Z</time>
      </trkpt>
      <trkpt lat="43.17498" lon="5.59778">
        <ele>49.1</ele>
        <time>2022-10-19T08:18:10Z</time>
      </trkpt>
      <trkpt lat="43.17492" lon="5.59781">
        <ele>49.7</ele>
        <time>2022-10-19T08:18:16Z</time>
      </trkpt>
      <trkpt lat="43.17487" lon="5.59784">
        <ele>50.2</ele>
        <time>2022-10-19T08:18:22Z</time>
      </trkpt>
      <trkpt lat="43.17482" lon="5.59787">
        <ele>50.9</ele>
        <time>2022-10-19T08:18:28Z</time>
      </trkpt>
      <trkpt lat="43.17477" lon="5.59788">
        <ele>51.7</ele>
        <time>2022-10-19T08:18:32Z</time>
      </trkpt>
      <trkpt lat="43.17472" lon="5.59789">
        <ele>52.7</ele>
        <time>2022-10-19T08:18:38Z</time>
      </trkpt>
      <trkpt lat="43.17467" lon="5.59792">
        <ele>53.2</ele>
        <time>2022-10-19T08:18:44Z</time>
      </trkpt>
      <trkpt lat="43.17462" lon="5.59795">
        <ele>53.5</ele>
        <time>2022-10-19T08:18:50Z</time>
      </trkpt>
      <trkpt lat="43.17456" lon="5.59797">
        <ele>54</ele>
        <time>2022-10-19T08:18:58Z</time>
      </trkpt>
      <trkpt lat="43.17451" lon="5.59799">
        <ele>54.3</ele>
        <time>2022-10-19T08:19:04Z</time>
      </trkpt>
      <trkpt lat="43.17446" lon="5.59801">
        <ele>54.5</ele>
        <time>2022-10-19T08:19:08Z</time>
      </trkpt>
      <trkpt lat="43.17442" lon="5.59803">
        <ele>54.7</ele>
        <time>2022-10-19T08:19:12Z</time>
      </trkpt>
      <trkpt lat="43.17437" lon="5.59806">
        <ele>55.1</ele>
        <time>2022-10-19T08:19:18Z</time>
      </trkpt>
      <trkpt lat="43.17431" lon="5.5981">
        <ele>55.6</ele>
        <time>2022-10-19T08:19:24Z</time>
      </trkpt>
      <trkpt lat="43.17426" lon="5.59813">
        <ele>56.2</ele>
        <time>2022-10-19T08:19:28Z</time>
      </trkpt>
      <trkpt lat="43.1742" lon="5.59815">
        <ele>56.8</ele>
        <time>2022-10-19T08:19:34Z</time>
      </trkpt>
      <trkpt lat="43.17416" lon="5.59817">
        <ele>57.3</ele>
        <time>2022-10-19T08:19:40Z</time>
      </trkpt>
      <trkpt lat="43.17409" lon="5.5982">
        <ele>57.9</ele>
        <time>2022-10-19T08:19:46Z</time>
      </trkpt>
      <trkpt lat="43.17404" lon="5.59823">
        <ele>58.2</ele>
        <time>2022-10-19T08:19:52Z</time>
      </trkpt>
      <trkpt lat="43.17398" lon="5.59827">
        <ele>58.6</ele>
        <time>2022-10-19T08:19:58Z</time>
      </trkpt>
      <trkpt lat="43.17393" lon="5.5983">
        <ele>59</ele>
        <time>2022-10-19T08:20:04Z</time>
      </trkpt>
      <trkpt lat="43.17388" lon="5.59831">
        <ele>59.4</ele>
        <time>2022-10-19T08:20:08Z</time>
      </trkpt>
      <trkpt lat="43.17382" lon="5.59832">
        <ele>60.1</ele>
        <time>2022-10-19T08:20:16Z</time>
      </trkpt>
      <trkpt lat="43.17377" lon="5.59831">
        <ele>61</ele>
        <time>2022-10-19T08:20:22Z</time>
      </trkpt>
      <trkpt lat="43.17371" lon="5.59833">
        <ele>61.6</ele>
        <time>2022-10-19T08:20:30Z</time>
      </trkpt>
      <trkpt lat="43.17367" lon="5.59837">
        <ele>61.6</ele>
        <time>2022-10-19T08:20:34Z</time>
      </trkpt>
      <trkpt lat="43.17361" lon="5.59841">
        <ele>61.7</ele>
        <time>2022-10-19T08:20:38Z</time>
      </trkpt>
      <trkpt lat="43.17356" lon="5.59843">
        <ele>61.7</ele>
        <time>2022-10-19T08:20:42Z</time>
      </trkpt>
      <trkpt lat="43.17352" lon="5.59846">
        <ele>61.5</ele>
        <time>2022-10-19T08:20:46Z</time>
      </trkpt>
      <trkpt lat="43.17346" lon="5.5985">
        <ele>61.4</ele>
        <time>2022-10-19T08:20:52Z</time>
      </trkpt>
      <trkpt lat="43.17341" lon="5.59852">
        <ele>61.5</ele>
        <time>2022-10-19T08:20:58Z</time>
      </trkpt>
      <trkpt lat="43.17334" lon="5.59854">
        <ele>62</ele>
        <time>2022-10-19T08:21:04Z</time>
      </trkpt>
      <trkpt lat="43.17329" lon="5.59855">
        <ele>62.2</ele>
        <time>2022-10-19T08:21:10Z</time>
      </trkpt>
      <trkpt lat="43.17324" lon="5.59855">
        <ele>62.5</ele>
        <time>2022-10-19T08:21:16Z</time>
      </trkpt>
      <trkpt lat="43.1732" lon="5.59858">
        <ele>62.4</ele>
        <time>2022-10-19T08:21:22Z</time>
      </trkpt>
      <trkpt lat="43.17315" lon="5.59862">
        <ele>62.2</ele>
        <time>2022-10-19T08:21:28Z</time>
      </trkpt>
      <trkpt lat="43.17309" lon="5.59863">
        <ele>62.6</ele>
        <time>2022-10-19T08:21:34Z</time>
      </trkpt>
      <trkpt lat="43.17304" lon="5.59866">
        <ele>62.6</ele>
        <time>2022-10-19T08:21:38Z</time>
      </trkpt>
      <trkpt lat="43.17299" lon="5.59868">
        <ele>62.7</ele>
        <time>2022-10-19T08:21:44Z</time>
      </trkpt>
      <trkpt lat="43.17294" lon="5.59869">
        <ele>62.8</ele>
        <time>2022-10-19T08:21:48Z</time>
      </trkpt>
      <trkpt lat="43.1729" lon="5.59871">
        <ele>62.9</ele>
        <time>2022-10-19T08:21:52Z</time>
      </trkpt>
      <trkpt lat="43.17285" lon="5.59872">
        <ele>63</ele>
        <time>2022-10-19T08:21:56Z</time>
      </trkpt>
      <trkpt lat="43.17281" lon="5.59875">
        <ele>62.9</ele>
        <time>2022-10-19T08:22:00Z</time>
      </trkpt>
      <trkpt lat="43.17277" lon="5.59878">
        <ele>62.6</ele>
        <time>2022-10-19T08:22:06Z</time>
      </trkpt>
      <trkpt lat="43.17271" lon="5.59879">
        <ele>62.1</ele>
        <time>2022-10-19T08:22:12Z</time>
      </trkpt>
      <trkpt lat="43.17265" lon="5.59881">
        <ele>61.6</ele>
        <time>2022-10-19T08:22:18Z</time>
      </trkpt>
      <trkpt lat="43.1726" lon="5.59883">
        <ele>61.1</ele>
        <time>2022-10-19T08:22:24Z</time>
      </trkpt>
      <trkpt lat="43.17256" lon="5.59884">
        <ele>60.7</ele>
        <time>2022-10-19T08:22:30Z</time>
      </trkpt>
      <trkpt lat="43.1725" lon="5.59886">
        <ele>60.4</ele>
        <time>2022-10-19T08:22:36Z</time>
      </trkpt>
      <trkpt lat="43.17245" lon="5.59886">
        <ele>59.9</ele>
        <time>2022-10-19T08:22:40Z</time>
      </trkpt>
      <trkpt lat="43.1724" lon="5.59888">
        <ele>59.4</ele>
        <time>2022-10-19T08:22:44Z</time>
      </trkpt>
      <trkpt lat="43.17235" lon="5.59891">
        <ele>58.8</ele>
        <time>2022-10-19T08:22:48Z</time>
      </trkpt>
      <trkpt lat="43.1723" lon="5.59892">
        <ele>58.4</ele>
        <time>2022-10-19T08:22:52Z</time>
      </trkpt>
      <trkpt lat="43.17225" lon="5.59891">
        <ele>58.1</ele>
        <time>2022-10-19T08:22:58Z</time>
      </trkpt>
      <trkpt lat="43.17224" lon="5.59884">
        <ele>58.6</ele>
        <time>2022-10-19T08:23:08Z</time>
      </trkpt>
      <trkpt lat="43.17223" lon="5.59877">
        <ele>59.3</ele>
        <time>2022-10-19T08:23:14Z</time>
      </trkpt>
      <trkpt lat="43.17218" lon="5.59876">
        <ele>59</ele>
        <time>2022-10-19T08:24:06Z</time>
      </trkpt>
      <trkpt lat="43.17213" lon="5.5988">
        <ele>57.9</ele>
        <time>2022-10-19T08:24:14Z</time>
      </trkpt>
      <trkpt lat="43.17209" lon="5.59884">
        <ele>57.1</ele>
        <time>2022-10-19T08:24:18Z</time>
      </trkpt>
      <trkpt lat="43.17206" lon="5.5989">
        <ele>56.2</ele>
        <time>2022-10-19T08:24:24Z</time>
      </trkpt>
      <trkpt lat="43.17203" lon="5.59895">
        <ele>55.5</ele>
        <time>2022-10-19T08:24:30Z</time>
      </trkpt>
      <trkpt lat="43.172" lon="5.59904">
        <ele>54.6</ele>
        <time>2022-10-19T08:24:36Z</time>
      </trkpt>
      <trkpt lat="43.17197" lon="5.59911">
        <ele>53.7</ele>
        <time>2022-10-19T08:24:42Z</time>
      </trkpt>
      <trkpt lat="43.17193" lon="5.59917">
        <ele>52.8</ele>
        <time>2022-10-19T08:24:48Z</time>
      </trkpt>
      <trkpt lat="43.1719" lon="5.59923">
        <ele>52</ele>
        <time>2022-10-19T08:24:52Z</time>
      </trkpt>
      <trkpt lat="43.17188" lon="5.59929">
        <ele>51.3</ele>
        <time>2022-10-19T08:24:56Z</time>
      </trkpt>
      <trkpt lat="43.17186" lon="5.59935">
        <ele>50.5</ele>
        <time>2022-10-19T08:25:00Z</time>
      </trkpt>
      <trkpt lat="43.17183" lon="5.59942">
        <ele>49.5</ele>
        <time>2022-10-19T08:25:04Z</time>
      </trkpt>
      <trkpt lat="43.17179" lon="5.5995">
        <ele>48.4</ele>
        <time>2022-10-19T08:25:08Z</time>
      </trkpt>
      <trkpt lat="43.17176" lon="5.59956">
        <ele>47.6</ele>
        <time>2022-10-19T08:25:14Z</time>
      </trkpt>
      <trkpt lat="43.17176" lon="5.59966">
        <ele>47</ele>
        <time>2022-10-19T08:25:20Z</time>
      </trkpt>
      <trkpt lat="43.17174" lon="5.59972">
        <ele>46.5</ele>
        <time>2022-10-19T08:25:24Z</time>
      </trkpt>
      <trkpt lat="43.17171" lon="5.59978">
        <ele>45.6</ele>
        <time>2022-10-19T08:25:28Z</time>
      </trkpt>
      <trkpt lat="43.17166" lon="5.59982">
        <ele>44.9</ele>
        <time>2022-10-19T08:25:32Z</time>
      </trkpt>
      <trkpt lat="43.17164" lon="5.59988">
        <ele>44.2</ele>
        <time>2022-10-19T08:25:36Z</time>
      </trkpt>
      <trkpt lat="43.1716" lon="5.59992">
        <ele>43.6</ele>
        <time>2022-10-19T08:25:40Z</time>
      </trkpt>
      <trkpt lat="43.17156" lon="5.59997">
        <ele>42.9</ele>
        <time>2022-10-19T08:25:44Z</time>
      </trkpt>
      <trkpt lat="43.17153" lon="5.60001">
        <ele>42.4</ele>
        <time>2022-10-19T08:25:48Z</time>
      </trkpt>
      <trkpt lat="43.1715" lon="5.60006">
        <ele>41.9</ele>
        <time>2022-10-19T08:25:52Z</time>
      </trkpt>
      <trkpt lat="43.17146" lon="5.60013">
        <ele>41.2</ele>
        <time>2022-10-19T08:25:58Z</time>
      </trkpt>
      <trkpt lat="43.17143" lon="5.60017">
        <ele>40.8</ele>
        <time>2022-10-19T08:26:02Z</time>
      </trkpt>
      <trkpt lat="43.17139" lon="5.60023">
        <ele>40.3</ele>
        <time>2022-10-19T08:26:08Z</time>
      </trkpt>
      <trkpt lat="43.17136" lon="5.6003">
        <ele>39.7</ele>
        <time>2022-10-19T08:26:14Z</time>
      </trkpt>
      <trkpt lat="43.17132" lon="5.60036">
        <ele>38.8</ele>
        <time>2022-10-19T08:26:20Z</time>
      </trkpt>
      <trkpt lat="43.17128" lon="5.60043">
        <ele>37.9</ele>
        <time>2022-10-19T08:26:26Z</time>
      </trkpt>
      <trkpt lat="43.17124" lon="5.60051">
        <ele>37</ele>
        <time>2022-10-19T08:26:32Z</time>
      </trkpt>
      <trkpt lat="43.1712" lon="5.60058">
        <ele>36.1</ele>
        <time>2022-10-19T08:26:38Z</time>
      </trkpt>
      <trkpt lat="43.17114" lon="5.60065">
        <ele>35.4</ele>
        <time>2022-10-19T08:26:44Z</time>
      </trkpt>
      <trkpt lat="43.17111" lon="5.60069">
        <ele>35</ele>
        <time>2022-10-19T08:26:48Z</time>
      </trkpt>
      <trkpt lat="43.17106" lon="5.60074">
        <ele>34.3</ele>
        <time>2022-10-19T08:26:54Z</time>
      </trkpt>
      <trkpt lat="43.17102" lon="5.60079">
        <ele>33.7</ele>
        <time>2022-10-19T08:27:00Z</time>
      </trkpt>
      <trkpt lat="43.17097" lon="5.60083">
        <ele>33.1</ele>
        <time>2022-10-19T08:27:06Z</time>
      </trkpt>
      <trkpt lat="43.17093" lon="5.60088">
        <ele>32.4</ele>
        <time>2022-10-19T08:27:12Z</time>
      </trkpt>
      <trkpt lat="43.1709" lon="5.60095">
        <ele>31.9</ele>
        <time>2022-10-19T08:27:18Z</time>
      </trkpt>
      <trkpt lat="43.17085" lon="5.60101">
        <ele>31.4</ele>
        <time>2022-10-19T08:27:24Z</time>
      </trkpt>
      <trkpt lat="43.17081" lon="5.60107">
        <ele>31.1</ele>
        <time>2022-10-19T08:27:30Z</time>
      </trkpt>
      <trkpt lat="43.17078" lon="5.60113">
        <ele>30.7</ele>
        <time>2022-10-19T08:27:36Z</time>
      </trkpt>
      <trkpt lat="43.17075" lon="5.6012">
        <ele>30.1</ele>
        <time>2022-10-19T08:27:42Z</time>
      </trkpt>
      <trkpt lat="43.17071" lon="5.60126">
        <ele>29.5</ele>
        <time>2022-10-19T08:27:48Z</time>
      </trkpt>
      <trkpt lat="43.17067" lon="5.6013">
        <ele>29.1</ele>
        <time>2022-10-19T08:27:52Z</time>
      </trkpt>
      <trkpt lat="43.17062" lon="5.60128">
        <ele>29</ele>
        <time>2022-10-19T08:28:12Z</time>
      </trkpt>
      <trkpt lat="43.17058" lon="5.60126">
        <ele>29</ele>
        <time>2022-10-19T08:28:16Z</time>
      </trkpt>
      <trkpt lat="43.17053" lon="5.60122">
        <ele>29.1</ele>
        <time>2022-10-19T08:28:22Z</time>
      </trkpt>
      <trkpt lat="43.17049" lon="5.60116">
        <ele>29.4</ele>
        <time>2022-10-19T08:28:28Z</time>
      </trkpt>
      <trkpt lat="43.17043" lon="5.60111">
        <ele>29.6</ele>
        <time>2022-10-19T08:28:34Z</time>
      </trkpt>
      <trkpt lat="43.17038" lon="5.60106">
        <ele>29.6</ele>
        <time>2022-10-19T08:28:40Z</time>
      </trkpt>
      <trkpt lat="43.17034" lon="5.60102">
        <ele>29.6</ele>
        <time>2022-10-19T08:28:44Z</time>
      </trkpt>
      <trkpt lat="43.17031" lon="5.60097">
        <ele>29.6</ele>
        <time>2022-10-19T08:28:48Z</time>
      </trkpt>
      <trkpt lat="43.17027" lon="5.60093">
        <ele>29.6</ele>
        <time>2022-10-19T08:28:52Z</time>
      </trkpt>
      <trkpt lat="43.17023" lon="5.60089">
        <ele>29.6</ele>
        <time>2022-10-19T08:28:56Z</time>
      </trkpt>
      <trkpt lat="43.17018" lon="5.60085">
        <ele>29.5</ele>
        <time>2022-10-19T08:29:00Z</time>
      </trkpt>
      <trkpt lat="43.17014" lon="5.6008">
        <ele>29.6</ele>
        <time>2022-10-19T08:29:04Z</time>
      </trkpt>
      <trkpt lat="43.17011" lon="5.60075">
        <ele>29.7</ele>
        <time>2022-10-19T08:29:08Z</time>
      </trkpt>
      <trkpt lat="43.17007" lon="5.60071">
        <ele>29.7</ele>
        <time>2022-10-19T08:29:12Z</time>
      </trkpt>
      <trkpt lat="43.17003" lon="5.60068">
        <ele>29.6</ele>
        <time>2022-10-19T08:29:16Z</time>
      </trkpt>
      <trkpt lat="43.16998" lon="5.60063">
        <ele>29.7</ele>
        <time>2022-10-19T08:29:22Z</time>
      </trkpt>
      <trkpt lat="43.16993" lon="5.60059">
        <ele>29.8</ele>
        <time>2022-10-19T08:29:28Z</time>
      </trkpt>
      <trkpt lat="43.16988" lon="5.60055">
        <ele>30</ele>
        <time>2022-10-19T08:29:32Z</time>
      </trkpt>
      <trkpt lat="43.16984" lon="5.6005">
        <ele>30.1</ele>
        <time>2022-10-19T08:29:38Z</time>
      </trkpt>
      <trkpt lat="43.1698" lon="5.60046">
        <ele>30.1</ele>
        <time>2022-10-19T08:29:42Z</time>
      </trkpt>
      <trkpt lat="43.16977" lon="5.60042">
        <ele>30.1</ele>
        <time>2022-10-19T08:29:46Z</time>
      </trkpt>
      <trkpt lat="43.16974" lon="5.60037">
        <ele>30</ele>
        <time>2022-10-19T08:29:50Z</time>
      </trkpt>
      <trkpt lat="43.1697" lon="5.60032">
        <ele>30.1</ele>
        <time>2022-10-19T08:29:56Z</time>
      </trkpt>
      <trkpt lat="43.16966" lon="5.60028">
        <ele>30.2</ele>
        <time>2022-10-19T08:30:02Z</time>
      </trkpt>
      <trkpt lat="43.16963" lon="5.60022">
        <ele>30.7</ele>
        <time>2022-10-19T08:30:08Z</time>
      </trkpt>
      <trkpt lat="43.16961" lon="5.60015">
        <ele>31.2</ele>
        <time>2022-10-19T08:30:14Z</time>
      </trkpt>
      <trkpt lat="43.16958" lon="5.60006">
        <ele>31.7</ele>
        <time>2022-10-19T08:30:20Z</time>
      </trkpt>
      <trkpt lat="43.16955" lon="5.6">
        <ele>32</ele>
        <time>2022-10-19T08:30:24Z</time>
      </trkpt>
      <trkpt lat="43.16953" lon="5.59994">
        <ele>32.5</ele>
        <time>2022-10-19T08:30:28Z</time>
      </trkpt>
      <trkpt lat="43.16953" lon="5.59985">
        <ele>33.1</ele>
        <time>2022-10-19T08:30:34Z</time>
      </trkpt>
      <trkpt lat="43.16954" lon="5.59978">
        <ele>33.6</ele>
        <time>2022-10-19T08:30:40Z</time>
      </trkpt>
      <trkpt lat="43.16954" lon="5.59969">
        <ele>34.3</ele>
        <time>2022-10-19T08:30:46Z</time>
      </trkpt>
      <trkpt lat="43.16956" lon="5.59961">
        <ele>35</ele>
        <time>2022-10-19T08:30:52Z</time>
      </trkpt>
      <trkpt lat="43.16958" lon="5.59954">
        <ele>35.7</ele>
        <time>2022-10-19T08:30:58Z</time>
      </trkpt>
      <trkpt lat="43.16959" lon="5.59946">
        <ele>36.3</ele>
        <time>2022-10-19T08:31:04Z</time>
      </trkpt>
      <trkpt lat="43.16961" lon="5.59939">
        <ele>36.8</ele>
        <time>2022-10-19T08:31:10Z</time>
      </trkpt>
      <trkpt lat="43.16962" lon="5.59933">
        <ele>37.2</ele>
        <time>2022-10-19T08:31:16Z</time>
      </trkpt>
      <trkpt lat="43.16963" lon="5.59924">
        <ele>37.8</ele>
        <time>2022-10-19T08:31:24Z</time>
      </trkpt>
      <trkpt lat="43.16963" lon="5.59917">
        <ele>38.3</ele>
        <time>2022-10-19T08:31:30Z</time>
      </trkpt>
      <trkpt lat="43.16964" lon="5.5991">
        <ele>38.7</ele>
        <time>2022-10-19T08:31:36Z</time>
      </trkpt>
      <trkpt lat="43.16964" lon="5.59902">
        <ele>39.2</ele>
        <time>2022-10-19T08:31:42Z</time>
      </trkpt>
      <trkpt lat="43.16963" lon="5.59895">
        <ele>39.7</ele>
        <time>2022-10-19T08:31:48Z</time>
      </trkpt>
      <trkpt lat="43.16963" lon="5.59888">
        <ele>40.1</ele>
        <time>2022-10-19T08:31:54Z</time>
      </trkpt>
      <trkpt lat="43.16964" lon="5.5988">
        <ele>40.9</ele>
        <time>2022-10-19T08:32:00Z</time>
      </trkpt>
      <trkpt lat="43.16963" lon="5.59871">
        <ele>41.7</ele>
        <time>2022-10-19T08:32:06Z</time>
      </trkpt>
      <trkpt lat="43.16963" lon="5.59863">
        <ele>42.5</ele>
        <time>2022-10-19T08:32:12Z</time>
      </trkpt>
      <trkpt lat="43.16964" lon="5.59856">
        <ele>43.1</ele>
        <time>2022-10-19T08:32:18Z</time>
      </trkpt>
      <trkpt lat="43.16965" lon="5.59848">
        <ele>43.7</ele>
        <time>2022-10-19T08:32:24Z</time>
      </trkpt>
      <trkpt lat="43.16965" lon="5.5984">
        <ele>44.3</ele>
        <time>2022-10-19T08:32:32Z</time>
      </trkpt>
      <trkpt lat="43.16967" lon="5.59832">
        <ele>44.9</ele>
        <time>2022-10-19T08:32:38Z</time>
      </trkpt>
      <trkpt lat="43.16967" lon="5.59823">
        <ele>45.5</ele>
        <time>2022-10-19T08:32:44Z</time>
      </trkpt>
      <trkpt lat="43.16966" lon="5.59814">
        <ele>46</ele>
        <time>2022-10-19T08:32:50Z</time>
      </trkpt>
      <trkpt lat="43.16966" lon="5.59806">
        <ele>46.6</ele>
        <time>2022-10-19T08:32:56Z</time>
      </trkpt>
      <trkpt lat="43.16966" lon="5.59797">
        <ele>47.4</ele>
        <time>2022-10-19T08:33:02Z</time>
      </trkpt>
      <trkpt lat="43.16966" lon="5.59789">
        <ele>48.3</ele>
        <time>2022-10-19T08:33:08Z</time>
      </trkpt>
      <trkpt lat="43.16967" lon="5.59781">
        <ele>49.1</ele>
        <time>2022-10-19T08:33:14Z</time>
      </trkpt>
      <trkpt lat="43.16968" lon="5.59772">
        <ele>49.9</ele>
        <time>2022-10-19T08:33:20Z</time>
      </trkpt>
      <trkpt lat="43.16968" lon="5.59764">
        <ele>50.5</ele>
        <time>2022-10-19T08:33:26Z</time>
      </trkpt>
      <trkpt lat="43.16966" lon="5.59756">
        <ele>50.9</ele>
        <time>2022-10-19T08:33:32Z</time>
      </trkpt>
      <trkpt lat="43.16966" lon="5.59749">
        <ele>51.4</ele>
        <time>2022-10-19T08:33:38Z</time>
      </trkpt>
      <trkpt lat="43.16965" lon="5.59741">
        <ele>51.6</ele>
        <time>2022-10-19T08:33:44Z</time>
      </trkpt>
      <trkpt lat="43.16965" lon="5.59733">
        <ele>52</ele>
        <time>2022-10-19T08:33:50Z</time>
      </trkpt>
      <trkpt lat="43.16966" lon="5.59724">
        <ele>52.5</ele>
        <time>2022-10-19T08:33:56Z</time>
      </trkpt>
      <trkpt lat="43.16966" lon="5.59715">
        <ele>53.1</ele>
        <time>2022-10-19T08:34:02Z</time>
      </trkpt>
      <trkpt lat="43.16968" lon="5.59708">
        <ele>53.6</ele>
        <time>2022-10-19T08:34:08Z</time>
      </trkpt>
      <trkpt lat="43.16968" lon="5.59701">
        <ele>54.1</ele>
        <time>2022-10-19T08:34:14Z</time>
      </trkpt>
      <trkpt lat="43.16969" lon="5.59694">
        <ele>54.6</ele>
        <time>2022-10-19T08:34:20Z</time>
      </trkpt>
      <trkpt lat="43.16971" lon="5.59686">
        <ele>55.2</ele>
        <time>2022-10-19T08:34:26Z</time>
      </trkpt>
      <trkpt lat="43.16973" lon="5.59679">
        <ele>55.6</ele>
        <time>2022-10-19T08:34:32Z</time>
      </trkpt>
      <trkpt lat="43.16973" lon="5.5967">
        <ele>56</ele>
        <time>2022-10-19T08:34:38Z</time>
      </trkpt>
      <trkpt lat="43.16974" lon="5.59662">
        <ele>56.6</ele>
        <time>2022-10-19T08:34:44Z</time>
      </trkpt>
      <trkpt lat="43.16972" lon="5.59655">
        <ele>56.9</ele>
        <time>2022-10-19T08:34:52Z</time>
      </trkpt>
      <trkpt lat="43.16971" lon="5.59648">
        <ele>57.3</ele>
        <time>2022-10-19T08:35:00Z</time>
      </trkpt>
      <trkpt lat="43.16967" lon="5.59643">
        <ele>57.3</ele>
        <time>2022-10-19T08:35:08Z</time>
      </trkpt>
      <trkpt lat="43.16969" lon="5.59636">
        <ele>57.7</ele>
        <time>2022-10-19T08:35:12Z</time>
      </trkpt>
      <trkpt lat="43.16969" lon="5.59628">
        <ele>57.8</ele>
        <time>2022-10-19T08:35:18Z</time>
      </trkpt>
      <trkpt lat="43.1697" lon="5.59621">
        <ele>57.9</ele>
        <time>2022-10-19T08:35:22Z</time>
      </trkpt>
      <trkpt lat="43.16972" lon="5.59613">
        <ele>58</ele>
        <time>2022-10-19T08:35:28Z</time>
      </trkpt>
      <trkpt lat="43.16973" lon="5.59606">
        <ele>58</ele>
        <time>2022-10-19T08:35:32Z</time>
      </trkpt>
      <trkpt lat="43.16974" lon="5.596">
        <ele>57.9</ele>
        <time>2022-10-19T08:35:38Z</time>
      </trkpt>
      <trkpt lat="43.16973" lon="5.59594">
        <ele>57.5</ele>
        <time>2022-10-19T08:35:48Z</time>
      </trkpt>
      <trkpt lat="43.16971" lon="5.59589">
        <ele>57</ele>
        <time>2022-10-19T08:38:50Z</time>
      </trkpt>
      <trkpt lat="43.16975" lon="5.59586">
        <ele>57.5</ele>
        <time>2022-10-19T08:39:02Z</time>
      </trkpt>
      <trkpt lat="43.16979" lon="5.5958">
        <ele>57.7</ele>
        <time>2022-10-19T08:39:24Z</time>
      </trkpt>
      <trkpt lat="43.16982" lon="5.59572">
        <ele>57.4</ele>
        <time>2022-10-19T08:39:30Z</time>
      </trkpt>
      <trkpt lat="43.16987" lon="5.59566">
        <ele>57.5</ele>
        <time>2022-10-19T08:39:36Z</time>
      </trkpt>
      <trkpt lat="43.16988" lon="5.59558">
        <ele>57</ele>
        <time>2022-10-19T08:39:42Z</time>
      </trkpt>
      <trkpt lat="43.1699" lon="5.59552">
        <ele>57.1</ele>
        <time>2022-10-19T08:39:48Z</time>
      </trkpt>
      <trkpt lat="43.16994" lon="5.59545">
        <ele>57.5</ele>
        <time>2022-10-19T08:39:54Z</time>
      </trkpt>
      <trkpt lat="43.16995" lon="5.59538">
        <ele>57.5</ele>
        <time>2022-10-19T08:40:00Z</time>
      </trkpt>
      <trkpt lat="43.16996" lon="5.59529">
        <ele>57.4</ele>
        <time>2022-10-19T08:40:06Z</time>
      </trkpt>
      <trkpt lat="43.16996" lon="5.5952">
        <ele>57.1</ele>
        <time>2022-10-19T08:40:12Z</time>
      </trkpt>
      <trkpt lat="43.16997" lon="5.59512">
        <ele>57</ele>
        <time>2022-10-19T08:40:18Z</time>
      </trkpt>
      <trkpt lat="43.16997" lon="5.59504">
        <ele>56.8</ele>
        <time>2022-10-19T08:40:24Z</time>
      </trkpt>
      <trkpt lat="43.16998" lon="5.59496">
        <ele>56.9</ele>
        <time>2022-10-19T08:40:30Z</time>
      </trkpt>
      <trkpt lat="43.16997" lon="5.59487">
        <ele>57.3</ele>
        <time>2022-10-19T08:40:36Z</time>
      </trkpt>
      <trkpt lat="43.16997" lon="5.59478">
        <ele>57.7</ele>
        <time>2022-10-19T08:40:42Z</time>
      </trkpt>
      <trkpt lat="43.16997" lon="5.59469">
        <ele>58</ele>
        <time>2022-10-19T08:40:48Z</time>
      </trkpt>
      <trkpt lat="43.17" lon="5.59461">
        <ele>58.4</ele>
        <time>2022-10-19T08:40:54Z</time>
      </trkpt>
      <trkpt lat="43.17001" lon="5.59453">
        <ele>58.7</ele>
        <time>2022-10-19T08:41:00Z</time>
      </trkpt>
      <trkpt lat="43.17004" lon="5.59446">
        <ele>59</ele>
        <time>2022-10-19T08:41:06Z</time>
      </trkpt>
      <trkpt lat="43.17006" lon="5.59438">
        <ele>59.5</ele>
        <time>2022-10-19T08:41:12Z</time>
      </trkpt>
      <trkpt lat="43.17007" lon="5.5943">
        <ele>60.1</ele>
        <time>2022-10-19T08:41:18Z</time>
      </trkpt>
      <trkpt lat="43.17009" lon="5.59422">
        <ele>60.6</ele>
        <time>2022-10-19T08:41:24Z</time>
      </trkpt>
      <trkpt lat="43.17011" lon="5.59416">
        <ele>61.1</ele>
        <time>2022-10-19T08:41:32Z</time>
      </trkpt>
      <trkpt lat="43.17013" lon="5.59408">
        <ele>61.6</ele>
        <time>2022-10-19T08:41:52Z</time>
      </trkpt>
      <trkpt lat="43.17016" lon="5.59402">
        <ele>62.1</ele>
        <time>2022-10-19T08:41:58Z</time>
      </trkpt>
      <trkpt lat="43.1702" lon="5.59395">
        <ele>62.6</ele>
        <time>2022-10-19T08:42:04Z</time>
      </trkpt>
      <trkpt lat="43.17022" lon="5.59388">
        <ele>63.1</ele>
        <time>2022-10-19T08:42:10Z</time>
      </trkpt>
      <trkpt lat="43.17025" lon="5.59381">
        <ele>63.6</ele>
        <time>2022-10-19T08:42:16Z</time>
      </trkpt>
      <trkpt lat="43.17028" lon="5.59373">
        <ele>64.2</ele>
        <time>2022-10-19T08:42:22Z</time>
      </trkpt>
      <trkpt lat="43.17031" lon="5.59364">
        <ele>64.8</ele>
        <time>2022-10-19T08:42:28Z</time>
      </trkpt>
      <trkpt lat="43.17033" lon="5.59357">
        <ele>65.5</ele>
        <time>2022-10-19T08:42:34Z</time>
      </trkpt>
      <trkpt lat="43.17036" lon="5.59349">
        <ele>66.3</ele>
        <time>2022-10-19T08:42:40Z</time>
      </trkpt>
      <trkpt lat="43.17037" lon="5.59343">
        <ele>66.9</ele>
        <time>2022-10-19T08:42:44Z</time>
      </trkpt>
      <trkpt lat="43.1704" lon="5.59336">
        <ele>67.8</ele>
        <time>2022-10-19T08:42:50Z</time>
      </trkpt>
      <trkpt lat="43.17043" lon="5.59329">
        <ele>68.5</ele>
        <time>2022-10-19T08:42:56Z</time>
      </trkpt>
      <trkpt lat="43.17047" lon="5.59325">
        <ele>69</ele>
        <time>2022-10-19T08:43:00Z</time>
      </trkpt>
      <trkpt lat="43.1705" lon="5.5932">
        <ele>69.7</ele>
        <time>2022-10-19T08:43:04Z</time>
      </trkpt>
      <trkpt lat="43.17052" lon="5.59312">
        <ele>70.9</ele>
        <time>2022-10-19T08:43:10Z</time>
      </trkpt>
      <trkpt lat="43.17052" lon="5.59306">
        <ele>71.8</ele>
        <time>2022-10-19T08:43:14Z</time>
      </trkpt>
      <trkpt lat="43.17054" lon="5.59298">
        <ele>72.1</ele>
        <time>2022-10-19T08:43:20Z</time>
      </trkpt>
      <trkpt lat="43.17055" lon="5.5929">
        <ele>72.5</ele>
        <time>2022-10-19T08:43:26Z</time>
      </trkpt>
      <trkpt lat="43.17057" lon="5.59283">
        <ele>72.9</ele>
        <time>2022-10-19T08:43:32Z</time>
      </trkpt>
      <trkpt lat="43.1706" lon="5.59276">
        <ele>73.3</ele>
        <time>2022-10-19T08:43:38Z</time>
      </trkpt>
      <trkpt lat="43.17064" lon="5.59269">
        <ele>73.9</ele>
        <time>2022-10-19T08:43:44Z</time>
      </trkpt>
      <trkpt lat="43.17066" lon="5.59263">
        <ele>74.5</ele>
        <time>2022-10-19T08:43:50Z</time>
      </trkpt>
      <trkpt lat="43.17068" lon="5.59256">
        <ele>75.2</ele>
        <time>2022-10-19T08:43:56Z</time>
      </trkpt>
      <trkpt lat="43.1707" lon="5.59248">
        <ele>76.1</ele>
        <time>2022-10-19T08:44:02Z</time>
      </trkpt>
      <trkpt lat="43.17071" lon="5.59241">
        <ele>76.6</ele>
        <time>2022-10-19T08:44:08Z</time>
      </trkpt>
      <trkpt lat="43.17073" lon="5.59234">
        <ele>77.3</ele>
        <time>2022-10-19T08:44:14Z</time>
      </trkpt>
      <trkpt lat="43.17076" lon="5.59226">
        <ele>78.2</ele>
        <time>2022-10-19T08:44:20Z</time>
      </trkpt>
      <trkpt lat="43.17078" lon="5.59219">
        <ele>79</ele>
        <time>2022-10-19T08:44:26Z</time>
      </trkpt>
      <trkpt lat="43.1708" lon="5.59214">
        <ele>79.6</ele>
        <time>2022-10-19T08:44:30Z</time>
      </trkpt>
      <trkpt lat="43.17082" lon="5.59206">
        <ele>80.3</ele>
        <time>2022-10-19T08:44:36Z</time>
      </trkpt>
      <trkpt lat="43.17084" lon="5.592">
        <ele>80.8</ele>
        <time>2022-10-19T08:44:42Z</time>
      </trkpt>
      <trkpt lat="43.17085" lon="5.59193">
        <ele>81.3</ele>
        <time>2022-10-19T08:44:48Z</time>
      </trkpt>
      <trkpt lat="43.17086" lon="5.59186">
        <ele>82.1</ele>
        <time>2022-10-19T08:44:54Z</time>
      </trkpt>
      <trkpt lat="43.17086" lon="5.59178">
        <ele>82.7</ele>
        <time>2022-10-19T08:45:00Z</time>
      </trkpt>
      <trkpt lat="43.17087" lon="5.59171">
        <ele>83.4</ele>
        <time>2022-10-19T08:45:06Z</time>
      </trkpt>
      <trkpt lat="43.17086" lon="5.59164">
        <ele>84.1</ele>
        <time>2022-10-19T08:45:14Z</time>
      </trkpt>
      <trkpt lat="43.17087" lon="5.59156">
        <ele>85.3</ele>
        <time>2022-10-19T08:45:22Z</time>
      </trkpt>
      <trkpt lat="43.17086" lon="5.59148">
        <ele>86.3</ele>
        <time>2022-10-19T08:45:30Z</time>
      </trkpt>
      <trkpt lat="43.17088" lon="5.5914">
        <ele>87.8</ele>
        <time>2022-10-19T08:45:38Z</time>
      </trkpt>
      <trkpt lat="43.17087" lon="5.59133">
        <ele>88.8</ele>
        <time>2022-10-19T08:45:44Z</time>
      </trkpt>
      <trkpt lat="43.17086" lon="5.59127">
        <ele>89.6</ele>
        <time>2022-10-19T08:45:50Z</time>
      </trkpt>
      <trkpt lat="43.17085" lon="5.59119">
        <ele>90.9</ele>
        <time>2022-10-19T08:45:58Z</time>
      </trkpt>
      <trkpt lat="43.17083" lon="5.59112">
        <ele>91.9</ele>
        <time>2022-10-19T08:46:06Z</time>
      </trkpt>
      <trkpt lat="43.17082" lon="5.59105">
        <ele>92.7</ele>
        <time>2022-10-19T08:46:12Z</time>
      </trkpt>
      <trkpt lat="43.17081" lon="5.59096">
        <ele>93.5</ele>
        <time>2022-10-19T08:46:20Z</time>
      </trkpt>
      <trkpt lat="43.17078" lon="5.5909">
        <ele>94.2</ele>
        <time>2022-10-19T08:46:26Z</time>
      </trkpt>
      <trkpt lat="43.17078" lon="5.59084">
        <ele>94.9</ele>
        <time>2022-10-19T08:46:32Z</time>
      </trkpt>
      <trkpt lat="43.17075" lon="5.59078">
        <ele>95.8</ele>
        <time>2022-10-19T08:46:38Z</time>
      </trkpt>
      <trkpt lat="43.17076" lon="5.59071">
        <ele>96.6</ele>
        <time>2022-10-19T08:46:42Z</time>
      </trkpt>
      <trkpt lat="43.17076" lon="5.59064">
        <ele>97.6</ele>
        <time>2022-10-19T08:46:48Z</time>
      </trkpt>
      <trkpt lat="43.17076" lon="5.59056">
        <ele>98.6</ele>
        <time>2022-10-19T08:46:54Z</time>
      </trkpt>
      <trkpt lat="43.17076" lon="5.59049">
        <ele>98.9</ele>
        <time>2022-10-19T08:47:00Z</time>
      </trkpt>
      <trkpt lat="43.17077" lon="5.59041">
        <ele>99.2</ele>
        <time>2022-10-19T08:47:06Z</time>
      </trkpt>
      <trkpt lat="43.17078" lon="5.59034">
        <ele>99.4</ele>
        <time>2022-10-19T08:47:12Z</time>
      </trkpt>
      <trkpt lat="43.17078" lon="5.59026">
        <ele>99.5</ele>
        <time>2022-10-19T08:47:18Z</time>
      </trkpt>
      <trkpt lat="43.17079" lon="5.59019">
        <ele>99.2</ele>
        <time>2022-10-19T08:47:24Z</time>
      </trkpt>
      <trkpt lat="43.17079" lon="5.59013">
        <ele>99</ele>
        <time>2022-10-19T08:47:30Z</time>
      </trkpt>
      <trkpt lat="43.17081" lon="5.59006">
        <ele>98.9</ele>
        <time>2022-10-19T08:47:38Z</time>
      </trkpt>
      <trkpt lat="43.17082" lon="5.59003">
        <ele>98.9</ele>
        <time>2022-10-19T08:47:53Z</time>
      </trkpt>
      <trkpt lat="43.17079" lon="5.59009">
        <ele>98.8</ele>
        <time>2022-10-19T08:48:54Z</time>
      </trkpt>
      <trkpt lat="43.17083" lon="5.59005">
        <ele>99.1</ele>
        <time>2022-10-19T08:49:38Z</time>
      </trkpt>
      <trkpt lat="43.17087" lon="5.59">
        <ele>99.2</ele>
        <time>2022-10-19T08:49:54Z</time>
      </trkpt>
      <trkpt lat="43.17089" lon="5.58994">
        <ele>98.3</ele>
        <time>2022-10-19T08:50:00Z</time>
      </trkpt>
      <trkpt lat="43.17094" lon="5.58989">
        <ele>97.7</ele>
        <time>2022-10-19T08:50:06Z</time>
      </trkpt>
      <trkpt lat="43.17097" lon="5.58982">
        <ele>97</ele>
        <time>2022-10-19T08:50:14Z</time>
      </trkpt>
      <trkpt lat="43.17102" lon="5.58977">
        <ele>97.3</ele>
        <time>2022-10-19T08:50:20Z</time>
      </trkpt>
      <trkpt lat="43.17106" lon="5.58973">
        <ele>97.9</ele>
        <time>2022-10-19T08:50:26Z</time>
      </trkpt>
      <trkpt lat="43.1711" lon="5.58967">
        <ele>97.9</ele>
        <time>2022-10-19T08:50:32Z</time>
      </trkpt>
      <trkpt lat="43.17113" lon="5.58962">
        <ele>97.7</ele>
        <time>2022-10-19T08:50:38Z</time>
      </trkpt>
      <trkpt lat="43.17116" lon="5.58957">
        <ele>97.4</ele>
        <time>2022-10-19T08:50:42Z</time>
      </trkpt>
      <trkpt lat="43.17119" lon="5.5895">
        <ele>97.1</ele>
        <time>2022-10-19T08:50:48Z</time>
      </trkpt>
      <trkpt lat="43.17121" lon="5.58941">
        <ele>97.3</ele>
        <time>2022-10-19T08:50:54Z</time>
      </trkpt>
      <trkpt lat="43.17121" lon="5.58934">
        <ele>98.5</ele>
        <time>2022-10-19T08:51:00Z</time>
      </trkpt>
      <trkpt lat="43.17122" lon="5.58926">
        <ele>99.9</ele>
        <time>2022-10-19T08:51:06Z</time>
      </trkpt>
      <trkpt lat="43.17122" lon="5.58919">
        <ele>101.2</ele>
        <time>2022-10-19T08:51:12Z</time>
      </trkpt>
      <trkpt lat="43.17121" lon="5.58913">
        <ele>101.9</ele>
        <time>2022-10-19T08:51:18Z</time>
      </trkpt>
      <trkpt lat="43.1712" lon="5.58905">
        <ele>102.6</ele>
        <time>2022-10-19T08:51:26Z</time>
      </trkpt>
      <trkpt lat="43.17121" lon="5.58898">
        <ele>103.4</ele>
        <time>2022-10-19T08:51:32Z</time>
      </trkpt>
      <trkpt lat="43.17122" lon="5.58891">
        <ele>104.4</ele>
        <time>2022-10-19T08:51:38Z</time>
      </trkpt>
      <trkpt lat="43.17123" lon="5.58883">
        <ele>105.3</ele>
        <time>2022-10-19T08:51:46Z</time>
      </trkpt>
      <trkpt lat="43.17124" lon="5.58877">
        <ele>106.1</ele>
        <time>2022-10-19T08:51:54Z</time>
      </trkpt>
      <trkpt lat="43.17125" lon="5.5887">
        <ele>107.1</ele>
        <time>2022-10-19T08:52:04Z</time>
      </trkpt>
      <trkpt lat="43.17124" lon="5.58863">
        <ele>107.6</ele>
        <time>2022-10-19T08:52:14Z</time>
      </trkpt>
      <trkpt lat="43.17123" lon="5.58856">
        <ele>108</ele>
        <time>2022-10-19T08:52:28Z</time>
      </trkpt>
      <trkpt lat="43.17124" lon="5.58848">
        <ele>108.6</ele>
        <time>2022-10-19T08:52:36Z</time>
      </trkpt>
      <trkpt lat="43.17125" lon="5.58841">
        <ele>109.1</ele>
        <time>2022-10-19T08:52:42Z</time>
      </trkpt>
      <trkpt lat="43.17126" lon="5.58834">
        <ele>109.7</ele>
        <time>2022-10-19T08:52:48Z</time>
      </trkpt>
      <trkpt lat="43.17127" lon="5.58828">
        <ele>110</ele>
        <time>2022-10-19T08:52:54Z</time>
      </trkpt>
      <trkpt lat="43.1713" lon="5.58821">
        <ele>110.7</ele>
        <time>2022-10-19T08:53:02Z</time>
      </trkpt>
      <trkpt lat="43.17132" lon="5.58815">
        <ele>111.2</ele>
        <time>2022-10-19T08:53:08Z</time>
      </trkpt>
      <trkpt lat="43.17134" lon="5.58809">
        <ele>111.8</ele>
        <time>2022-10-19T08:53:14Z</time>
      </trkpt>
      <trkpt lat="43.17137" lon="5.58802">
        <ele>112.4</ele>
        <time>2022-10-19T08:53:22Z</time>
      </trkpt>
      <trkpt lat="43.17141" lon="5.58796">
        <ele>113.2</ele>
        <time>2022-10-19T08:53:30Z</time>
      </trkpt>
      <trkpt lat="43.17145" lon="5.58791">
        <ele>113.7</ele>
        <time>2022-10-19T08:53:36Z</time>
      </trkpt>
      <trkpt lat="43.17148" lon="5.58786">
        <ele>114.3</ele>
        <time>2022-10-19T08:53:48Z</time>
      </trkpt>
      <trkpt lat="43.17152" lon="5.58781">
        <ele>114.9</ele>
        <time>2022-10-19T08:53:54Z</time>
      </trkpt>
      <trkpt lat="43.17155" lon="5.58775">
        <ele>115.2</ele>
        <time>2022-10-19T08:54:00Z</time>
      </trkpt>
      <trkpt lat="43.17158" lon="5.5877">
        <ele>115.6</ele>
        <time>2022-10-19T08:54:06Z</time>
      </trkpt>
      <trkpt lat="43.17161" lon="5.58765">
        <ele>116.4</ele>
        <time>2022-10-19T08:54:12Z</time>
      </trkpt>
      <trkpt lat="43.17165" lon="5.58761">
        <ele>117.4</ele>
        <time>2022-10-19T08:54:18Z</time>
      </trkpt>
      <trkpt lat="43.17167" lon="5.58753">
        <ele>118</ele>
        <time>2022-10-19T08:54:38Z</time>
      </trkpt>
      <trkpt lat="43.17171" lon="5.58748">
        <ele>117.6</ele>
        <time>2022-10-19T08:54:46Z</time>
      </trkpt>
      <trkpt lat="43.17175" lon="5.58743">
        <ele>116.5</ele>
        <time>2022-10-19T08:54:52Z</time>
      </trkpt>
      <trkpt lat="43.17179" lon="5.58738">
        <ele>115.9</ele>
        <time>2022-10-19T08:54:58Z</time>
      </trkpt>
      <trkpt lat="43.17183" lon="5.58733">
        <ele>115.8</ele>
        <time>2022-10-19T08:55:04Z</time>
      </trkpt>
      <trkpt lat="43.17186" lon="5.58728">
        <ele>116.3</ele>
        <time>2022-10-19T08:55:10Z</time>
      </trkpt>
      <trkpt lat="43.1719" lon="5.58724">
        <ele>117.3</ele>
        <time>2022-10-19T08:55:16Z</time>
      </trkpt>
      <trkpt lat="43.17194" lon="5.58721">
        <ele>118.6</ele>
        <time>2022-10-19T08:55:22Z</time>
      </trkpt>
      <trkpt lat="43.17199" lon="5.58718">
        <ele>118.4</ele>
        <time>2022-10-19T08:55:28Z</time>
      </trkpt>
      <trkpt lat="43.17204" lon="5.58715">
        <ele>118.4</ele>
        <time>2022-10-19T08:55:34Z</time>
      </trkpt>
      <trkpt lat="43.17209" lon="5.58714">
        <ele>118.9</ele>
        <time>2022-10-19T08:55:40Z</time>
      </trkpt>
      <trkpt lat="43.17214" lon="5.5871">
        <ele>118.9</ele>
        <time>2022-10-19T08:55:46Z</time>
      </trkpt>
      <trkpt lat="43.17219" lon="5.58706">
        <ele>119.2</ele>
        <time>2022-10-19T08:55:52Z</time>
      </trkpt>
      <trkpt lat="43.17225" lon="5.58701">
        <ele>119.6</ele>
        <time>2022-10-19T08:55:58Z</time>
      </trkpt>
      <trkpt lat="43.17229" lon="5.58697">
        <ele>119.5</ele>
        <time>2022-10-19T08:56:02Z</time>
      </trkpt>
      <trkpt lat="43.17232" lon="5.58689">
        <ele>119.2</ele>
        <time>2022-10-19T08:56:08Z</time>
      </trkpt>
      <trkpt lat="43.17234" lon="5.58684">
        <ele>119.2</ele>
        <time>2022-10-19T08:56:12Z</time>
      </trkpt>
      <trkpt lat="43.17235" lon="5.58676">
        <ele>118.8</ele>
        <time>2022-10-19T08:56:18Z</time>
      </trkpt>
      <trkpt lat="43.17235" lon="5.58668">
        <ele>117.7</ele>
        <time>2022-10-19T08:56:24Z</time>
      </trkpt>
      <trkpt lat="43.17232" lon="5.5866">
        <ele>118.6</ele>
        <time>2022-10-19T08:56:30Z</time>
      </trkpt>
      <trkpt lat="43.17228" lon="5.58653">
        <ele>119.7</ele>
        <time>2022-10-19T08:56:36Z</time>
      </trkpt>
      <trkpt lat="43.17226" lon="5.58645">
        <ele>121.5</ele>
        <time>2022-10-19T08:56:42Z</time>
      </trkpt>
      <trkpt lat="43.17223" lon="5.58638">
        <ele>123.2</ele>
        <time>2022-10-19T08:56:48Z</time>
      </trkpt>
      <trkpt lat="43.17222" lon="5.58631">
        <ele>124.2</ele>
        <time>2022-10-19T08:56:56Z</time>
      </trkpt>
      <trkpt lat="43.17221" lon="5.58624">
        <ele>124.8</ele>
        <time>2022-10-19T08:57:04Z</time>
      </trkpt>
      <trkpt lat="43.17221" lon="5.58615">
        <ele>125.7</ele>
        <time>2022-10-19T08:57:12Z</time>
      </trkpt>
      <trkpt lat="43.17221" lon="5.58607">
        <ele>126.6</ele>
        <time>2022-10-19T08:57:20Z</time>
      </trkpt>
      <trkpt lat="43.17223" lon="5.586">
        <ele>127.9</ele>
        <time>2022-10-19T08:57:28Z</time>
      </trkpt>
      <trkpt lat="43.17224" lon="5.58594">
        <ele>128.6</ele>
        <time>2022-10-19T08:57:34Z</time>
      </trkpt>
      <trkpt lat="43.17226" lon="5.58586">
        <ele>129.5</ele>
        <time>2022-10-19T08:57:42Z</time>
      </trkpt>
      <trkpt lat="43.1723" lon="5.58579">
        <ele>130</ele>
        <time>2022-10-19T08:57:50Z</time>
      </trkpt>
      <trkpt lat="43.17232" lon="5.58574">
        <ele>130</ele>
        <time>2022-10-19T08:57:56Z</time>
      </trkpt>
      <trkpt lat="43.17234" lon="5.58568">
        <ele>130.1</ele>
        <time>2022-10-19T08:58:02Z</time>
      </trkpt>
      <trkpt lat="43.17236" lon="5.58562">
        <ele>130.2</ele>
        <time>2022-10-19T08:58:20Z</time>
      </trkpt>
      <trkpt lat="43.1724" lon="5.58559">
        <ele>131.4</ele>
        <time>2022-10-19T08:58:32Z</time>
      </trkpt>
      <trkpt lat="43.17241" lon="5.5855">
        <ele>130.9</ele>
        <time>2022-10-19T09:00:16Z</time>
      </trkpt>
      <trkpt lat="43.17245" lon="5.58548">
        <ele>132.3</ele>
        <time>2022-10-19T09:00:20Z</time>
      </trkpt>
      <trkpt lat="43.17249" lon="5.58543">
        <ele>133.6</ele>
        <time>2022-10-19T09:00:26Z</time>
      </trkpt>
      <trkpt lat="43.17253" lon="5.58538">
        <ele>134.3</ele>
        <time>2022-10-19T09:01:12Z</time>
      </trkpt>
      <trkpt lat="43.17256" lon="5.58533">
        <ele>134.7</ele>
        <time>2022-10-19T09:01:18Z</time>
      </trkpt>
      <trkpt lat="43.1726" lon="5.58528">
        <ele>135.1</ele>
        <time>2022-10-19T09:01:24Z</time>
      </trkpt>
      <trkpt lat="43.17264" lon="5.58524">
        <ele>135</ele>
        <time>2022-10-19T09:01:32Z</time>
      </trkpt>
      <trkpt lat="43.17268" lon="5.58518">
        <ele>134.9</ele>
        <time>2022-10-19T09:01:38Z</time>
      </trkpt>
      <trkpt lat="43.17273" lon="5.58513">
        <ele>135.8</ele>
        <time>2022-10-19T09:01:44Z</time>
      </trkpt>
      <trkpt lat="43.17277" lon="5.58508">
        <ele>136.4</ele>
        <time>2022-10-19T09:01:50Z</time>
      </trkpt>
      <trkpt lat="43.1728" lon="5.58503">
        <ele>136.9</ele>
        <time>2022-10-19T09:01:56Z</time>
      </trkpt>
      <trkpt lat="43.17285" lon="5.58498">
        <ele>137</ele>
        <time>2022-10-19T09:02:04Z</time>
      </trkpt>
      <trkpt lat="43.1729" lon="5.58493">
        <ele>136.5</ele>
        <time>2022-10-19T09:02:10Z</time>
      </trkpt>
      <trkpt lat="43.17294" lon="5.58489">
        <ele>136.6</ele>
        <time>2022-10-19T09:02:16Z</time>
      </trkpt>
      <trkpt lat="43.17298" lon="5.58485">
        <ele>136.9</ele>
        <time>2022-10-19T09:02:22Z</time>
      </trkpt>
      <trkpt lat="43.17303" lon="5.5848">
        <ele>137.5</ele>
        <time>2022-10-19T09:02:28Z</time>
      </trkpt>
      <trkpt lat="43.17307" lon="5.58477">
        <ele>138</ele>
        <time>2022-10-19T09:02:34Z</time>
      </trkpt>
      <trkpt lat="43.17312" lon="5.58472">
        <ele>138.1</ele>
        <time>2022-10-19T09:02:40Z</time>
      </trkpt>
      <trkpt lat="43.17316" lon="5.5847">
        <ele>137.8</ele>
        <time>2022-10-19T09:02:44Z</time>
      </trkpt>
      <trkpt lat="43.17322" lon="5.58466">
        <ele>137.6</ele>
        <time>2022-10-19T09:02:50Z</time>
      </trkpt>
      <trkpt lat="43.17327" lon="5.58462">
        <ele>137.4</ele>
        <time>2022-10-19T09:02:56Z</time>
      </trkpt>
      <trkpt lat="43.17332" lon="5.58459">
        <ele>137.9</ele>
        <time>2022-10-19T09:03:18Z</time>
      </trkpt>
      <trkpt lat="43.17337" lon="5.58455">
        <ele>137.8</ele>
        <time>2022-10-19T09:03:24Z</time>
      </trkpt>
      <trkpt lat="43.17342" lon="5.58451">
        <ele>138</ele>
        <time>2022-10-19T09:03:30Z</time>
      </trkpt>
      <trkpt lat="43.17347" lon="5.58448">
        <ele>138.3</ele>
        <time>2022-10-19T09:03:36Z</time>
      </trkpt>
      <trkpt lat="43.17353" lon="5.58444">
        <ele>138.8</ele>
        <time>2022-10-19T09:03:42Z</time>
      </trkpt>
      <trkpt lat="43.17358" lon="5.58439">
        <ele>138.5</ele>
        <time>2022-10-19T09:03:48Z</time>
      </trkpt>
      <trkpt lat="43.17364" lon="5.58437">
        <ele>139.1</ele>
        <time>2022-10-19T09:03:54Z</time>
      </trkpt>
      <trkpt lat="43.17369" lon="5.58435">
        <ele>139</ele>
        <time>2022-10-19T09:04:00Z</time>
      </trkpt>
      <trkpt lat="43.17374" lon="5.58433">
        <ele>139.4</ele>
        <time>2022-10-19T09:04:08Z</time>
      </trkpt>
      <trkpt lat="43.17379" lon="5.58431">
        <ele>139.8</ele>
        <time>2022-10-19T09:04:14Z</time>
      </trkpt>
      <trkpt lat="43.17382" lon="5.58427">
        <ele>139.7</ele>
        <time>2022-10-19T09:04:24Z</time>
      </trkpt>
      <trkpt lat="43.17384" lon="5.58419">
        <ele>139</ele>
        <time>2022-10-19T09:04:52Z</time>
      </trkpt>
      <trkpt lat="43.17382" lon="5.58413">
        <ele>138.9</ele>
        <time>2022-10-19T09:04:56Z</time>
      </trkpt>
      <trkpt lat="43.17377" lon="5.58408">
        <ele>138.9</ele>
        <time>2022-10-19T09:05:04Z</time>
      </trkpt>
      <trkpt lat="43.17372" lon="5.58407">
        <ele>138</ele>
        <time>2022-10-19T09:05:10Z</time>
      </trkpt>
      <trkpt lat="43.17368" lon="5.58404">
        <ele>138</ele>
        <time>2022-10-19T09:05:20Z</time>
      </trkpt>
      <trkpt lat="43.17364" lon="5.584">
        <ele>138.3</ele>
        <time>2022-10-19T09:05:40Z</time>
      </trkpt>
      <trkpt lat="43.17359" lon="5.58397">
        <ele>137.7</ele>
        <time>2022-10-19T09:05:46Z</time>
      </trkpt>
      <trkpt lat="43.17353" lon="5.58396">
        <ele>136.4</ele>
        <time>2022-10-19T09:05:52Z</time>
      </trkpt>
      <trkpt lat="43.17349" lon="5.58396">
        <ele>134.8</ele>
        <time>2022-10-19T09:06:24Z</time>
      </trkpt>
      <trkpt lat="43.17343" lon="5.584">
        <ele>131.8</ele>
        <time>2022-10-19T09:06:30Z</time>
      </trkpt>
      <trkpt lat="43.17339" lon="5.58395">
        <ele>132</ele>
        <time>2022-10-19T09:06:38Z</time>
      </trkpt>
      <trkpt lat="43.17334" lon="5.58391">
        <ele>131.4</ele>
        <time>2022-10-19T09:06:46Z</time>
      </trkpt>
      <trkpt lat="43.17328" lon="5.58392">
        <ele>130.5</ele>
        <time>2022-10-19T09:06:52Z</time>
      </trkpt>
      <trkpt lat="43.17324" lon="5.58392">
        <ele>129.7</ele>
        <time>2022-10-19T09:06:58Z</time>
      </trkpt>
      <trkpt lat="43.17318" lon="5.5839">
        <ele>129.3</ele>
        <time>2022-10-19T09:07:06Z</time>
      </trkpt>
      <trkpt lat="43.17313" lon="5.58392">
        <ele>128.1</ele>
        <time>2022-10-19T09:07:12Z</time>
      </trkpt>
      <trkpt lat="43.17308" lon="5.58388">
        <ele>128.6</ele>
        <time>2022-10-19T09:07:20Z</time>
      </trkpt>
      <trkpt lat="43.17304" lon="5.58384">
        <ele>128.9</ele>
        <time>2022-10-19T09:07:26Z</time>
      </trkpt>
      <trkpt lat="43.17298" lon="5.58382">
        <ele>128.3</ele>
        <time>2022-10-19T09:07:32Z</time>
      </trkpt>
      <trkpt lat="43.17293" lon="5.58381">
        <ele>127.7</ele>
        <time>2022-10-19T09:07:36Z</time>
      </trkpt>
      <trkpt lat="43.17288" lon="5.58383">
        <ele>126.6</ele>
        <time>2022-10-19T09:07:44Z</time>
      </trkpt>
      <trkpt lat="43.17284" lon="5.58382">
        <ele>126</ele>
        <time>2022-10-19T09:07:50Z</time>
      </trkpt>
      <trkpt lat="43.1728" lon="5.58379">
        <ele>125.7</ele>
        <time>2022-10-19T09:07:56Z</time>
      </trkpt>
      <trkpt lat="43.17274" lon="5.58378">
        <ele>124.7</ele>
        <time>2022-10-19T09:08:02Z</time>
      </trkpt>
      <trkpt lat="43.1727" lon="5.58376">
        <ele>123.9</ele>
        <time>2022-10-19T09:08:08Z</time>
      </trkpt>
      <trkpt lat="43.17265" lon="5.58375">
        <ele>122.8</ele>
        <time>2022-10-19T09:08:20Z</time>
      </trkpt>
      <trkpt lat="43.17261" lon="5.58377">
        <ele>121.6</ele>
        <time>2022-10-19T09:08:26Z</time>
      </trkpt>
      <trkpt lat="43.17256" lon="5.58378">
        <ele>120.5</ele>
        <time>2022-10-19T09:08:34Z</time>
      </trkpt>
      <trkpt lat="43.17251" lon="5.58378">
        <ele>119.4</ele>
        <time>2022-10-19T09:08:42Z</time>
      </trkpt>
      <trkpt lat="43.17246" lon="5.58378">
        <ele>118.2</ele>
        <time>2022-10-19T09:08:54Z</time>
      </trkpt>
      <trkpt lat="43.17241" lon="5.58379">
        <ele>117.3</ele>
        <time>2022-10-19T09:09:00Z</time>
      </trkpt>
      <trkpt lat="43.17237" lon="5.58381">
        <ele>116.6</ele>
        <time>2022-10-19T09:09:10Z</time>
      </trkpt>
      <trkpt lat="43.17232" lon="5.58381">
        <ele>115.7</ele>
        <time>2022-10-19T09:09:16Z</time>
      </trkpt>
      <trkpt lat="43.17226" lon="5.58382">
        <ele>114.6</ele>
        <time>2022-10-19T09:09:22Z</time>
      </trkpt>
      <trkpt lat="43.17221" lon="5.58383">
        <ele>114</ele>
        <time>2022-10-19T09:09:28Z</time>
      </trkpt>
      <trkpt lat="43.17217" lon="5.58386">
        <ele>114.4</ele>
        <time>2022-10-19T09:09:34Z</time>
      </trkpt>
      <trkpt lat="43.17212" lon="5.58387">
        <ele>114.5</ele>
        <time>2022-10-19T09:09:40Z</time>
      </trkpt>
      <trkpt lat="43.17207" lon="5.58389">
        <ele>114.9</ele>
        <time>2022-10-19T09:09:46Z</time>
      </trkpt>
      <trkpt lat="43.17202" lon="5.5839">
        <ele>114.5</ele>
        <time>2022-10-19T09:09:52Z</time>
      </trkpt>
      <trkpt lat="43.17196" lon="5.58391">
        <ele>114.3</ele>
        <time>2022-10-19T09:09:58Z</time>
      </trkpt>
      <trkpt lat="43.17191" lon="5.5839">
        <ele>114.6</ele>
        <time>2022-10-19T09:10:02Z</time>
      </trkpt>
      <trkpt lat="43.17185" lon="5.5839">
        <ele>114.4</ele>
        <time>2022-10-19T09:10:08Z</time>
      </trkpt>
      <trkpt lat="43.1718" lon="5.5839">
        <ele>114.2</ele>
        <time>2022-10-19T09:10:14Z</time>
      </trkpt>
      <trkpt lat="43.17174" lon="5.58392">
        <ele>113.6</ele>
        <time>2022-10-19T09:10:20Z</time>
      </trkpt>
      <trkpt lat="43.17168" lon="5.58393">
        <ele>113</ele>
        <time>2022-10-19T09:10:28Z</time>
      </trkpt>
      <trkpt lat="43.17163" lon="5.58396">
        <ele>112.1</ele>
        <time>2022-10-19T09:10:34Z</time>
      </trkpt>
      <trkpt lat="43.17157" lon="5.58397">
        <ele>111.3</ele>
        <time>2022-10-19T09:10:40Z</time>
      </trkpt>
      <trkpt lat="43.17151" lon="5.584">
        <ele>110.6</ele>
        <time>2022-10-19T09:10:46Z</time>
      </trkpt>
      <trkpt lat="43.17147" lon="5.58403">
        <ele>110.3</ele>
        <time>2022-10-19T09:10:52Z</time>
      </trkpt>
      <trkpt lat="43.17142" lon="5.58406">
        <ele>110.2</ele>
        <time>2022-10-19T09:10:58Z</time>
      </trkpt>
      <trkpt lat="43.17137" lon="5.58409">
        <ele>110.3</ele>
        <time>2022-10-19T09:11:04Z</time>
      </trkpt>
      <trkpt lat="43.17132" lon="5.58412">
        <ele>110.1</ele>
        <time>2022-10-19T09:11:12Z</time>
      </trkpt>
      <trkpt lat="43.17126" lon="5.58412">
        <ele>109.6</ele>
        <time>2022-10-19T09:11:20Z</time>
      </trkpt>
      <trkpt lat="43.17121" lon="5.58412">
        <ele>109</ele>
        <time>2022-10-19T09:11:28Z</time>
      </trkpt>
      <trkpt lat="43.17117" lon="5.58414">
        <ele>108.9</ele>
        <time>2022-10-19T09:11:34Z</time>
      </trkpt>
      <trkpt lat="43.17114" lon="5.58419">
        <ele>109</ele>
        <time>2022-10-19T09:11:44Z</time>
      </trkpt>
      <trkpt lat="43.17111" lon="5.58425">
        <ele>108.7</ele>
        <time>2022-10-19T09:11:52Z</time>
      </trkpt>
      <trkpt lat="43.17116" lon="5.5843">
        <ele>108.2</ele>
        <time>2022-10-19T09:12:12Z</time>
      </trkpt>
      <trkpt lat="43.17115" lon="5.58437">
        <ele>107.7</ele>
        <time>2022-10-19T09:12:34Z</time>
      </trkpt>
      <trkpt lat="43.17117" lon="5.58432">
        <ele>108</ele>
        <time>2022-10-19T09:14:06Z</time>
      </trkpt>
      <trkpt lat="43.17115" lon="5.58425">
        <ele>108.6</ele>
        <time>2022-10-19T09:14:12Z</time>
      </trkpt>
      <trkpt lat="43.17111" lon="5.58423">
        <ele>108.7</ele>
        <time>2022-10-19T09:15:28Z</time>
      </trkpt>
      <trkpt lat="43.17115" lon="5.58422">
        <ele>108.8</ele>
        <time>2022-10-19T09:16:04Z</time>
      </trkpt>
      <trkpt lat="43.17117" lon="5.58416">
        <ele>109.3</ele>
        <time>2022-10-19T09:16:14Z</time>
      </trkpt>
      <trkpt lat="43.17121" lon="5.58412">
        <ele>109</ele>
        <time>2022-10-19T09:16:26Z</time>
      </trkpt>
      <trkpt lat="43.17123" lon="5.58406">
        <ele>108.5</ele>
        <time>2022-10-19T09:16:38Z</time>
      </trkpt>
      <trkpt lat="43.17125" lon="5.584">
        <ele>107.9</ele>
        <time>2022-10-19T09:16:50Z</time>
      </trkpt>
      <trkpt lat="43.17126" lon="5.58392">
        <ele>107.1</ele>
        <time>2022-10-19T09:17:04Z</time>
      </trkpt>
      <trkpt lat="43.17127" lon="5.58386">
        <ele>106</ele>
        <time>2022-10-19T09:17:14Z</time>
      </trkpt>
      <trkpt lat="43.17124" lon="5.5838">
        <ele>103.7</ele>
        <time>2022-10-19T09:17:32Z</time>
      </trkpt>
      <trkpt lat="43.17123" lon="5.58374">
        <ele>101.5</ele>
        <time>2022-10-19T09:17:52Z</time>
      </trkpt>
      <trkpt lat="43.17123" lon="5.58368">
        <ele>99.5</ele>
        <time>2022-10-19T09:18:06Z</time>
      </trkpt>
      <trkpt lat="43.17125" lon="5.58362">
        <ele>98.4</ele>
        <time>2022-10-19T09:18:24Z</time>
      </trkpt>
      <trkpt lat="43.17128" lon="5.58357">
        <ele>97.1</ele>
        <time>2022-10-19T09:18:40Z</time>
      </trkpt>
      <trkpt lat="43.17131" lon="5.58351">
        <ele>95.6</ele>
        <time>2022-10-19T09:18:48Z</time>
      </trkpt>
      <trkpt lat="43.17136" lon="5.58349">
        <ele>95.7</ele>
        <time>2022-10-19T09:19:00Z</time>
      </trkpt>
      <trkpt lat="43.17139" lon="5.58344">
        <ele>94.2</ele>
        <time>2022-10-19T09:19:18Z</time>
      </trkpt>
      <trkpt lat="43.17142" lon="5.58338">
        <ele>92.3</ele>
        <time>2022-10-19T09:19:26Z</time>
      </trkpt>
      <trkpt lat="43.17142" lon="5.58331">
        <ele>90.8</ele>
        <time>2022-10-19T09:19:50Z</time>
      </trkpt>
      <trkpt lat="43.17138" lon="5.58328">
        <ele>90.2</ele>
        <time>2022-10-19T09:19:58Z</time>
      </trkpt>
      <trkpt lat="43.17135" lon="5.58323">
        <ele>90.6</ele>
        <time>2022-10-19T09:20:18Z</time>
      </trkpt>
      <trkpt lat="43.17131" lon="5.5832">
        <ele>90.7</ele>
        <time>2022-10-19T09:20:24Z</time>
      </trkpt>
      <trkpt lat="43.17125" lon="5.5832">
        <ele>90.7</ele>
        <time>2022-10-19T09:20:36Z</time>
      </trkpt>
      <trkpt lat="43.1712" lon="5.58317">
        <ele>91.1</ele>
        <time>2022-10-19T09:20:42Z</time>
      </trkpt>
      <trkpt lat="43.17117" lon="5.58313">
        <ele>92.4</ele>
        <time>2022-10-19T09:21:04Z</time>
      </trkpt>
      <trkpt lat="43.17116" lon="5.58306">
        <ele>94.2</ele>
        <time>2022-10-19T09:21:16Z</time>
      </trkpt>
      <trkpt lat="43.17111" lon="5.58304">
        <ele>95.6</ele>
        <time>2022-10-19T09:21:22Z</time>
      </trkpt>
      <trkpt lat="43.17107" lon="5.58301">
        <ele>96.8</ele>
        <time>2022-10-19T09:21:30Z</time>
      </trkpt>
      <trkpt lat="43.17102" lon="5.58302">
        <ele>96.9</ele>
        <time>2022-10-19T09:21:36Z</time>
      </trkpt>
      <trkpt lat="43.17098" lon="5.58298">
        <ele>98.6</ele>
        <time>2022-10-19T09:22:04Z</time>
      </trkpt>
      <trkpt lat="43.17094" lon="5.58293">
        <ele>100.6</ele>
        <time>2022-10-19T09:22:18Z</time>
      </trkpt>
      <trkpt lat="43.17089" lon="5.58292">
        <ele>101.2</ele>
        <time>2022-10-19T09:22:26Z</time>
      </trkpt>
      <trkpt lat="43.17088" lon="5.58285">
        <ele>103.9</ele>
        <time>2022-10-19T09:22:44Z</time>
      </trkpt>
      <trkpt lat="43.17085" lon="5.5828">
        <ele>105.9</ele>
        <time>2022-10-19T09:22:52Z</time>
      </trkpt>
      <trkpt lat="43.17082" lon="5.58275">
        <ele>107.9</ele>
        <time>2022-10-19T09:23:00Z</time>
      </trkpt>
      <trkpt lat="43.17081" lon="5.58269">
        <ele>109.9</ele>
        <time>2022-10-19T09:23:14Z</time>
      </trkpt>
      <trkpt lat="43.17081" lon="5.58262">
        <ele>111.9</ele>
        <time>2022-10-19T09:23:32Z</time>
      </trkpt>
      <trkpt lat="43.17081" lon="5.58255">
        <ele>113.9</ele>
        <time>2022-10-19T09:23:46Z</time>
      </trkpt>
      <trkpt lat="43.17081" lon="5.58249">
        <ele>115.6</ele>
        <time>2022-10-19T09:23:54Z</time>
      </trkpt>
      <trkpt lat="43.17082" lon="5.58242">
        <ele>117</ele>
        <time>2022-10-19T09:24:40Z</time>
      </trkpt>
      <trkpt lat="43.17085" lon="5.58238">
        <ele>117.9</ele>
        <time>2022-10-19T09:25:06Z</time>
      </trkpt>
      <trkpt lat="43.17084" lon="5.58231">
        <ele>119.6</ele>
        <time>2022-10-19T09:25:20Z</time>
      </trkpt>
      <trkpt lat="43.17078" lon="5.5823">
        <ele>120.1</ele>
        <time>2022-10-19T09:25:26Z</time>
      </trkpt>
      <trkpt lat="43.17077" lon="5.58222">
        <ele>121.8</ele>
        <time>2022-10-19T09:25:36Z</time>
      </trkpt>
      <trkpt lat="43.17076" lon="5.58216">
        <ele>122.7</ele>
        <time>2022-10-19T09:25:44Z</time>
      </trkpt>
      <trkpt lat="43.17073" lon="5.5821">
        <ele>123.3</ele>
        <time>2022-10-19T09:26:04Z</time>
      </trkpt>
      <trkpt lat="43.17071" lon="5.58204">
        <ele>124</ele>
        <time>2022-10-19T09:26:14Z</time>
      </trkpt>
      <trkpt lat="43.17069" lon="5.58198">
        <ele>124.5</ele>
        <time>2022-10-19T09:26:26Z</time>
      </trkpt>
      <trkpt lat="43.17071" lon="5.58192">
        <ele>125.7</ele>
        <time>2022-10-19T09:26:34Z</time>
      </trkpt>
      <trkpt lat="43.1707" lon="5.58185">
        <ele>127.2</ele>
        <time>2022-10-19T09:26:42Z</time>
      </trkpt>
      <trkpt lat="43.17067" lon="5.5818">
        <ele>128.2</ele>
        <time>2022-10-19T09:26:56Z</time>
      </trkpt>
      <trkpt lat="43.17067" lon="5.58172">
        <ele>130.2</ele>
        <time>2022-10-19T09:27:04Z</time>
      </trkpt>
      <trkpt lat="43.17063" lon="5.58167">
        <ele>131.3</ele>
        <time>2022-10-19T09:27:12Z</time>
      </trkpt>
      <trkpt lat="43.17059" lon="5.58161">
        <ele>132.4</ele>
        <time>2022-10-19T09:27:20Z</time>
      </trkpt>
      <trkpt lat="43.17061" lon="5.58155">
        <ele>133.7</ele>
        <time>2022-10-19T09:27:32Z</time>
      </trkpt>
      <trkpt lat="43.17061" lon="5.58147">
        <ele>135.6</ele>
        <time>2022-10-19T09:27:46Z</time>
      </trkpt>
      <trkpt lat="43.17062" lon="5.58141">
        <ele>136.9</ele>
        <time>2022-10-19T09:27:52Z</time>
      </trkpt>
      <trkpt lat="43.17064" lon="5.58134">
        <ele>132.3</ele>
        <time>2022-10-19T09:28:00Z</time>
      </trkpt>
      <trkpt lat="43.17061" lon="5.5814">
        <ele>137.2</ele>
        <time>2022-10-19T09:28:56Z</time>
      </trkpt>
      <trkpt lat="43.17063" lon="5.58133">
        <ele>130.9</ele>
        <time>2022-10-19T09:30:38Z</time>
      </trkpt>
      <trkpt lat="43.17067" lon="5.58131">
        <ele>129.8</ele>
        <time>2022-10-19T09:30:54Z</time>
      </trkpt>
      <trkpt lat="43.17064" lon="5.58135">
        <ele>133.8</ele>
        <time>2022-10-19T09:33:12Z</time>
      </trkpt>
      <trkpt lat="43.17068" lon="5.58131">
        <ele>130.8</ele>
        <time>2022-10-19T09:34:12Z</time>
      </trkpt>
      <trkpt lat="43.17064" lon="5.58129">
        <ele>127.8</ele>
        <time>2022-10-19T09:35:22Z</time>
      </trkpt>
      <trkpt lat="43.17061" lon="5.58134">
        <ele>131.7</ele>
        <time>2022-10-19T09:37:08Z</time>
      </trkpt>
      <trkpt lat="43.1706" lon="5.5814">
        <ele>137.2</ele>
        <time>2022-10-19T09:37:24Z</time>
      </trkpt>
      <trkpt lat="43.17061" lon="5.58147">
        <ele>135.5</ele>
        <time>2022-10-19T09:37:32Z</time>
      </trkpt>
      <trkpt lat="43.17061" lon="5.58155">
        <ele>133.9</ele>
        <time>2022-10-19T09:37:44Z</time>
      </trkpt>
      <trkpt lat="43.1706" lon="5.58164">
        <ele>131.8</ele>
        <time>2022-10-19T09:38:30Z</time>
      </trkpt>
      <trkpt lat="43.17063" lon="5.58169">
        <ele>130.5</ele>
        <time>2022-10-19T09:38:46Z</time>
      </trkpt>
      <trkpt lat="43.17067" lon="5.58173">
        <ele>129.7</ele>
        <time>2022-10-19T09:38:56Z</time>
      </trkpt>
      <trkpt lat="43.17067" lon="5.58181">
        <ele>128.1</ele>
        <time>2022-10-19T09:39:08Z</time>
      </trkpt>
      <trkpt lat="43.17069" lon="5.58187">
        <ele>126.5</ele>
        <time>2022-10-19T09:39:40Z</time>
      </trkpt>
      <trkpt lat="43.1707" lon="5.58193">
        <ele>125.4</ele>
        <time>2022-10-19T09:39:50Z</time>
      </trkpt>
      <trkpt lat="43.17071" lon="5.582">
        <ele>124.4</ele>
        <time>2022-10-19T09:40:08Z</time>
      </trkpt>
      <trkpt lat="43.17071" lon="5.58207">
        <ele>123.6</ele>
        <time>2022-10-19T09:40:16Z</time>
      </trkpt>
      <trkpt lat="43.17071" lon="5.58213">
        <ele>122.8</ele>
        <time>2022-10-19T09:40:32Z</time>
      </trkpt>
      <trkpt lat="43.17074" lon="5.58219">
        <ele>122.1</ele>
        <time>2022-10-19T09:40:42Z</time>
      </trkpt>
      <trkpt lat="43.17075" lon="5.58225">
        <ele>121</ele>
        <time>2022-10-19T09:40:52Z</time>
      </trkpt>
      <trkpt lat="43.1708" lon="5.58231">
        <ele>119.8</ele>
        <time>2022-10-19T09:41:02Z</time>
      </trkpt>
      <trkpt lat="43.17083" lon="5.58236">
        <ele>118.6</ele>
        <time>2022-10-19T09:41:12Z</time>
      </trkpt>
      <trkpt lat="43.17081" lon="5.58242">
        <ele>117.1</ele>
        <time>2022-10-19T09:41:40Z</time>
      </trkpt>
      <trkpt lat="43.17081" lon="5.58249">
        <ele>115.4</ele>
        <time>2022-10-19T09:41:48Z</time>
      </trkpt>
      <trkpt lat="43.1708" lon="5.58256">
        <ele>113.8</ele>
        <time>2022-10-19T09:42:02Z</time>
      </trkpt>
      <trkpt lat="43.17078" lon="5.58261">
        <ele>112.4</ele>
        <time>2022-10-19T09:42:12Z</time>
      </trkpt>
      <trkpt lat="43.1708" lon="5.58267">
        <ele>110.5</ele>
        <time>2022-10-19T09:42:20Z</time>
      </trkpt>
      <trkpt lat="43.17081" lon="5.58274">
        <ele>108.6</ele>
        <time>2022-10-19T09:42:34Z</time>
      </trkpt>
      <trkpt lat="43.17084" lon="5.58278">
        <ele>106.8</ele>
        <time>2022-10-19T09:42:44Z</time>
      </trkpt>
      <trkpt lat="43.17084" lon="5.58286">
        <ele>103.9</ele>
        <time>2022-10-19T09:42:58Z</time>
      </trkpt>
      <trkpt lat="43.17085" lon="5.58293">
        <ele>101.4</ele>
        <time>2022-10-19T09:43:12Z</time>
      </trkpt>
      <trkpt lat="43.1709" lon="5.58296">
        <ele>99.8</ele>
        <time>2022-10-19T09:43:20Z</time>
      </trkpt>
      <trkpt lat="43.17094" lon="5.58299">
        <ele>98.6</ele>
        <time>2022-10-19T09:43:50Z</time>
      </trkpt>
      <trkpt lat="43.17097" lon="5.58303">
        <ele>96.9</ele>
        <time>2022-10-19T09:44:10Z</time>
      </trkpt>
      <trkpt lat="43.17102" lon="5.58305">
        <ele>95.8</ele>
        <time>2022-10-19T09:44:16Z</time>
      </trkpt>
      <trkpt lat="43.17107" lon="5.58308">
        <ele>94.6</ele>
        <time>2022-10-19T09:44:28Z</time>
      </trkpt>
      <trkpt lat="43.17111" lon="5.58311">
        <ele>93.1</ele>
        <time>2022-10-19T09:44:42Z</time>
      </trkpt>
      <trkpt lat="43.17115" lon="5.58315">
        <ele>91.7</ele>
        <time>2022-10-19T09:45:00Z</time>
      </trkpt>
      <trkpt lat="43.17118" lon="5.5832">
        <ele>90.5</ele>
        <time>2022-10-19T09:45:24Z</time>
      </trkpt>
      <trkpt lat="43.17121" lon="5.58324">
        <ele>89.7</ele>
        <time>2022-10-19T09:45:36Z</time>
      </trkpt>
      <trkpt lat="43.17127" lon="5.58325">
        <ele>89.8</ele>
        <time>2022-10-19T09:46:12Z</time>
      </trkpt>
      <trkpt lat="43.17132" lon="5.58327">
        <ele>89.8</ele>
        <time>2022-10-19T09:46:20Z</time>
      </trkpt>
      <trkpt lat="43.17136" lon="5.58332">
        <ele>89.8</ele>
        <time>2022-10-19T09:46:28Z</time>
      </trkpt>
      <trkpt lat="43.17141" lon="5.58333">
        <ele>90.5</ele>
        <time>2022-10-19T09:46:46Z</time>
      </trkpt>
      <trkpt lat="43.17144" lon="5.58326">
        <ele>91.3</ele>
        <time>2022-10-19T09:46:54Z</time>
      </trkpt>
      <trkpt lat="43.17139" lon="5.58329">
        <ele>90.4</ele>
        <time>2022-10-19T09:48:20Z</time>
      </trkpt>
      <trkpt lat="43.17137" lon="5.58334">
        <ele>89.8</ele>
        <time>2022-10-19T09:48:40Z</time>
      </trkpt>
      <trkpt lat="43.17134" lon="5.58339">
        <ele>91.6</ele>
        <time>2022-10-19T09:48:50Z</time>
      </trkpt>
      <trkpt lat="43.1713" lon="5.58342">
        <ele>91.8</ele>
        <time>2022-10-19T09:48:58Z</time>
      </trkpt>
      <trkpt lat="43.17126" lon="5.58347">
        <ele>93.2</ele>
        <time>2022-10-19T09:49:12Z</time>
      </trkpt>
      <trkpt lat="43.17123" lon="5.58352">
        <ele>94.5</ele>
        <time>2022-10-19T09:49:18Z</time>
      </trkpt>
      <trkpt lat="43.17119" lon="5.58356">
        <ele>94.8</ele>
        <time>2022-10-19T09:49:30Z</time>
      </trkpt>
      <trkpt lat="43.17118" lon="5.58362">
        <ele>96.8</ele>
        <time>2022-10-19T09:49:42Z</time>
      </trkpt>
      <trkpt lat="43.17118" lon="5.58368">
        <ele>98.9</ele>
        <time>2022-10-19T09:49:50Z</time>
      </trkpt>
      <trkpt lat="43.1712" lon="5.58374">
        <ele>101.1</ele>
        <time>2022-10-19T09:50:00Z</time>
      </trkpt>
      <trkpt lat="43.17124" lon="5.5838">
        <ele>103.5</ele>
        <time>2022-10-19T09:50:16Z</time>
      </trkpt>
      <trkpt lat="43.17123" lon="5.58387">
        <ele>105.5</ele>
        <time>2022-10-19T09:50:32Z</time>
      </trkpt>
      <trkpt lat="43.17123" lon="5.58395">
        <ele>107</ele>
        <time>2022-10-19T09:50:46Z</time>
      </trkpt>
      <trkpt lat="43.17123" lon="5.58405">
        <ele>108.2</ele>
        <time>2022-10-19T09:51:12Z</time>
      </trkpt>
      <trkpt lat="43.17119" lon="5.58411">
        <ele>108.7</ele>
        <time>2022-10-19T09:51:20Z</time>
      </trkpt>
      <trkpt lat="43.17116" lon="5.58418">
        <ele>109.3</ele>
        <time>2022-10-19T09:51:28Z</time>
      </trkpt>
      <trkpt lat="43.17113" lon="5.58423">
        <ele>108.8</ele>
        <time>2022-10-19T09:51:34Z</time>
      </trkpt>
      <trkpt lat="43.17109" lon="5.58427">
        <ele>108.3</ele>
        <time>2022-10-19T10:01:50Z</time>
      </trkpt>
      <trkpt lat="43.17113" lon="5.58422">
        <ele>108.8</ele>
        <time>2022-10-19T10:10:58Z</time>
      </trkpt>
      <trkpt lat="43.17116" lon="5.58418">
        <ele>109.3</ele>
        <time>2022-10-19T10:11:18Z</time>
      </trkpt>
      <trkpt lat="43.17119" lon="5.58413">
        <ele>109</ele>
        <time>2022-10-19T10:11:26Z</time>
      </trkpt>
      <trkpt lat="43.17125" lon="5.58412">
        <ele>109.3</ele>
        <time>2022-10-19T10:11:36Z</time>
      </trkpt>
      <trkpt lat="43.1713" lon="5.58413">
        <ele>109.9</ele>
        <time>2022-10-19T10:11:42Z</time>
      </trkpt>
      <trkpt lat="43.17135" lon="5.58411">
        <ele>110.2</ele>
        <time>2022-10-19T10:11:48Z</time>
      </trkpt>
      <trkpt lat="43.1714" lon="5.58408">
        <ele>110.4</ele>
        <time>2022-10-19T10:11:54Z</time>
      </trkpt>
      <trkpt lat="43.17146" lon="5.58405">
        <ele>110.3</ele>
        <time>2022-10-19T10:12:02Z</time>
      </trkpt>
      <trkpt lat="43.17151" lon="5.58402">
        <ele>110.5</ele>
        <time>2022-10-19T10:12:08Z</time>
      </trkpt>
      <trkpt lat="43.17156" lon="5.58399">
        <ele>111</ele>
        <time>2022-10-19T10:12:14Z</time>
      </trkpt>
      <trkpt lat="43.17162" lon="5.58398">
        <ele>111.7</ele>
        <time>2022-10-19T10:12:22Z</time>
      </trkpt>
      <trkpt lat="43.17167" lon="5.58396">
        <ele>112.5</ele>
        <time>2022-10-19T10:12:28Z</time>
      </trkpt>
      <trkpt lat="43.17172" lon="5.58394">
        <ele>113</ele>
        <time>2022-10-19T10:12:34Z</time>
      </trkpt>
      <trkpt lat="43.17177" lon="5.58393">
        <ele>113.3</ele>
        <time>2022-10-19T10:12:40Z</time>
      </trkpt>
      <trkpt lat="43.17183" lon="5.58393">
        <ele>113.6</ele>
        <time>2022-10-19T10:12:46Z</time>
      </trkpt>
      <trkpt lat="43.17189" lon="5.58393">
        <ele>113.6</ele>
        <time>2022-10-19T10:12:52Z</time>
      </trkpt>
      <trkpt lat="43.17195" lon="5.58394">
        <ele>113.5</ele>
        <time>2022-10-19T10:12:58Z</time>
      </trkpt>
      <trkpt lat="43.17201" lon="5.58394">
        <ele>113.6</ele>
        <time>2022-10-19T10:13:04Z</time>
      </trkpt>
      <trkpt lat="43.17206" lon="5.58393">
        <ele>113.7</ele>
        <time>2022-10-19T10:13:10Z</time>
      </trkpt>
      <trkpt lat="43.17211" lon="5.58392">
        <ele>114</ele>
        <time>2022-10-19T10:13:16Z</time>
      </trkpt>
      <trkpt lat="43.17217" lon="5.5839">
        <ele>114.6</ele>
        <time>2022-10-19T10:13:22Z</time>
      </trkpt>
      <trkpt lat="43.17222" lon="5.58387">
        <ele>114.7</ele>
        <time>2022-10-19T10:13:28Z</time>
      </trkpt>
      <trkpt lat="43.17227" lon="5.58386">
        <ele>115.3</ele>
        <time>2022-10-19T10:13:34Z</time>
      </trkpt>
      <trkpt lat="43.17232" lon="5.58384">
        <ele>116.1</ele>
        <time>2022-10-19T10:13:42Z</time>
      </trkpt>
      <trkpt lat="43.17237" lon="5.58383">
        <ele>117</ele>
        <time>2022-10-19T10:13:54Z</time>
      </trkpt>
      <trkpt lat="43.17242" lon="5.58381">
        <ele>117.8</ele>
        <time>2022-10-19T10:14:02Z</time>
      </trkpt>
      <trkpt lat="43.17248" lon="5.58381">
        <ele>118.9</ele>
        <time>2022-10-19T10:14:12Z</time>
      </trkpt>
      <trkpt lat="43.17252" lon="5.5838">
        <ele>119.8</ele>
        <time>2022-10-19T10:14:20Z</time>
      </trkpt>
      <trkpt lat="43.17257" lon="5.58379">
        <ele>120.9</ele>
        <time>2022-10-19T10:14:30Z</time>
      </trkpt>
      <trkpt lat="43.17263" lon="5.5838">
        <ele>122</ele>
        <time>2022-10-19T10:14:40Z</time>
      </trkpt>
      <trkpt lat="43.17268" lon="5.58382">
        <ele>123.1</ele>
        <time>2022-10-19T10:14:46Z</time>
      </trkpt>
      <trkpt lat="43.17273" lon="5.58383">
        <ele>123.9</ele>
        <time>2022-10-19T10:14:52Z</time>
      </trkpt>
      <trkpt lat="43.17278" lon="5.58384">
        <ele>124.8</ele>
        <time>2022-10-19T10:14:58Z</time>
      </trkpt>
      <trkpt lat="43.17284" lon="5.58383">
        <ele>125.8</ele>
        <time>2022-10-19T10:15:06Z</time>
      </trkpt>
      <trkpt lat="43.1729" lon="5.58385">
        <ele>126.4</ele>
        <time>2022-10-19T10:15:16Z</time>
      </trkpt>
      <trkpt lat="43.17294" lon="5.58387">
        <ele>126.7</ele>
        <time>2022-10-19T10:15:22Z</time>
      </trkpt>
      <trkpt lat="43.17299" lon="5.58389">
        <ele>126.9</ele>
        <time>2022-10-19T10:15:28Z</time>
      </trkpt>
      <trkpt lat="43.17303" lon="5.5839">
        <ele>127.2</ele>
        <time>2022-10-19T10:15:34Z</time>
      </trkpt>
      <trkpt lat="43.17308" lon="5.58392">
        <ele>127.3</ele>
        <time>2022-10-19T10:15:42Z</time>
      </trkpt>
      <trkpt lat="43.17313" lon="5.58392">
        <ele>128</ele>
        <time>2022-10-19T10:15:48Z</time>
      </trkpt>
      <trkpt lat="43.17318" lon="5.58392">
        <ele>128.7</ele>
        <time>2022-10-19T10:15:54Z</time>
      </trkpt>
      <trkpt lat="43.17324" lon="5.58392">
        <ele>129.6</ele>
        <time>2022-10-19T10:16:00Z</time>
      </trkpt>
      <trkpt lat="43.17329" lon="5.5839">
        <ele>131</ele>
        <time>2022-10-19T10:16:06Z</time>
      </trkpt>
      <trkpt lat="43.17334" lon="5.58393">
        <ele>130.9</ele>
        <time>2022-10-19T10:16:12Z</time>
      </trkpt>
      <trkpt lat="43.17338" lon="5.58395">
        <ele>132</ele>
        <time>2022-10-19T10:16:18Z</time>
      </trkpt>
      <trkpt lat="43.17344" lon="5.58395">
        <ele>133.5</ele>
        <time>2022-10-19T10:16:26Z</time>
      </trkpt>
      <trkpt lat="43.17349" lon="5.58397">
        <ele>134.4</ele>
        <time>2022-10-19T10:16:34Z</time>
      </trkpt>
      <trkpt lat="43.17353" lon="5.58399">
        <ele>135.2</ele>
        <time>2022-10-19T10:16:44Z</time>
      </trkpt>
      <trkpt lat="43.17358" lon="5.58403">
        <ele>135.5</ele>
        <time>2022-10-19T10:16:52Z</time>
      </trkpt>
      <trkpt lat="43.17363" lon="5.58404">
        <ele>136.6</ele>
        <time>2022-10-19T10:17:02Z</time>
      </trkpt>
      <trkpt lat="43.17368" lon="5.58406">
        <ele>137</ele>
        <time>2022-10-19T10:17:08Z</time>
      </trkpt>
      <trkpt lat="43.17373" lon="5.58407">
        <ele>138</ele>
        <time>2022-10-19T10:17:14Z</time>
      </trkpt>
      <trkpt lat="43.17376" lon="5.58412">
        <ele>137.5</ele>
        <time>2022-10-19T10:17:20Z</time>
      </trkpt>
      <trkpt lat="43.17378" lon="5.58418">
        <ele>137.1</ele>
        <time>2022-10-19T10:17:28Z</time>
      </trkpt>
      <trkpt lat="43.1738" lon="5.58424">
        <ele>138.9</ele>
        <time>2022-10-19T10:17:40Z</time>
      </trkpt>
      <trkpt lat="43.17385" lon="5.58416">
        <ele>139.1</ele>
        <time>2022-10-19T10:17:56Z</time>
      </trkpt>
      <trkpt lat="43.17385" lon="5.58409">
        <ele>140.8</ele>
        <time>2022-10-19T10:18:02Z</time>
      </trkpt>
      <trkpt lat="43.17385" lon="5.58401">
        <ele>142.3</ele>
        <time>2022-10-19T10:18:10Z</time>
      </trkpt>
      <trkpt lat="43.1738" lon="5.58399">
        <ele>142</ele>
        <time>2022-10-19T10:18:14Z</time>
      </trkpt>
      <trkpt lat="43.17375" lon="5.58395">
        <ele>141.9</ele>
        <time>2022-10-19T10:18:22Z</time>
      </trkpt>
      <trkpt lat="43.17371" lon="5.58393">
        <ele>141.7</ele>
        <time>2022-10-19T10:18:30Z</time>
      </trkpt>
      <trkpt lat="43.17368" lon="5.58388">
        <ele>142.3</ele>
        <time>2022-10-19T10:18:36Z</time>
      </trkpt>
      <trkpt lat="43.17364" lon="5.58384">
        <ele>142.7</ele>
        <time>2022-10-19T10:18:42Z</time>
      </trkpt>
      <trkpt lat="43.17362" lon="5.58379">
        <ele>143.4</ele>
        <time>2022-10-19T10:18:48Z</time>
      </trkpt>
      <trkpt lat="43.17359" lon="5.58372">
        <ele>144.2</ele>
        <time>2022-10-19T10:18:56Z</time>
      </trkpt>
      <trkpt lat="43.17358" lon="5.58366">
        <ele>145.2</ele>
        <time>2022-10-19T10:19:02Z</time>
      </trkpt>
      <trkpt lat="43.17356" lon="5.5836">
        <ele>146</ele>
        <time>2022-10-19T10:19:08Z</time>
      </trkpt>
      <trkpt lat="43.17354" lon="5.58353">
        <ele>146.4</ele>
        <time>2022-10-19T10:19:14Z</time>
      </trkpt>
      <trkpt lat="43.17352" lon="5.58347">
        <ele>146.9</ele>
        <time>2022-10-19T10:19:20Z</time>
      </trkpt>
      <trkpt lat="43.17353" lon="5.58339">
        <ele>148.2</ele>
        <time>2022-10-19T10:19:28Z</time>
      </trkpt>
      <trkpt lat="43.17355" lon="5.58333">
        <ele>149.7</ele>
        <time>2022-10-19T10:19:36Z</time>
      </trkpt>
      <trkpt lat="43.17358" lon="5.58326">
        <ele>150.5</ele>
        <time>2022-10-19T10:19:44Z</time>
      </trkpt>
      <trkpt lat="43.17363" lon="5.58321">
        <ele>152.1</ele>
        <time>2022-10-19T10:19:52Z</time>
      </trkpt>
      <trkpt lat="43.17366" lon="5.58315">
        <ele>153</ele>
        <time>2022-10-19T10:20:00Z</time>
      </trkpt>
      <trkpt lat="43.17369" lon="5.58309">
        <ele>154</ele>
        <time>2022-10-19T10:20:08Z</time>
      </trkpt>
      <trkpt lat="43.17373" lon="5.58304">
        <ele>155.4</ele>
        <time>2022-10-19T10:20:16Z</time>
      </trkpt>
      <trkpt lat="43.17377" lon="5.58301">
        <ele>156.8</ele>
        <time>2022-10-19T10:20:22Z</time>
      </trkpt>
      <trkpt lat="43.1738" lon="5.58295">
        <ele>157.7</ele>
        <time>2022-10-19T10:20:30Z</time>
      </trkpt>
      <trkpt lat="43.17383" lon="5.5829">
        <ele>158.8</ele>
        <time>2022-10-19T10:20:38Z</time>
      </trkpt>
      <trkpt lat="43.17387" lon="5.58285">
        <ele>160.3</ele>
        <time>2022-10-19T10:20:46Z</time>
      </trkpt>
      <trkpt lat="43.1739" lon="5.5828">
        <ele>161.5</ele>
        <time>2022-10-19T10:20:54Z</time>
      </trkpt>
      <trkpt lat="43.17394" lon="5.58274">
        <ele>162.6</ele>
        <time>2022-10-19T10:21:02Z</time>
      </trkpt>
      <trkpt lat="43.17397" lon="5.58269">
        <ele>163</ele>
        <time>2022-10-19T10:21:10Z</time>
      </trkpt>
      <trkpt lat="43.17401" lon="5.58264">
        <ele>164.1</ele>
        <time>2022-10-19T10:21:18Z</time>
      </trkpt>
      <trkpt lat="43.17403" lon="5.58258">
        <ele>164</ele>
        <time>2022-10-19T10:21:28Z</time>
      </trkpt>
      <trkpt lat="43.17405" lon="5.58252">
        <ele>164.3</ele>
        <time>2022-10-19T10:21:42Z</time>
      </trkpt>
      <trkpt lat="43.17409" lon="5.58249">
        <ele>166.1</ele>
        <time>2022-10-19T10:21:54Z</time>
      </trkpt>
      <trkpt lat="43.17413" lon="5.58245">
        <ele>167.4</ele>
        <time>2022-10-19T10:22:18Z</time>
      </trkpt>
      <trkpt lat="43.17417" lon="5.58239">
        <ele>167.9</ele>
        <time>2022-10-19T10:22:28Z</time>
      </trkpt>
      <trkpt lat="43.17419" lon="5.58234">
        <ele>168.5</ele>
        <time>2022-10-19T10:22:34Z</time>
      </trkpt>
      <trkpt lat="43.17422" lon="5.58228">
        <ele>169</ele>
        <time>2022-10-19T10:22:40Z</time>
      </trkpt>
      <trkpt lat="43.17425" lon="5.58222">
        <ele>169.4</ele>
        <time>2022-10-19T10:22:46Z</time>
      </trkpt>
      <trkpt lat="43.17429" lon="5.58218">
        <ele>170.3</ele>
        <time>2022-10-19T10:22:54Z</time>
      </trkpt>
      <trkpt lat="43.17434" lon="5.58215">
        <ele>171.7</ele>
        <time>2022-10-19T10:23:06Z</time>
      </trkpt>
      <trkpt lat="43.17438" lon="5.5821">
        <ele>172.8</ele>
        <time>2022-10-19T10:23:14Z</time>
      </trkpt>
      <trkpt lat="43.1744" lon="5.58205">
        <ele>173.1</ele>
        <time>2022-10-19T10:23:20Z</time>
      </trkpt>
      <trkpt lat="43.17443" lon="5.58199">
        <ele>173.5</ele>
        <time>2022-10-19T10:23:28Z</time>
      </trkpt>
      <trkpt lat="43.17448" lon="5.58196">
        <ele>175</ele>
        <time>2022-10-19T10:23:36Z</time>
      </trkpt>
      <trkpt lat="43.17453" lon="5.58191">
        <ele>175.5</ele>
        <time>2022-10-19T10:23:48Z</time>
      </trkpt>
      <trkpt lat="43.17458" lon="5.58187">
        <ele>175.9</ele>
        <time>2022-10-19T10:23:56Z</time>
      </trkpt>
      <trkpt lat="43.17462" lon="5.58181">
        <ele>175.4</ele>
        <time>2022-10-19T10:24:04Z</time>
      </trkpt>
      <trkpt lat="43.17465" lon="5.58176">
        <ele>175.4</ele>
        <time>2022-10-19T10:24:10Z</time>
      </trkpt>
      <trkpt lat="43.17469" lon="5.58172">
        <ele>175.5</ele>
        <time>2022-10-19T10:24:16Z</time>
      </trkpt>
      <trkpt lat="43.17473" lon="5.58168">
        <ele>175.5</ele>
        <time>2022-10-19T10:24:22Z</time>
      </trkpt>
      <trkpt lat="43.17478" lon="5.58164">
        <ele>175.6</ele>
        <time>2022-10-19T10:24:30Z</time>
      </trkpt>
      <trkpt lat="43.17484" lon="5.58162">
        <ele>176.4</ele>
        <time>2022-10-19T10:24:36Z</time>
      </trkpt>
      <trkpt lat="43.17488" lon="5.58159">
        <ele>176.2</ele>
        <time>2022-10-19T10:24:46Z</time>
      </trkpt>
      <trkpt lat="43.17493" lon="5.58155">
        <ele>175.8</ele>
        <time>2022-10-19T10:24:54Z</time>
      </trkpt>
      <trkpt lat="43.17499" lon="5.58152">
        <ele>176.4</ele>
        <time>2022-10-19T10:25:00Z</time>
      </trkpt>
      <trkpt lat="43.17505" lon="5.5815">
        <ele>177.5</ele>
        <time>2022-10-19T10:25:06Z</time>
      </trkpt>
      <trkpt lat="43.1751" lon="5.58146">
        <ele>178</ele>
        <time>2022-10-19T10:25:12Z</time>
      </trkpt>
      <trkpt lat="43.17513" lon="5.58143">
        <ele>178.2</ele>
        <time>2022-10-19T10:25:18Z</time>
      </trkpt>
      <trkpt lat="43.17518" lon="5.58139">
        <ele>179.4</ele>
        <time>2022-10-19T10:25:24Z</time>
      </trkpt>
      <trkpt lat="43.17521" lon="5.58132">
        <ele>179.6</ele>
        <time>2022-10-19T10:25:30Z</time>
      </trkpt>
      <trkpt lat="43.17524" lon="5.58126">
        <ele>180.1</ele>
        <time>2022-10-19T10:25:36Z</time>
      </trkpt>
      <trkpt lat="43.17526" lon="5.58121">
        <ele>181.1</ele>
        <time>2022-10-19T10:25:42Z</time>
      </trkpt>
      <trkpt lat="43.17531" lon="5.58115">
        <ele>183</ele>
        <time>2022-10-19T10:25:48Z</time>
      </trkpt>
      <trkpt lat="43.17534" lon="5.5811">
        <ele>183.2</ele>
        <time>2022-10-19T10:25:54Z</time>
      </trkpt>
      <trkpt lat="43.17537" lon="5.58105">
        <ele>182.5</ele>
        <time>2022-10-19T10:26:00Z</time>
      </trkpt>
      <trkpt lat="43.17541" lon="5.58101">
        <ele>182.4</ele>
        <time>2022-10-19T10:26:06Z</time>
      </trkpt>
      <trkpt lat="43.17544" lon="5.58096">
        <ele>181.8</ele>
        <time>2022-10-19T10:26:12Z</time>
      </trkpt>
      <trkpt lat="43.17549" lon="5.58092">
        <ele>182.5</ele>
        <time>2022-10-19T10:26:18Z</time>
      </trkpt>
      <trkpt lat="43.17555" lon="5.58091">
        <ele>184.9</ele>
        <time>2022-10-19T10:26:24Z</time>
      </trkpt>
      <trkpt lat="43.1756" lon="5.58089">
        <ele>185.4</ele>
        <time>2022-10-19T10:26:30Z</time>
      </trkpt>
      <trkpt lat="43.17565" lon="5.58084">
        <ele>184.3</ele>
        <time>2022-10-19T10:26:36Z</time>
      </trkpt>
      <trkpt lat="43.17569" lon="5.58081">
        <ele>185.1</ele>
        <time>2022-10-19T10:26:40Z</time>
      </trkpt>
      <trkpt lat="43.17572" lon="5.58073">
        <ele>185.6</ele>
        <time>2022-10-19T10:26:46Z</time>
      </trkpt>
      <trkpt lat="43.1757" lon="5.58065">
        <ele>184.7</ele>
        <time>2022-10-19T10:26:52Z</time>
      </trkpt>
      <trkpt lat="43.17567" lon="5.58059">
        <ele>183.9</ele>
        <time>2022-10-19T10:26:58Z</time>
      </trkpt>
      <trkpt lat="43.17563" lon="5.58053">
        <ele>184.2</ele>
        <time>2022-10-19T10:27:06Z</time>
      </trkpt>
      <trkpt lat="43.17558" lon="5.58049">
        <ele>185.1</ele>
        <time>2022-10-19T10:27:12Z</time>
      </trkpt>
      <trkpt lat="43.17556" lon="5.58042">
        <ele>186.8</ele>
        <time>2022-10-19T10:27:20Z</time>
      </trkpt>
      <trkpt lat="43.17552" lon="5.58038">
        <ele>187.6</ele>
        <time>2022-10-19T10:27:26Z</time>
      </trkpt>
      <trkpt lat="43.17549" lon="5.58033">
        <ele>188.8</ele>
        <time>2022-10-19T10:27:32Z</time>
      </trkpt>
      <trkpt lat="43.17544" lon="5.58031">
        <ele>189.4</ele>
        <time>2022-10-19T10:27:38Z</time>
      </trkpt>
      <trkpt lat="43.1754" lon="5.58026">
        <ele>191</ele>
        <time>2022-10-19T10:27:44Z</time>
      </trkpt>
      <trkpt lat="43.17537" lon="5.58021">
        <ele>192.3</ele>
        <time>2022-10-19T10:27:52Z</time>
      </trkpt>
      <trkpt lat="43.17532" lon="5.58015">
        <ele>193.6</ele>
        <time>2022-10-19T10:28:00Z</time>
      </trkpt>
      <trkpt lat="43.1753" lon="5.58009">
        <ele>194.8</ele>
        <time>2022-10-19T10:28:06Z</time>
      </trkpt>
      <trkpt lat="43.17525" lon="5.58004">
        <ele>195.1</ele>
        <time>2022-10-19T10:28:14Z</time>
      </trkpt>
      <trkpt lat="43.17522" lon="5.57998">
        <ele>194.9</ele>
        <time>2022-10-19T10:28:22Z</time>
      </trkpt>
      <trkpt lat="43.17519" lon="5.57993">
        <ele>194.8</ele>
        <time>2022-10-19T10:28:30Z</time>
      </trkpt>
      <trkpt lat="43.17518" lon="5.57986">
        <ele>195.5</ele>
        <time>2022-10-19T10:28:38Z</time>
      </trkpt>
      <trkpt lat="43.17518" lon="5.57979">
        <ele>196.3</ele>
        <time>2022-10-19T10:28:46Z</time>
      </trkpt>
      <trkpt lat="43.17515" lon="5.57974">
        <ele>195.8</ele>
        <time>2022-10-19T10:30:08Z</time>
      </trkpt>
      <trkpt lat="43.17516" lon="5.5798">
        <ele>195.5</ele>
        <time>2022-10-19T10:30:36Z</time>
      </trkpt>
      <trkpt lat="43.17517" lon="5.57973">
        <ele>197</ele>
        <time>2022-10-19T10:31:50Z</time>
      </trkpt>
      <trkpt lat="43.17519" lon="5.57967">
        <ele>198.7</ele>
        <time>2022-10-19T10:31:58Z</time>
      </trkpt>
      <trkpt lat="43.17521" lon="5.5796">
        <ele>200.1</ele>
        <time>2022-10-19T10:32:08Z</time>
      </trkpt>
      <trkpt lat="43.17521" lon="5.57953">
        <ele>200.9</ele>
        <time>2022-10-19T10:32:16Z</time>
      </trkpt>
      <trkpt lat="43.17521" lon="5.57946">
        <ele>202</ele>
        <time>2022-10-19T10:32:24Z</time>
      </trkpt>
      <trkpt lat="43.17523" lon="5.57939">
        <ele>203.8</ele>
        <time>2022-10-19T10:32:34Z</time>
      </trkpt>
      <trkpt lat="43.17523" lon="5.57931">
        <ele>204.5</ele>
        <time>2022-10-19T10:32:42Z</time>
      </trkpt>
      <trkpt lat="43.17523" lon="5.57925">
        <ele>205.1</ele>
        <time>2022-10-19T10:32:50Z</time>
      </trkpt>
      <trkpt lat="43.17525" lon="5.57918">
        <ele>207.1</ele>
        <time>2022-10-19T10:33:00Z</time>
      </trkpt>
      <trkpt lat="43.17528" lon="5.57913">
        <ele>208.6</ele>
        <time>2022-10-19T10:33:08Z</time>
      </trkpt>
      <trkpt lat="43.1753" lon="5.57905">
        <ele>209.1</ele>
        <time>2022-10-19T10:33:14Z</time>
      </trkpt>
      <trkpt lat="43.17532" lon="5.57899">
        <ele>209.5</ele>
        <time>2022-10-19T10:33:20Z</time>
      </trkpt>
      <trkpt lat="43.17536" lon="5.57893">
        <ele>210.6</ele>
        <time>2022-10-19T10:33:28Z</time>
      </trkpt>
      <trkpt lat="43.1754" lon="5.5789">
        <ele>212.4</ele>
        <time>2022-10-19T10:33:38Z</time>
      </trkpt>
      <trkpt lat="43.17545" lon="5.57887">
        <ele>214.2</ele>
        <time>2022-10-19T10:33:50Z</time>
      </trkpt>
      <trkpt lat="43.1755" lon="5.57884">
        <ele>216</ele>
        <time>2022-10-19T10:34:04Z</time>
      </trkpt>
      <trkpt lat="43.17554" lon="5.5788">
        <ele>217.4</ele>
        <time>2022-10-19T10:34:14Z</time>
      </trkpt>
      <trkpt lat="43.17557" lon="5.57875">
        <ele>218.3</ele>
        <time>2022-10-19T10:34:22Z</time>
      </trkpt>
      <trkpt lat="43.1756" lon="5.5787">
        <ele>219.1</ele>
        <time>2022-10-19T10:34:30Z</time>
      </trkpt>
      <trkpt lat="43.17563" lon="5.57865">
        <ele>220.3</ele>
        <time>2022-10-19T10:34:36Z</time>
      </trkpt>
      <trkpt lat="43.17566" lon="5.57859">
        <ele>220.6</ele>
        <time>2022-10-19T10:34:42Z</time>
      </trkpt>
      <trkpt lat="43.1757" lon="5.57852">
        <ele>220.5</ele>
        <time>2022-10-19T10:34:50Z</time>
      </trkpt>
      <trkpt lat="43.17574" lon="5.57848">
        <ele>221</ele>
        <time>2022-10-19T10:34:58Z</time>
      </trkpt>
      <trkpt lat="43.17578" lon="5.57843">
        <ele>221.6</ele>
        <time>2022-10-19T10:35:08Z</time>
      </trkpt>
      <trkpt lat="43.17582" lon="5.5784">
        <ele>222.8</ele>
        <time>2022-10-19T10:35:14Z</time>
      </trkpt>
      <trkpt lat="43.17585" lon="5.57835">
        <ele>222.9</ele>
        <time>2022-10-19T10:35:20Z</time>
      </trkpt>
      <trkpt lat="43.17589" lon="5.5783">
        <ele>224.6</ele>
        <time>2022-10-19T10:35:32Z</time>
      </trkpt>
      <trkpt lat="43.17593" lon="5.57823">
        <ele>226.3</ele>
        <time>2022-10-19T10:35:40Z</time>
      </trkpt>
      <trkpt lat="43.17595" lon="5.57817">
        <ele>226.9</ele>
        <time>2022-10-19T10:35:46Z</time>
      </trkpt>
      <trkpt lat="43.17594" lon="5.5781">
        <ele>225.6</ele>
        <time>2022-10-19T10:35:52Z</time>
      </trkpt>
      <trkpt lat="43.17596" lon="5.57803">
        <ele>225.2</ele>
        <time>2022-10-19T10:35:58Z</time>
      </trkpt>
      <trkpt lat="43.17599" lon="5.57798">
        <ele>225.2</ele>
        <time>2022-10-19T10:36:02Z</time>
      </trkpt>
      <trkpt lat="43.17605" lon="5.57794">
        <ele>227.4</ele>
        <time>2022-10-19T10:36:10Z</time>
      </trkpt>
      <trkpt lat="43.17609" lon="5.57789">
        <ele>228</ele>
        <time>2022-10-19T10:36:18Z</time>
      </trkpt>
      <trkpt lat="43.17612" lon="5.57782">
        <ele>226.1</ele>
        <time>2022-10-19T10:36:26Z</time>
      </trkpt>
      <trkpt lat="43.17615" lon="5.57777">
        <ele>225.8</ele>
        <time>2022-10-19T10:36:32Z</time>
      </trkpt>
      <trkpt lat="43.17617" lon="5.5777">
        <ele>224.9</ele>
        <time>2022-10-19T10:36:42Z</time>
      </trkpt>
      <trkpt lat="43.17622" lon="5.57766">
        <ele>225.8</ele>
        <time>2022-10-19T10:36:50Z</time>
      </trkpt>
      <trkpt lat="43.17627" lon="5.57762">
        <ele>226.7</ele>
        <time>2022-10-19T10:37:00Z</time>
      </trkpt>
      <trkpt lat="43.17631" lon="5.57758">
        <ele>227.2</ele>
        <time>2022-10-19T10:37:12Z</time>
      </trkpt>
      <trkpt lat="43.17636" lon="5.57757">
        <ele>229.4</ele>
        <time>2022-10-19T10:37:20Z</time>
      </trkpt>
      <trkpt lat="43.17641" lon="5.57754">
        <ele>229.8</ele>
        <time>2022-10-19T10:37:28Z</time>
      </trkpt>
      <trkpt lat="43.17645" lon="5.57752">
        <ele>231.1</ele>
        <time>2022-10-19T10:37:52Z</time>
      </trkpt>
      <trkpt lat="43.17642" lon="5.57746">
        <ele>227.2</ele>
        <time>2022-10-19T10:38:02Z</time>
      </trkpt>
      <trkpt lat="43.17642" lon="5.57754">
        <ele>230.4</ele>
        <time>2022-10-19T10:38:12Z</time>
      </trkpt>
      <trkpt lat="43.17644" lon="5.57747">
        <ele>228.1</ele>
        <time>2022-10-19T10:38:54Z</time>
      </trkpt>
      <trkpt lat="43.17644" lon="5.5774">
        <ele>224.9</ele>
        <time>2022-10-19T10:39:28Z</time>
      </trkpt>
      <trkpt lat="43.17647" lon="5.57733">
        <ele>223.4</ele>
        <time>2022-10-19T10:39:58Z</time>
      </trkpt>
      <trkpt lat="43.17646" lon="5.57726">
        <ele>220.1</ele>
        <time>2022-10-19T10:40:12Z</time>
      </trkpt>
      <trkpt lat="43.17645" lon="5.5772">
        <ele>218</ele>
        <time>2022-10-19T10:40:30Z</time>
      </trkpt>
      <trkpt lat="43.17644" lon="5.57714">
        <ele>219.3</ele>
        <time>2022-10-19T10:41:40Z</time>
      </trkpt>
      <trkpt lat="43.17642" lon="5.57709">
        <ele>219.6</ele>
        <time>2022-10-19T10:41:58Z</time>
      </trkpt>
      <trkpt lat="43.17637" lon="5.57706">
        <ele>219.4</ele>
        <time>2022-10-19T10:42:46Z</time>
      </trkpt>
      <trkpt lat="43.17636" lon="5.577">
        <ele>220.9</ele>
        <time>2022-10-19T10:43:44Z</time>
      </trkpt>
      <trkpt lat="43.17633" lon="5.57695">
        <ele>221.9</ele>
        <time>2022-10-19T10:44:12Z</time>
      </trkpt>
      <trkpt lat="43.17629" lon="5.57692">
        <ele>222.1</ele>
        <time>2022-10-19T10:44:40Z</time>
      </trkpt>
      <trkpt lat="43.17625" lon="5.57689">
        <ele>222.7</ele>
        <time>2022-10-19T10:44:58Z</time>
      </trkpt>
      <trkpt lat="43.1762" lon="5.57686">
        <ele>222.9</ele>
        <time>2022-10-19T10:45:10Z</time>
      </trkpt>
      <trkpt lat="43.17624" lon="5.57689">
        <ele>222.2</ele>
        <time>2022-10-19T10:45:36Z</time>
      </trkpt>
      <trkpt lat="43.17628" lon="5.57694">
        <ele>221.3</ele>
        <time>2022-10-19T10:46:42Z</time>
      </trkpt>
      <trkpt lat="43.17627" lon="5.577">
        <ele>219</ele>
        <time>2022-10-19T10:46:56Z</time>
      </trkpt>
      <trkpt lat="43.17629" lon="5.57707">
        <ele>217.4</ele>
        <time>2022-10-19T10:47:18Z</time>
      </trkpt>
      <trkpt lat="43.17634" lon="5.57708">
        <ele>217.9</ele>
        <time>2022-10-19T10:47:30Z</time>
      </trkpt>
      <trkpt lat="43.17637" lon="5.57712">
        <ele>217.4</ele>
        <time>2022-10-19T10:47:38Z</time>
      </trkpt>
      <trkpt lat="43.17642" lon="5.57712">
        <ele>218.9</ele>
        <time>2022-10-19T10:47:54Z</time>
      </trkpt>
      <trkpt lat="43.17644" lon="5.57717">
        <ele>218.6</ele>
        <time>2022-10-19T10:48:36Z</time>
      </trkpt>
      <trkpt lat="43.17643" lon="5.57723">
        <ele>217.4</ele>
        <time>2022-10-19T10:49:08Z</time>
      </trkpt>
      <trkpt lat="43.17642" lon="5.5773">
        <ele>219.9</ele>
        <time>2022-10-19T10:49:22Z</time>
      </trkpt>
      <trkpt lat="43.17643" lon="5.57736">
        <ele>223.2</ele>
        <time>2022-10-19T10:49:30Z</time>
      </trkpt>
      <trkpt lat="43.17641" lon="5.57742">
        <ele>224.2</ele>
        <time>2022-10-19T10:49:46Z</time>
      </trkpt>
      <trkpt lat="43.17643" lon="5.57747">
        <ele>227.7</ele>
        <time>2022-10-19T10:50:06Z</time>
      </trkpt>
      <trkpt lat="43.17645" lon="5.57753">
        <ele>231.3</ele>
        <time>2022-10-19T10:50:18Z</time>
      </trkpt>
      <trkpt lat="43.17649" lon="5.57756">
        <ele>234.7</ele>
        <time>2022-10-19T10:51:02Z</time>
      </trkpt>
      <trkpt lat="43.17646" lon="5.5775">
        <ele>230.6</ele>
        <time>2022-10-19T10:52:42Z</time>
      </trkpt>
      <trkpt lat="43.17652" lon="5.57752">
        <ele>234.2</ele>
        <time>2022-10-19T10:56:54Z</time>
      </trkpt>
      <trkpt lat="43.17657" lon="5.57749">
        <ele>235.7</ele>
        <time>2022-10-19T10:57:02Z</time>
      </trkpt>
      <trkpt lat="43.17661" lon="5.57747">
        <ele>237</ele>
        <time>2022-10-19T10:57:10Z</time>
      </trkpt>
      <trkpt lat="43.17664" lon="5.57742">
        <ele>235.7</ele>
        <time>2022-10-19T10:57:16Z</time>
      </trkpt>
      <trkpt lat="43.17668" lon="5.57737">
        <ele>235.2</ele>
        <time>2022-10-19T10:57:22Z</time>
      </trkpt>
      <trkpt lat="43.1767" lon="5.57732">
        <ele>234.3</ele>
        <time>2022-10-19T10:57:26Z</time>
      </trkpt>
      <trkpt lat="43.17675" lon="5.57727">
        <ele>234.3</ele>
        <time>2022-10-19T10:57:32Z</time>
      </trkpt>
      <trkpt lat="43.17678" lon="5.57722">
        <ele>234.4</ele>
        <time>2022-10-19T10:57:38Z</time>
      </trkpt>
      <trkpt lat="43.17681" lon="5.57717">
        <ele>235</ele>
        <time>2022-10-19T10:57:44Z</time>
      </trkpt>
      <trkpt lat="43.17685" lon="5.57713">
        <ele>235.5</ele>
        <time>2022-10-19T10:57:50Z</time>
      </trkpt>
      <trkpt lat="43.17687" lon="5.57707">
        <ele>234.9</ele>
        <time>2022-10-19T10:57:58Z</time>
      </trkpt>
      <trkpt lat="43.17692" lon="5.57702">
        <ele>235.3</ele>
        <time>2022-10-19T10:58:06Z</time>
      </trkpt>
      <trkpt lat="43.17697" lon="5.57699">
        <ele>235.3</ele>
        <time>2022-10-19T10:58:14Z</time>
      </trkpt>
      <trkpt lat="43.17701" lon="5.57695">
        <ele>234.9</ele>
        <time>2022-10-19T10:58:20Z</time>
      </trkpt>
      <trkpt lat="43.17704" lon="5.5769">
        <ele>235.8</ele>
        <time>2022-10-19T10:58:26Z</time>
      </trkpt>
      <trkpt lat="43.17707" lon="5.57685">
        <ele>237.1</ele>
        <time>2022-10-19T10:58:32Z</time>
      </trkpt>
      <trkpt lat="43.17708" lon="5.57677">
        <ele>237.9</ele>
        <time>2022-10-19T10:58:40Z</time>
      </trkpt>
      <trkpt lat="43.17709" lon="5.57669">
        <ele>238.6</ele>
        <time>2022-10-19T10:58:46Z</time>
      </trkpt>
      <trkpt lat="43.17711" lon="5.57662">
        <ele>240.1</ele>
        <time>2022-10-19T10:58:54Z</time>
      </trkpt>
      <trkpt lat="43.17715" lon="5.57656">
        <ele>241.6</ele>
        <time>2022-10-19T10:59:02Z</time>
      </trkpt>
      <trkpt lat="43.17718" lon="5.5765">
        <ele>242.5</ele>
        <time>2022-10-19T10:59:10Z</time>
      </trkpt>
      <trkpt lat="43.1772" lon="5.57644">
        <ele>242.9</ele>
        <time>2022-10-19T10:59:18Z</time>
      </trkpt>
      <trkpt lat="43.17723" lon="5.57638">
        <ele>243.5</ele>
        <time>2022-10-19T10:59:26Z</time>
      </trkpt>
      <trkpt lat="43.17728" lon="5.57636">
        <ele>245.7</ele>
        <time>2022-10-19T10:59:32Z</time>
      </trkpt>
      <trkpt lat="43.17731" lon="5.57632">
        <ele>247</ele>
        <time>2022-10-19T10:59:44Z</time>
      </trkpt>
      <trkpt lat="43.17734" lon="5.57626">
        <ele>247.8</ele>
        <time>2022-10-19T10:59:56Z</time>
      </trkpt>
      <trkpt lat="43.17739" lon="5.57622">
        <ele>249.1</ele>
        <time>2022-10-19T11:00:04Z</time>
      </trkpt>
      <trkpt lat="43.17742" lon="5.57617">
        <ele>249.4</ele>
        <time>2022-10-19T11:00:14Z</time>
      </trkpt>
      <trkpt lat="43.17746" lon="5.57611">
        <ele>249.1</ele>
        <time>2022-10-19T11:00:22Z</time>
      </trkpt>
      <trkpt lat="43.17748" lon="5.57605">
        <ele>250.3</ele>
        <time>2022-10-19T11:00:32Z</time>
      </trkpt>
      <trkpt lat="43.17753" lon="5.57601">
        <ele>252.2</ele>
        <time>2022-10-19T11:00:46Z</time>
      </trkpt>
      <trkpt lat="43.17756" lon="5.57596">
        <ele>254.1</ele>
        <time>2022-10-19T11:01:00Z</time>
      </trkpt>
      <trkpt lat="43.17758" lon="5.5759">
        <ele>255.7</ele>
        <time>2022-10-19T11:01:08Z</time>
      </trkpt>
      <trkpt lat="43.17757" lon="5.57583">
        <ele>256.1</ele>
        <time>2022-10-19T11:01:16Z</time>
      </trkpt>
      <trkpt lat="43.17754" lon="5.57577">
        <ele>255.5</ele>
        <time>2022-10-19T11:01:26Z</time>
      </trkpt>
      <trkpt lat="43.17749" lon="5.57572">
        <ele>254.6</ele>
        <time>2022-10-19T11:01:32Z</time>
      </trkpt>
      <trkpt lat="43.17745" lon="5.5757">
        <ele>254.9</ele>
        <time>2022-10-19T11:01:38Z</time>
      </trkpt>
      <trkpt lat="43.17739" lon="5.57569">
        <ele>254.9</ele>
        <time>2022-10-19T11:01:44Z</time>
      </trkpt>
      <trkpt lat="43.17734" lon="5.57567">
        <ele>255.2</ele>
        <time>2022-10-19T11:01:50Z</time>
      </trkpt>
      <trkpt lat="43.17729" lon="5.57569">
        <ele>254.9</ele>
        <time>2022-10-19T11:01:56Z</time>
      </trkpt>
      <trkpt lat="43.17724" lon="5.57568">
        <ele>254.9</ele>
        <time>2022-10-19T11:02:04Z</time>
      </trkpt>
      <trkpt lat="43.17719" lon="5.57567">
        <ele>255.8</ele>
        <time>2022-10-19T11:02:12Z</time>
      </trkpt>
      <trkpt lat="43.17714" lon="5.57568">
        <ele>256.2</ele>
        <time>2022-10-19T11:02:20Z</time>
      </trkpt>
      <trkpt lat="43.17709" lon="5.57571">
        <ele>256</ele>
        <time>2022-10-19T11:02:26Z</time>
      </trkpt>
      <trkpt lat="43.17705" lon="5.5757">
        <ele>256.8</ele>
        <time>2022-10-19T11:02:32Z</time>
      </trkpt>
      <trkpt lat="43.17699" lon="5.5757">
        <ele>257.7</ele>
        <time>2022-10-19T11:02:40Z</time>
      </trkpt>
      <trkpt lat="43.17692" lon="5.57571">
        <ele>258.5</ele>
        <time>2022-10-19T11:02:48Z</time>
      </trkpt>
      <trkpt lat="43.17687" lon="5.57572">
        <ele>258.8</ele>
        <time>2022-10-19T11:02:54Z</time>
      </trkpt>
      <trkpt lat="43.17683" lon="5.57572">
        <ele>259.2</ele>
        <time>2022-10-19T11:03:00Z</time>
      </trkpt>
      <trkpt lat="43.17677" lon="5.57573">
        <ele>259.7</ele>
        <time>2022-10-19T11:03:08Z</time>
      </trkpt>
      <trkpt lat="43.17672" lon="5.57575">
        <ele>259.8</ele>
        <time>2022-10-19T11:03:14Z</time>
      </trkpt>
      <trkpt lat="43.17668" lon="5.57576">
        <ele>260.1</ele>
        <time>2022-10-19T11:03:20Z</time>
      </trkpt>
      <trkpt lat="43.17662" lon="5.57576">
        <ele>260.3</ele>
        <time>2022-10-19T11:03:26Z</time>
      </trkpt>
      <trkpt lat="43.17657" lon="5.57576">
        <ele>260.7</ele>
        <time>2022-10-19T11:03:32Z</time>
      </trkpt>
      <trkpt lat="43.17652" lon="5.57577">
        <ele>260.9</ele>
        <time>2022-10-19T11:03:38Z</time>
      </trkpt>
      <trkpt lat="43.17646" lon="5.57577">
        <ele>261.4</ele>
        <time>2022-10-19T11:03:44Z</time>
      </trkpt>
      <trkpt lat="43.17642" lon="5.57578">
        <ele>261.3</ele>
        <time>2022-10-19T11:03:50Z</time>
      </trkpt>
      <trkpt lat="43.17636" lon="5.57579">
        <ele>261.2</ele>
        <time>2022-10-19T11:03:56Z</time>
      </trkpt>
      <trkpt lat="43.17632" lon="5.57578">
        <ele>261.3</ele>
        <time>2022-10-19T11:04:02Z</time>
      </trkpt>
      <trkpt lat="43.17627" lon="5.57576">
        <ele>261.9</ele>
        <time>2022-10-19T11:04:08Z</time>
      </trkpt>
      <trkpt lat="43.17622" lon="5.57577">
        <ele>261.6</ele>
        <time>2022-10-19T11:04:14Z</time>
      </trkpt>
      <trkpt lat="43.17616" lon="5.57574">
        <ele>262.3</ele>
        <time>2022-10-19T11:04:22Z</time>
      </trkpt>
      <trkpt lat="43.17613" lon="5.57569">
        <ele>264</ele>
        <time>2022-10-19T11:04:30Z</time>
      </trkpt>
      <trkpt lat="43.17608" lon="5.57565">
        <ele>265.3</ele>
        <time>2022-10-19T11:04:48Z</time>
      </trkpt>
      <trkpt lat="43.17604" lon="5.57564">
        <ele>265.5</ele>
        <time>2022-10-19T11:05:32Z</time>
      </trkpt>
      <trkpt lat="43.176" lon="5.57559">
        <ele>266.7</ele>
        <time>2022-10-19T11:05:38Z</time>
      </trkpt>
      <trkpt lat="43.17595" lon="5.57555">
        <ele>268</ele>
        <time>2022-10-19T11:05:46Z</time>
      </trkpt>
      <trkpt lat="43.17589" lon="5.57554">
        <ele>267.8</ele>
        <time>2022-10-19T11:05:52Z</time>
      </trkpt>
      <trkpt lat="43.17584" lon="5.57554">
        <ele>267.7</ele>
        <time>2022-10-19T11:05:58Z</time>
      </trkpt>
      <trkpt lat="43.1758" lon="5.57549">
        <ele>269.8</ele>
        <time>2022-10-19T11:06:06Z</time>
      </trkpt>
      <trkpt lat="43.17574" lon="5.57548">
        <ele>270.7</ele>
        <time>2022-10-19T11:06:14Z</time>
      </trkpt>
      <trkpt lat="43.17569" lon="5.57547">
        <ele>271.5</ele>
        <time>2022-10-19T11:06:22Z</time>
      </trkpt>
      <trkpt lat="43.17564" lon="5.57548">
        <ele>272</ele>
        <time>2022-10-19T11:06:28Z</time>
      </trkpt>
      <trkpt lat="43.17559" lon="5.57547">
        <ele>272.9</ele>
        <time>2022-10-19T11:06:36Z</time>
      </trkpt>
      <trkpt lat="43.17553" lon="5.57548">
        <ele>273.3</ele>
        <time>2022-10-19T11:06:44Z</time>
      </trkpt>
      <trkpt lat="43.17549" lon="5.57549">
        <ele>273.5</ele>
        <time>2022-10-19T11:06:50Z</time>
      </trkpt>
      <trkpt lat="43.17545" lon="5.57554">
        <ele>272.5</ele>
        <time>2022-10-19T11:06:56Z</time>
      </trkpt>
      <trkpt lat="43.1754" lon="5.57555">
        <ele>273.2</ele>
        <time>2022-10-19T11:07:04Z</time>
      </trkpt>
      <trkpt lat="43.17535" lon="5.57553">
        <ele>274.9</ele>
        <time>2022-10-19T11:07:12Z</time>
      </trkpt>
      <trkpt lat="43.1753" lon="5.57553">
        <ele>275.5</ele>
        <time>2022-10-19T11:07:20Z</time>
      </trkpt>
      <trkpt lat="43.17525" lon="5.57553">
        <ele>276.3</ele>
        <time>2022-10-19T11:07:28Z</time>
      </trkpt>
      <trkpt lat="43.1752" lon="5.57552">
        <ele>277.7</ele>
        <time>2022-10-19T11:07:36Z</time>
      </trkpt>
      <trkpt lat="43.17514" lon="5.5755">
        <ele>279.2</ele>
        <time>2022-10-19T11:07:46Z</time>
      </trkpt>
      <trkpt lat="43.17509" lon="5.5755">
        <ele>279.9</ele>
        <time>2022-10-19T11:07:54Z</time>
      </trkpt>
      <trkpt lat="43.17504" lon="5.57553">
        <ele>279.6</ele>
        <time>2022-10-19T11:08:02Z</time>
      </trkpt>
      <trkpt lat="43.17499" lon="5.57554">
        <ele>279.9</ele>
        <time>2022-10-19T11:08:10Z</time>
      </trkpt>
      <trkpt lat="43.17494" lon="5.57555">
        <ele>280.6</ele>
        <time>2022-10-19T11:08:16Z</time>
      </trkpt>
      <trkpt lat="43.17489" lon="5.57555">
        <ele>281.5</ele>
        <time>2022-10-19T11:08:22Z</time>
      </trkpt>
      <trkpt lat="43.17484" lon="5.57555">
        <ele>282.5</ele>
        <time>2022-10-19T11:08:30Z</time>
      </trkpt>
      <trkpt lat="43.17479" lon="5.57557">
        <ele>282.7</ele>
        <time>2022-10-19T11:08:38Z</time>
      </trkpt>
      <trkpt lat="43.17474" lon="5.57558">
        <ele>283.8</ele>
        <time>2022-10-19T11:08:46Z</time>
      </trkpt>
      <trkpt lat="43.17469" lon="5.57558">
        <ele>284.5</ele>
        <time>2022-10-19T11:08:52Z</time>
      </trkpt>
      <trkpt lat="43.17464" lon="5.57563">
        <ele>283.8</ele>
        <time>2022-10-19T11:09:00Z</time>
      </trkpt>
      <trkpt lat="43.17458" lon="5.57565">
        <ele>284.1</ele>
        <time>2022-10-19T11:09:08Z</time>
      </trkpt>
      <trkpt lat="43.17452" lon="5.57564">
        <ele>285.6</ele>
        <time>2022-10-19T11:09:16Z</time>
      </trkpt>
      <trkpt lat="43.17447" lon="5.57565">
        <ele>286.1</ele>
        <time>2022-10-19T11:09:22Z</time>
      </trkpt>
      <trkpt lat="43.17442" lon="5.57564">
        <ele>286.8</ele>
        <time>2022-10-19T11:09:30Z</time>
      </trkpt>
      <trkpt lat="43.17438" lon="5.57562">
        <ele>287.7</ele>
        <time>2022-10-19T11:09:40Z</time>
      </trkpt>
      <trkpt lat="43.17435" lon="5.57556">
        <ele>289.3</ele>
        <time>2022-10-19T11:09:50Z</time>
      </trkpt>
      <trkpt lat="43.17431" lon="5.57553">
        <ele>290</ele>
        <time>2022-10-19T11:09:58Z</time>
      </trkpt>
      <trkpt lat="43.17428" lon="5.57547">
        <ele>290.9</ele>
        <time>2022-10-19T11:10:08Z</time>
      </trkpt>
      <trkpt lat="43.17427" lon="5.5754">
        <ele>292</ele>
        <time>2022-10-19T11:10:18Z</time>
      </trkpt>
      <trkpt lat="43.17423" lon="5.57534">
        <ele>292.2</ele>
        <time>2022-10-19T11:10:26Z</time>
      </trkpt>
      <trkpt lat="43.17428" lon="5.57531">
        <ele>293.5</ele>
        <time>2022-10-19T11:13:32Z</time>
      </trkpt>
      <trkpt lat="43.17429" lon="5.57524">
        <ele>294.5</ele>
        <time>2022-10-19T11:13:40Z</time>
      </trkpt>
      <trkpt lat="43.1743" lon="5.57518">
        <ele>295.4</ele>
        <time>2022-10-19T11:13:48Z</time>
      </trkpt>
      <trkpt lat="43.17432" lon="5.57511">
        <ele>296.4</ele>
        <time>2022-10-19T11:13:56Z</time>
      </trkpt>
      <trkpt lat="43.17436" lon="5.57506">
        <ele>298.7</ele>
        <time>2022-10-19T11:14:14Z</time>
      </trkpt>
      <trkpt lat="43.1744" lon="5.57501">
        <ele>300.7</ele>
        <time>2022-10-19T11:14:20Z</time>
      </trkpt>
      <trkpt lat="43.17444" lon="5.57497">
        <ele>302.8</ele>
        <time>2022-10-19T11:14:28Z</time>
      </trkpt>
      <trkpt lat="43.17445" lon="5.57489">
        <ele>303.7</ele>
        <time>2022-10-19T11:14:36Z</time>
      </trkpt>
      <trkpt lat="43.17447" lon="5.57483">
        <ele>304.2</ele>
        <time>2022-10-19T11:14:44Z</time>
      </trkpt>
      <trkpt lat="43.1745" lon="5.57476">
        <ele>304.8</ele>
        <time>2022-10-19T11:14:58Z</time>
      </trkpt>
      <trkpt lat="43.17453" lon="5.5747">
        <ele>305.3</ele>
        <time>2022-10-19T11:15:06Z</time>
      </trkpt>
      <trkpt lat="43.17456" lon="5.57464">
        <ele>305.7</ele>
        <time>2022-10-19T11:15:18Z</time>
      </trkpt>
      <trkpt lat="43.1746" lon="5.57461">
        <ele>306.3</ele>
        <time>2022-10-19T11:15:28Z</time>
      </trkpt>
      <trkpt lat="43.17464" lon="5.57459">
        <ele>307.2</ele>
        <time>2022-10-19T11:15:38Z</time>
      </trkpt>
      <trkpt lat="43.17469" lon="5.57459">
        <ele>307.8</ele>
        <time>2022-10-19T11:15:50Z</time>
      </trkpt>
      <trkpt lat="43.17474" lon="5.57462">
        <ele>307.8</ele>
        <time>2022-10-19T11:16:00Z</time>
      </trkpt>
      <trkpt lat="43.17479" lon="5.57464">
        <ele>307</ele>
        <time>2022-10-19T11:16:06Z</time>
      </trkpt>
      <trkpt lat="43.17484" lon="5.57462">
        <ele>307.2</ele>
        <time>2022-10-19T11:16:12Z</time>
      </trkpt>
      <trkpt lat="43.17488" lon="5.57457">
        <ele>307.9</ele>
        <time>2022-10-19T11:16:16Z</time>
      </trkpt>
      <trkpt lat="43.17492" lon="5.57455">
        <ele>308.1</ele>
        <time>2022-10-19T11:16:22Z</time>
      </trkpt>
      <trkpt lat="43.17497" lon="5.57455">
        <ele>307.8</ele>
        <time>2022-10-19T11:16:28Z</time>
      </trkpt>
      <trkpt lat="43.17503" lon="5.57453">
        <ele>307.8</ele>
        <time>2022-10-19T11:16:34Z</time>
      </trkpt>
      <trkpt lat="43.17508" lon="5.57452">
        <ele>307.5</ele>
        <time>2022-10-19T11:16:46Z</time>
      </trkpt>
      <trkpt lat="43.17513" lon="5.57451">
        <ele>307.2</ele>
        <time>2022-10-19T11:16:52Z</time>
      </trkpt>
      <trkpt lat="43.17517" lon="5.57445">
        <ele>308.1</ele>
        <time>2022-10-19T11:16:58Z</time>
      </trkpt>
      <trkpt lat="43.17523" lon="5.57443">
        <ele>308</ele>
        <time>2022-10-19T11:17:16Z</time>
      </trkpt>
      <trkpt lat="43.17527" lon="5.5744">
        <ele>308.1</ele>
        <time>2022-10-19T11:17:22Z</time>
      </trkpt>
      <trkpt lat="43.17531" lon="5.57435">
        <ele>309.1</ele>
        <time>2022-10-19T11:17:28Z</time>
      </trkpt>
      <trkpt lat="43.17533" lon="5.57427">
        <ele>310.9</ele>
        <time>2022-10-19T11:17:34Z</time>
      </trkpt>
      <trkpt lat="43.1753" lon="5.5742">
        <ele>312.8</ele>
        <time>2022-10-19T11:17:42Z</time>
      </trkpt>
      <trkpt lat="43.17528" lon="5.57414">
        <ele>314.3</ele>
        <time>2022-10-19T11:17:52Z</time>
      </trkpt>
      <trkpt lat="43.17527" lon="5.57408">
        <ele>314.9</ele>
        <time>2022-10-19T11:18:00Z</time>
      </trkpt>
      <trkpt lat="43.1753" lon="5.57403">
        <ele>315.4</ele>
        <time>2022-10-19T11:18:10Z</time>
      </trkpt>
      <trkpt lat="43.17535" lon="5.57402">
        <ele>315.3</ele>
        <time>2022-10-19T11:18:20Z</time>
      </trkpt>
      <trkpt lat="43.17539" lon="5.57399">
        <ele>315.8</ele>
        <time>2022-10-19T11:18:28Z</time>
      </trkpt>
      <trkpt lat="43.17544" lon="5.57396">
        <ele>316.2</ele>
        <time>2022-10-19T11:18:36Z</time>
      </trkpt>
      <trkpt lat="43.17547" lon="5.57391">
        <ele>317.3</ele>
        <time>2022-10-19T11:18:44Z</time>
      </trkpt>
      <trkpt lat="43.17547" lon="5.57384">
        <ele>317.7</ele>
        <time>2022-10-19T11:18:52Z</time>
      </trkpt>
      <trkpt lat="43.1755" lon="5.57377">
        <ele>317.9</ele>
        <time>2022-10-19T11:19:00Z</time>
      </trkpt>
      <trkpt lat="43.17555" lon="5.57375">
        <ele>318.4</ele>
        <time>2022-10-19T11:19:08Z</time>
      </trkpt>
      <trkpt lat="43.17559" lon="5.57372">
        <ele>318.6</ele>
        <time>2022-10-19T11:19:14Z</time>
      </trkpt>
      <trkpt lat="43.17564" lon="5.5737">
        <ele>318.8</ele>
        <time>2022-10-19T11:19:22Z</time>
      </trkpt>
      <trkpt lat="43.17568" lon="5.57366">
        <ele>319.1</ele>
        <time>2022-10-19T11:19:38Z</time>
      </trkpt>
      <trkpt lat="43.17573" lon="5.57366">
        <ele>319.2</ele>
        <time>2022-10-19T11:25:58Z</time>
      </trkpt>
      <trkpt lat="43.17577" lon="5.57366">
        <ele>319.3</ele>
        <time>2022-10-19T11:26:32Z</time>
      </trkpt>
      <trkpt lat="43.17582" lon="5.57363">
        <ele>319.7</ele>
        <time>2022-10-19T11:26:40Z</time>
      </trkpt>
      <trkpt lat="43.17586" lon="5.57361">
        <ele>319.9</ele>
        <time>2022-10-19T11:26:46Z</time>
      </trkpt>
      <trkpt lat="43.17591" lon="5.5736">
        <ele>319.5</ele>
        <time>2022-10-19T11:26:52Z</time>
      </trkpt>
      <trkpt lat="43.17596" lon="5.57359">
        <ele>319.2</ele>
        <time>2022-10-19T11:26:58Z</time>
      </trkpt>
      <trkpt lat="43.17601" lon="5.57357">
        <ele>318.9</ele>
        <time>2022-10-19T11:27:04Z</time>
      </trkpt>
      <trkpt lat="43.17606" lon="5.57356">
        <ele>318.6</ele>
        <time>2022-10-19T11:27:10Z</time>
      </trkpt>
      <trkpt lat="43.17611" lon="5.57355">
        <ele>318.3</ele>
        <time>2022-10-19T11:27:18Z</time>
      </trkpt>
      <trkpt lat="43.17616" lon="5.57353">
        <ele>317.9</ele>
        <time>2022-10-19T11:27:32Z</time>
      </trkpt>
      <trkpt lat="43.17622" lon="5.5735">
        <ele>317.5</ele>
        <time>2022-10-19T11:27:38Z</time>
      </trkpt>
      <trkpt lat="43.17627" lon="5.57347">
        <ele>317.2</ele>
        <time>2022-10-19T11:27:46Z</time>
      </trkpt>
      <trkpt lat="43.17632" lon="5.57343">
        <ele>317</ele>
        <time>2022-10-19T11:27:54Z</time>
      </trkpt>
      <trkpt lat="43.17636" lon="5.57341">
        <ele>317</ele>
        <time>2022-10-19T11:28:10Z</time>
      </trkpt>
      <trkpt lat="43.17641" lon="5.57343">
        <ele>317</ele>
        <time>2022-10-19T11:28:30Z</time>
      </trkpt>
      <trkpt lat="43.17646" lon="5.57342">
        <ele>317.1</ele>
        <time>2022-10-19T11:28:38Z</time>
      </trkpt>
      <trkpt lat="43.17652" lon="5.57342">
        <ele>317.2</ele>
        <time>2022-10-19T11:28:46Z</time>
      </trkpt>
      <trkpt lat="43.17657" lon="5.57342">
        <ele>317.2</ele>
        <time>2022-10-19T11:28:52Z</time>
      </trkpt>
      <trkpt lat="43.17661" lon="5.57341">
        <ele>317.4</ele>
        <time>2022-10-19T11:28:58Z</time>
      </trkpt>
      <trkpt lat="43.17666" lon="5.57338">
        <ele>317.6</ele>
        <time>2022-10-19T11:29:04Z</time>
      </trkpt>
      <trkpt lat="43.1767" lon="5.57332">
        <ele>318.1</ele>
        <time>2022-10-19T11:29:10Z</time>
      </trkpt>
      <trkpt lat="43.17674" lon="5.57329">
        <ele>318</ele>
        <time>2022-10-19T11:29:16Z</time>
      </trkpt>
      <trkpt lat="43.17678" lon="5.57326">
        <ele>318.3</ele>
        <time>2022-10-19T11:29:22Z</time>
      </trkpt>
      <trkpt lat="43.17683" lon="5.57323">
        <ele>318.6</ele>
        <time>2022-10-19T11:29:28Z</time>
      </trkpt>
      <trkpt lat="43.17687" lon="5.57322">
        <ele>319.1</ele>
        <time>2022-10-19T11:29:34Z</time>
      </trkpt>
      <trkpt lat="43.17692" lon="5.57318">
        <ele>319.6</ele>
        <time>2022-10-19T11:29:40Z</time>
      </trkpt>
      <trkpt lat="43.17697" lon="5.57315">
        <ele>320.2</ele>
        <time>2022-10-19T11:29:46Z</time>
      </trkpt>
      <trkpt lat="43.177" lon="5.57311">
        <ele>320.5</ele>
        <time>2022-10-19T11:29:52Z</time>
      </trkpt>
      <trkpt lat="43.17703" lon="5.57305">
        <ele>320.8</ele>
        <time>2022-10-19T11:29:58Z</time>
      </trkpt>
      <trkpt lat="43.17705" lon="5.57299">
        <ele>320.4</ele>
        <time>2022-10-19T11:30:04Z</time>
      </trkpt>
      <trkpt lat="43.17708" lon="5.57292">
        <ele>320</ele>
        <time>2022-10-19T11:30:10Z</time>
      </trkpt>
      <trkpt lat="43.1771" lon="5.57285">
        <ele>319.6</ele>
        <time>2022-10-19T11:30:16Z</time>
      </trkpt>
      <trkpt lat="43.17712" lon="5.57279">
        <ele>319.6</ele>
        <time>2022-10-19T11:30:22Z</time>
      </trkpt>
      <trkpt lat="43.17714" lon="5.57272">
        <ele>319.2</ele>
        <time>2022-10-19T11:30:28Z</time>
      </trkpt>
      <trkpt lat="43.17715" lon="5.57266">
        <ele>318.6</ele>
        <time>2022-10-19T11:30:34Z</time>
      </trkpt>
      <trkpt lat="43.17717" lon="5.57259">
        <ele>318.3</ele>
        <time>2022-10-19T11:30:42Z</time>
      </trkpt>
      <trkpt lat="43.17718" lon="5.57252">
        <ele>317.9</ele>
        <time>2022-10-19T11:30:48Z</time>
      </trkpt>
      <trkpt lat="43.1772" lon="5.57246">
        <ele>317.6</ele>
        <time>2022-10-19T11:30:54Z</time>
      </trkpt>
      <trkpt lat="43.17721" lon="5.57239">
        <ele>317.1</ele>
        <time>2022-10-19T11:31:06Z</time>
      </trkpt>
      <trkpt lat="43.17721" lon="5.57231">
        <ele>315.9</ele>
        <time>2022-10-19T11:31:14Z</time>
      </trkpt>
      <trkpt lat="43.17722" lon="5.57224">
        <ele>315</ele>
        <time>2022-10-19T11:31:20Z</time>
      </trkpt>
      <trkpt lat="43.17723" lon="5.57216">
        <ele>314.4</ele>
        <time>2022-10-19T11:31:28Z</time>
      </trkpt>
      <trkpt lat="43.17725" lon="5.57209">
        <ele>314</ele>
        <time>2022-10-19T11:31:34Z</time>
      </trkpt>
      <trkpt lat="43.17726" lon="5.57202">
        <ele>313.5</ele>
        <time>2022-10-19T11:31:40Z</time>
      </trkpt>
      <trkpt lat="43.17729" lon="5.57195">
        <ele>312.9</ele>
        <time>2022-10-19T11:31:46Z</time>
      </trkpt>
      <trkpt lat="43.17731" lon="5.57189">
        <ele>312.5</ele>
        <time>2022-10-19T11:31:52Z</time>
      </trkpt>
      <trkpt lat="43.17736" lon="5.57185">
        <ele>312.4</ele>
        <time>2022-10-19T11:31:58Z</time>
      </trkpt>
      <trkpt lat="43.1774" lon="5.57181">
        <ele>312.2</ele>
        <time>2022-10-19T11:32:04Z</time>
      </trkpt>
      <trkpt lat="43.17745" lon="5.57178">
        <ele>312</ele>
        <time>2022-10-19T11:32:16Z</time>
      </trkpt>
      <trkpt lat="43.1775" lon="5.57175">
        <ele>311.8</ele>
        <time>2022-10-19T11:32:26Z</time>
      </trkpt>
      <trkpt lat="43.17754" lon="5.57174">
        <ele>311.5</ele>
        <time>2022-10-19T11:32:32Z</time>
      </trkpt>
      <trkpt lat="43.17759" lon="5.57173">
        <ele>311.1</ele>
        <time>2022-10-19T11:32:46Z</time>
      </trkpt>
      <trkpt lat="43.17754" lon="5.57174">
        <ele>311.4</ele>
        <time>2022-10-19T11:33:48Z</time>
      </trkpt>
      <trkpt lat="43.17748" lon="5.57174">
        <ele>311.5</ele>
        <time>2022-10-19T11:33:58Z</time>
      </trkpt>
      <trkpt lat="43.17745" lon="5.57178">
        <ele>312.1</ele>
        <time>2022-10-19T11:34:10Z</time>
      </trkpt>
      <trkpt lat="43.17748" lon="5.57183">
        <ele>313.4</ele>
        <time>2022-10-19T11:35:34Z</time>
      </trkpt>
      <trkpt lat="43.17744" lon="5.57186">
        <ele>313.5</ele>
        <time>2022-10-19T11:56:16Z</time>
      </trkpt>
      <trkpt lat="43.17745" lon="5.5718">
        <ele>312.5</ele>
        <time>2022-10-19T12:08:24Z</time>
      </trkpt>
      <trkpt lat="43.17742" lon="5.57185">
        <ele>313.2</ele>
        <time>2022-10-19T12:19:24Z</time>
      </trkpt>
      <trkpt lat="43.17744" lon="5.57183">
        <ele>312.9</ele>
        <time>2022-10-19T12:24:12Z</time>
      </trkpt>
      <trkpt lat="43.17742" lon="5.57177">
        <ele>311.6</ele>
        <time>2022-10-19T12:56:58Z</time>
      </trkpt>
      <trkpt lat="43.17737" lon="5.57176">
        <ele>311.2</ele>
        <time>2022-10-19T12:57:36Z</time>
      </trkpt>
      <trkpt lat="43.17731" lon="5.57178">
        <ele>311</ele>
        <time>2022-10-19T12:57:44Z</time>
      </trkpt>
      <trkpt lat="43.17726" lon="5.57182">
        <ele>311</ele>
        <time>2022-10-19T12:57:52Z</time>
      </trkpt>
      <trkpt lat="43.17721" lon="5.57186">
        <ele>310.6</ele>
        <time>2022-10-19T12:58:00Z</time>
      </trkpt>
      <trkpt lat="43.17718" lon="5.57192">
        <ele>310.6</ele>
        <time>2022-10-19T12:58:06Z</time>
      </trkpt>
      <trkpt lat="43.17718" lon="5.572">
        <ele>311.2</ele>
        <time>2022-10-19T12:58:14Z</time>
      </trkpt>
      <trkpt lat="43.17718" lon="5.57207">
        <ele>311.9</ele>
        <time>2022-10-19T12:58:22Z</time>
      </trkpt>
      <trkpt lat="43.17718" lon="5.57213">
        <ele>312.7</ele>
        <time>2022-10-19T12:58:28Z</time>
      </trkpt>
      <trkpt lat="43.17717" lon="5.5722">
        <ele>313.1</ele>
        <time>2022-10-19T12:58:36Z</time>
      </trkpt>
      <trkpt lat="43.17717" lon="5.57227">
        <ele>314</ele>
        <time>2022-10-19T12:58:44Z</time>
      </trkpt>
      <trkpt lat="43.17715" lon="5.57234">
        <ele>314.3</ele>
        <time>2022-10-19T12:58:52Z</time>
      </trkpt>
      <trkpt lat="43.17714" lon="5.57242">
        <ele>315.1</ele>
        <time>2022-10-19T12:59:04Z</time>
      </trkpt>
      <trkpt lat="43.17714" lon="5.57249">
        <ele>316</ele>
        <time>2022-10-19T12:59:12Z</time>
      </trkpt>
      <trkpt lat="43.17711" lon="5.57255">
        <ele>315.7</ele>
        <time>2022-10-19T12:59:20Z</time>
      </trkpt>
      <trkpt lat="43.1771" lon="5.57262">
        <ele>316.6</ele>
        <time>2022-10-19T12:59:28Z</time>
      </trkpt>
      <trkpt lat="43.17708" lon="5.57268">
        <ele>316.9</ele>
        <time>2022-10-19T12:59:36Z</time>
      </trkpt>
      <trkpt lat="43.17707" lon="5.57276">
        <ele>317.9</ele>
        <time>2022-10-19T12:59:44Z</time>
      </trkpt>
      <trkpt lat="43.17705" lon="5.57282">
        <ele>318.3</ele>
        <time>2022-10-19T12:59:50Z</time>
      </trkpt>
      <trkpt lat="43.17705" lon="5.5729">
        <ele>319.1</ele>
        <time>2022-10-19T12:59:58Z</time>
      </trkpt>
      <trkpt lat="43.17703" lon="5.57295">
        <ele>319.5</ele>
        <time>2022-10-19T13:00:04Z</time>
      </trkpt>
      <trkpt lat="43.17702" lon="5.57301">
        <ele>320.2</ele>
        <time>2022-10-19T13:00:10Z</time>
      </trkpt>
      <trkpt lat="43.17705" lon="5.57307">
        <ele>321.1</ele>
        <time>2022-10-19T13:00:16Z</time>
      </trkpt>
      <trkpt lat="43.17709" lon="5.57311">
        <ele>321.3</ele>
        <time>2022-10-19T13:00:26Z</time>
      </trkpt>
      <trkpt lat="43.17715" lon="5.57312">
        <ele>321.7</ele>
        <time>2022-10-19T13:00:36Z</time>
      </trkpt>
      <trkpt lat="43.17719" lon="5.57308">
        <ele>322.4</ele>
        <time>2022-10-19T13:00:44Z</time>
      </trkpt>
      <trkpt lat="43.17723" lon="5.57303">
        <ele>323</ele>
        <time>2022-10-19T13:00:52Z</time>
      </trkpt>
      <trkpt lat="43.17727" lon="5.57296">
        <ele>323.5</ele>
        <time>2022-10-19T13:01:00Z</time>
      </trkpt>
      <trkpt lat="43.17731" lon="5.57293">
        <ele>324.1</ele>
        <time>2022-10-19T13:01:06Z</time>
      </trkpt>
      <trkpt lat="43.17735" lon="5.5729">
        <ele>324.7</ele>
        <time>2022-10-19T13:01:12Z</time>
      </trkpt>
      <trkpt lat="43.17739" lon="5.57286">
        <ele>325.3</ele>
        <time>2022-10-19T13:01:18Z</time>
      </trkpt>
      <trkpt lat="43.17743" lon="5.5728">
        <ele>325.8</ele>
        <time>2022-10-19T13:01:26Z</time>
      </trkpt>
      <trkpt lat="43.17747" lon="5.57276">
        <ele>326.4</ele>
        <time>2022-10-19T13:01:34Z</time>
      </trkpt>
      <trkpt lat="43.17752" lon="5.57274">
        <ele>327</ele>
        <time>2022-10-19T13:01:40Z</time>
      </trkpt>
      <trkpt lat="43.17757" lon="5.57272">
        <ele>327.5</ele>
        <time>2022-10-19T13:01:46Z</time>
      </trkpt>
      <trkpt lat="43.17763" lon="5.57269">
        <ele>328</ele>
        <time>2022-10-19T13:01:58Z</time>
      </trkpt>
      <trkpt lat="43.17769" lon="5.57269">
        <ele>328.6</ele>
        <time>2022-10-19T13:02:04Z</time>
      </trkpt>
      <trkpt lat="43.17773" lon="5.57268">
        <ele>329</ele>
        <time>2022-10-19T13:02:10Z</time>
      </trkpt>
      <trkpt lat="43.17779" lon="5.57269">
        <ele>329.7</ele>
        <time>2022-10-19T13:02:18Z</time>
      </trkpt>
      <trkpt lat="43.17784" lon="5.57269">
        <ele>329.6</ele>
        <time>2022-10-19T13:02:24Z</time>
      </trkpt>
      <trkpt lat="43.17789" lon="5.57271">
        <ele>329.9</ele>
        <time>2022-10-19T13:02:30Z</time>
      </trkpt>
      <trkpt lat="43.17795" lon="5.57274">
        <ele>330.3</ele>
        <time>2022-10-19T13:02:36Z</time>
      </trkpt>
      <trkpt lat="43.17799" lon="5.57278">
        <ele>331</ele>
        <time>2022-10-19T13:02:42Z</time>
      </trkpt>
      <trkpt lat="43.17803" lon="5.57282">
        <ele>331.1</ele>
        <time>2022-10-19T13:02:48Z</time>
      </trkpt>
      <trkpt lat="43.17808" lon="5.57285">
        <ele>331.3</ele>
        <time>2022-10-19T13:02:54Z</time>
      </trkpt>
      <trkpt lat="43.17812" lon="5.57289">
        <ele>331.5</ele>
        <time>2022-10-19T13:03:00Z</time>
      </trkpt>
      <trkpt lat="43.17815" lon="5.57296">
        <ele>331.9</ele>
        <time>2022-10-19T13:03:06Z</time>
      </trkpt>
      <trkpt lat="43.17818" lon="5.57302">
        <ele>332.3</ele>
        <time>2022-10-19T13:03:12Z</time>
      </trkpt>
      <trkpt lat="43.17822" lon="5.57309">
        <ele>332.3</ele>
        <time>2022-10-19T13:03:18Z</time>
      </trkpt>
      <trkpt lat="43.17827" lon="5.57313">
        <ele>332.1</ele>
        <time>2022-10-19T13:03:24Z</time>
      </trkpt>
      <trkpt lat="43.17831" lon="5.57319">
        <ele>331.8</ele>
        <time>2022-10-19T13:03:30Z</time>
      </trkpt>
      <trkpt lat="43.17835" lon="5.57324">
        <ele>331.8</ele>
        <time>2022-10-19T13:03:36Z</time>
      </trkpt>
      <trkpt lat="43.17839" lon="5.57331">
        <ele>331.8</ele>
        <time>2022-10-19T13:03:42Z</time>
      </trkpt>
      <trkpt lat="43.17843" lon="5.57335">
        <ele>331.8</ele>
        <time>2022-10-19T13:03:48Z</time>
      </trkpt>
      <trkpt lat="43.17848" lon="5.5734">
        <ele>331.6</ele>
        <time>2022-10-19T13:03:54Z</time>
      </trkpt>
      <trkpt lat="43.17851" lon="5.57346">
        <ele>331.3</ele>
        <time>2022-10-19T13:04:00Z</time>
      </trkpt>
      <trkpt lat="43.17855" lon="5.57351">
        <ele>331.1</ele>
        <time>2022-10-19T13:04:06Z</time>
      </trkpt>
      <trkpt lat="43.17859" lon="5.57355">
        <ele>331.3</ele>
        <time>2022-10-19T13:04:12Z</time>
      </trkpt>
      <trkpt lat="43.17864" lon="5.5736">
        <ele>331.5</ele>
        <time>2022-10-19T13:04:18Z</time>
      </trkpt>
      <trkpt lat="43.17869" lon="5.57366">
        <ele>331.1</ele>
        <time>2022-10-19T13:04:24Z</time>
      </trkpt>
      <trkpt lat="43.17874" lon="5.57371">
        <ele>331</ele>
        <time>2022-10-19T13:04:30Z</time>
      </trkpt>
      <trkpt lat="43.17878" lon="5.57376">
        <ele>330.8</ele>
        <time>2022-10-19T13:04:36Z</time>
      </trkpt>
      <trkpt lat="43.17884" lon="5.57379">
        <ele>331.2</ele>
        <time>2022-10-19T13:04:42Z</time>
      </trkpt>
      <trkpt lat="43.17888" lon="5.57384">
        <ele>331.3</ele>
        <time>2022-10-19T13:04:48Z</time>
      </trkpt>
      <trkpt lat="43.17892" lon="5.5739">
        <ele>331.4</ele>
        <time>2022-10-19T13:04:54Z</time>
      </trkpt>
      <trkpt lat="43.17894" lon="5.57397">
        <ele>331.2</ele>
        <time>2022-10-19T13:05:02Z</time>
      </trkpt>
      <trkpt lat="43.17894" lon="5.57406">
        <ele>330.3</ele>
        <time>2022-10-19T13:05:08Z</time>
      </trkpt>
      <trkpt lat="43.17895" lon="5.57412">
        <ele>329.7</ele>
        <time>2022-10-19T13:05:12Z</time>
      </trkpt>
      <trkpt lat="43.17896" lon="5.57419">
        <ele>329.2</ele>
        <time>2022-10-19T13:05:16Z</time>
      </trkpt>
      <trkpt lat="43.17897" lon="5.57427">
        <ele>328.7</ele>
        <time>2022-10-19T13:05:22Z</time>
      </trkpt>
      <trkpt lat="43.17898" lon="5.57433">
        <ele>328.1</ele>
        <time>2022-10-19T13:05:28Z</time>
      </trkpt>
      <trkpt lat="43.17901" lon="5.57442">
        <ele>327.4</ele>
        <time>2022-10-19T13:05:34Z</time>
      </trkpt>
      <trkpt lat="43.17905" lon="5.57449">
        <ele>327.3</ele>
        <time>2022-10-19T13:05:40Z</time>
      </trkpt>
      <trkpt lat="43.17905" lon="5.57457">
        <ele>326.1</ele>
        <time>2022-10-19T13:05:46Z</time>
      </trkpt>
      <trkpt lat="43.17904" lon="5.57467">
        <ele>324.5</ele>
        <time>2022-10-19T13:05:52Z</time>
      </trkpt>
      <trkpt lat="43.17903" lon="5.57473">
        <ele>323.5</ele>
        <time>2022-10-19T13:05:56Z</time>
      </trkpt>
      <trkpt lat="43.17901" lon="5.5748">
        <ele>322.7</ele>
        <time>2022-10-19T13:06:00Z</time>
      </trkpt>
      <trkpt lat="43.17901" lon="5.57489">
        <ele>322.1</ele>
        <time>2022-10-19T13:06:06Z</time>
      </trkpt>
      <trkpt lat="43.17904" lon="5.57496">
        <ele>322.1</ele>
        <time>2022-10-19T13:06:12Z</time>
      </trkpt>
      <trkpt lat="43.17904" lon="5.57504">
        <ele>321.4</ele>
        <time>2022-10-19T13:06:18Z</time>
      </trkpt>
      <trkpt lat="43.17906" lon="5.57512">
        <ele>320.9</ele>
        <time>2022-10-19T13:06:24Z</time>
      </trkpt>
      <trkpt lat="43.17906" lon="5.57519">
        <ele>320.3</ele>
        <time>2022-10-19T13:06:30Z</time>
      </trkpt>
      <trkpt lat="43.17909" lon="5.57526">
        <ele>320.1</ele>
        <time>2022-10-19T13:06:36Z</time>
      </trkpt>
      <trkpt lat="43.17914" lon="5.57528">
        <ele>320.5</ele>
        <time>2022-10-19T13:06:54Z</time>
      </trkpt>
      <trkpt lat="43.17918" lon="5.5753">
        <ele>320.8</ele>
        <time>2022-10-19T13:07:54Z</time>
      </trkpt>
      <trkpt lat="43.17923" lon="5.57531">
        <ele>320.2</ele>
        <time>2022-10-19T13:08:04Z</time>
      </trkpt>
      <trkpt lat="43.1792" lon="5.57537">
        <ele>320.3</ele>
        <time>2022-10-19T13:08:36Z</time>
      </trkpt>
      <trkpt lat="43.17918" lon="5.57544">
        <ele>320.3</ele>
        <time>2022-10-19T13:08:42Z</time>
      </trkpt>
      <trkpt lat="43.1792" lon="5.57551">
        <ele>319.8</ele>
        <time>2022-10-19T13:08:52Z</time>
      </trkpt>
      <trkpt lat="43.17922" lon="5.57557">
        <ele>319.4</ele>
        <time>2022-10-19T13:09:00Z</time>
      </trkpt>
      <trkpt lat="43.17924" lon="5.57565">
        <ele>319.3</ele>
        <time>2022-10-19T13:09:06Z</time>
      </trkpt>
      <trkpt lat="43.17926" lon="5.57573">
        <ele>319.2</ele>
        <time>2022-10-19T13:09:12Z</time>
      </trkpt>
      <trkpt lat="43.1793" lon="5.57578">
        <ele>319</ele>
        <time>2022-10-19T13:09:18Z</time>
      </trkpt>
      <trkpt lat="43.17935" lon="5.57583">
        <ele>318.7</ele>
        <time>2022-10-19T13:09:24Z</time>
      </trkpt>
      <trkpt lat="43.17938" lon="5.57587">
        <ele>318.8</ele>
        <time>2022-10-19T13:09:30Z</time>
      </trkpt>
      <trkpt lat="43.17943" lon="5.57592">
        <ele>319.1</ele>
        <time>2022-10-19T13:09:38Z</time>
      </trkpt>
      <trkpt lat="43.17947" lon="5.57596">
        <ele>318.7</ele>
        <time>2022-10-19T13:09:44Z</time>
      </trkpt>
      <trkpt lat="43.1795" lon="5.57601">
        <ele>317.9</ele>
        <time>2022-10-19T13:09:52Z</time>
      </trkpt>
      <trkpt lat="43.17953" lon="5.57605">
        <ele>317.2</ele>
        <time>2022-10-19T13:10:00Z</time>
      </trkpt>
      <trkpt lat="43.17958" lon="5.57608">
        <ele>315.7</ele>
        <time>2022-10-19T13:10:06Z</time>
      </trkpt>
      <trkpt lat="43.17962" lon="5.57611">
        <ele>314.6</ele>
        <time>2022-10-19T13:10:16Z</time>
      </trkpt>
      <trkpt lat="43.17967" lon="5.57615">
        <ele>313.4</ele>
        <time>2022-10-19T13:10:24Z</time>
      </trkpt>
      <trkpt lat="43.17972" lon="5.57618">
        <ele>312.1</ele>
        <time>2022-10-19T13:10:32Z</time>
      </trkpt>
      <trkpt lat="43.17975" lon="5.57623">
        <ele>311.6</ele>
        <time>2022-10-19T13:10:38Z</time>
      </trkpt>
      <trkpt lat="43.17979" lon="5.57626">
        <ele>310.5</ele>
        <time>2022-10-19T13:10:44Z</time>
      </trkpt>
      <trkpt lat="43.17982" lon="5.57632">
        <ele>309.9</ele>
        <time>2022-10-19T13:10:58Z</time>
      </trkpt>
      <trkpt lat="43.17986" lon="5.57637">
        <ele>308.9</ele>
        <time>2022-10-19T13:11:06Z</time>
      </trkpt>
      <trkpt lat="43.17989" lon="5.57643">
        <ele>308.4</ele>
        <time>2022-10-19T13:11:14Z</time>
      </trkpt>
      <trkpt lat="43.17993" lon="5.57647">
        <ele>307.5</ele>
        <time>2022-10-19T13:11:22Z</time>
      </trkpt>
      <trkpt lat="43.17999" lon="5.5765">
        <ele>306</ele>
        <time>2022-10-19T13:11:30Z</time>
      </trkpt>
      <trkpt lat="43.18003" lon="5.57654">
        <ele>305.1</ele>
        <time>2022-10-19T13:11:38Z</time>
      </trkpt>
      <trkpt lat="43.18008" lon="5.57657">
        <ele>304</ele>
        <time>2022-10-19T13:11:52Z</time>
      </trkpt>
      <trkpt lat="43.18013" lon="5.57661">
        <ele>303</ele>
        <time>2022-10-19T13:12:00Z</time>
      </trkpt>
      <trkpt lat="43.18018" lon="5.5766">
        <ele>301.2</ele>
        <time>2022-10-19T13:12:06Z</time>
      </trkpt>
      <trkpt lat="43.18023" lon="5.57661">
        <ele>299.6</ele>
        <time>2022-10-19T13:12:12Z</time>
      </trkpt>
      <trkpt lat="43.18028" lon="5.57664">
        <ele>298.4</ele>
        <time>2022-10-19T13:12:20Z</time>
      </trkpt>
      <trkpt lat="43.18033" lon="5.57666">
        <ele>297.5</ele>
        <time>2022-10-19T13:12:28Z</time>
      </trkpt>
      <trkpt lat="43.18038" lon="5.57669">
        <ele>296.8</ele>
        <time>2022-10-19T13:12:36Z</time>
      </trkpt>
      <trkpt lat="43.18043" lon="5.57669">
        <ele>295.3</ele>
        <time>2022-10-19T13:12:44Z</time>
      </trkpt>
      <trkpt lat="43.18048" lon="5.57671">
        <ele>294.6</ele>
        <time>2022-10-19T13:12:50Z</time>
      </trkpt>
      <trkpt lat="43.18052" lon="5.57674">
        <ele>294.8</ele>
        <time>2022-10-19T13:12:58Z</time>
      </trkpt>
      <trkpt lat="43.18058" lon="5.57679">
        <ele>294.8</ele>
        <time>2022-10-19T13:13:10Z</time>
      </trkpt>
      <trkpt lat="43.18063" lon="5.57682">
        <ele>294.5</ele>
        <time>2022-10-19T13:13:16Z</time>
      </trkpt>
      <trkpt lat="43.18069" lon="5.57685">
        <ele>293.5</ele>
        <time>2022-10-19T13:13:22Z</time>
      </trkpt>
      <trkpt lat="43.18074" lon="5.57689">
        <ele>292.7</ele>
        <time>2022-10-19T13:13:28Z</time>
      </trkpt>
      <trkpt lat="43.18079" lon="5.5769">
        <ele>291.5</ele>
        <time>2022-10-19T13:13:34Z</time>
      </trkpt>
      <trkpt lat="43.18085" lon="5.57692">
        <ele>290.3</ele>
        <time>2022-10-19T13:13:40Z</time>
      </trkpt>
      <trkpt lat="43.1809" lon="5.57694">
        <ele>289.8</ele>
        <time>2022-10-19T13:13:46Z</time>
      </trkpt>
      <trkpt lat="43.18094" lon="5.57696">
        <ele>289.7</ele>
        <time>2022-10-19T13:13:52Z</time>
      </trkpt>
      <trkpt lat="43.18099" lon="5.57698">
        <ele>289.2</ele>
        <time>2022-10-19T13:13:58Z</time>
      </trkpt>
      <trkpt lat="43.18103" lon="5.577">
        <ele>289.1</ele>
        <time>2022-10-19T13:14:04Z</time>
      </trkpt>
      <trkpt lat="43.18108" lon="5.57702">
        <ele>288.5</ele>
        <time>2022-10-19T13:14:10Z</time>
      </trkpt>
      <trkpt lat="43.18112" lon="5.57703">
        <ele>287.7</ele>
        <time>2022-10-19T13:14:16Z</time>
      </trkpt>
      <trkpt lat="43.18117" lon="5.57706">
        <ele>287.1</ele>
        <time>2022-10-19T13:14:24Z</time>
      </trkpt>
      <trkpt lat="43.18122" lon="5.57709">
        <ele>286.3</ele>
        <time>2022-10-19T13:14:32Z</time>
      </trkpt>
      <trkpt lat="43.18127" lon="5.57713">
        <ele>285.7</ele>
        <time>2022-10-19T13:14:40Z</time>
      </trkpt>
      <trkpt lat="43.18132" lon="5.57717">
        <ele>284.5</ele>
        <time>2022-10-19T13:14:48Z</time>
      </trkpt>
      <trkpt lat="43.18136" lon="5.5772">
        <ele>283.5</ele>
        <time>2022-10-19T13:14:54Z</time>
      </trkpt>
      <trkpt lat="43.1814" lon="5.57724">
        <ele>283</ele>
        <time>2022-10-19T13:15:00Z</time>
      </trkpt>
      <trkpt lat="43.18145" lon="5.57729">
        <ele>282.5</ele>
        <time>2022-10-19T13:15:08Z</time>
      </trkpt>
      <trkpt lat="43.18148" lon="5.57734">
        <ele>282.6</ele>
        <time>2022-10-19T13:15:28Z</time>
      </trkpt>
      <trkpt lat="43.18151" lon="5.57739">
        <ele>282.8</ele>
        <time>2022-10-19T13:15:40Z</time>
      </trkpt>
      <trkpt lat="43.18155" lon="5.57744">
        <ele>282.3</ele>
        <time>2022-10-19T13:15:48Z</time>
      </trkpt>
      <trkpt lat="43.18158" lon="5.57748">
        <ele>282.1</ele>
        <time>2022-10-19T13:15:54Z</time>
      </trkpt>
      <trkpt lat="43.18162" lon="5.57755">
        <ele>281.5</ele>
        <time>2022-10-19T13:16:00Z</time>
      </trkpt>
      <trkpt lat="43.18165" lon="5.57759">
        <ele>280.7</ele>
        <time>2022-10-19T13:16:06Z</time>
      </trkpt>
      <trkpt lat="43.18169" lon="5.57765">
        <ele>279.9</ele>
        <time>2022-10-19T13:16:14Z</time>
      </trkpt>
      <trkpt lat="43.18173" lon="5.57769">
        <ele>279.3</ele>
        <time>2022-10-19T13:16:20Z</time>
      </trkpt>
      <trkpt lat="43.18177" lon="5.57773">
        <ele>278.6</ele>
        <time>2022-10-19T13:16:32Z</time>
      </trkpt>
      <trkpt lat="43.1818" lon="5.57777">
        <ele>278</ele>
        <time>2022-10-19T13:16:38Z</time>
      </trkpt>
      <trkpt lat="43.18185" lon="5.5778">
        <ele>277</ele>
        <time>2022-10-19T13:16:44Z</time>
      </trkpt>
      <trkpt lat="43.1819" lon="5.57783">
        <ele>275.7</ele>
        <time>2022-10-19T13:16:52Z</time>
      </trkpt>
      <trkpt lat="43.18194" lon="5.57785">
        <ele>274.6</ele>
        <time>2022-10-19T13:17:00Z</time>
      </trkpt>
      <trkpt lat="43.18199" lon="5.57787">
        <ele>273.6</ele>
        <time>2022-10-19T13:17:08Z</time>
      </trkpt>
      <trkpt lat="43.18204" lon="5.57789">
        <ele>272.6</ele>
        <time>2022-10-19T13:17:14Z</time>
      </trkpt>
      <trkpt lat="43.18209" lon="5.57792">
        <ele>271.6</ele>
        <time>2022-10-19T13:17:22Z</time>
      </trkpt>
      <trkpt lat="43.18214" lon="5.57795">
        <ele>270.6</ele>
        <time>2022-10-19T13:17:30Z</time>
      </trkpt>
      <trkpt lat="43.18219" lon="5.57795">
        <ele>269.8</ele>
        <time>2022-10-19T13:17:38Z</time>
      </trkpt>
      <trkpt lat="43.18224" lon="5.57798">
        <ele>269</ele>
        <time>2022-10-19T13:17:46Z</time>
      </trkpt>
      <trkpt lat="43.1823" lon="5.578">
        <ele>268.2</ele>
        <time>2022-10-19T13:17:54Z</time>
      </trkpt>
      <trkpt lat="43.18236" lon="5.57802">
        <ele>267.6</ele>
        <time>2022-10-19T13:18:02Z</time>
      </trkpt>
      <trkpt lat="43.1824" lon="5.57802">
        <ele>267</ele>
        <time>2022-10-19T13:18:08Z</time>
      </trkpt>
      <trkpt lat="43.18246" lon="5.57802">
        <ele>266.3</ele>
        <time>2022-10-19T13:18:16Z</time>
      </trkpt>
      <trkpt lat="43.18252" lon="5.57804">
        <ele>265.7</ele>
        <time>2022-10-19T13:18:24Z</time>
      </trkpt>
      <trkpt lat="43.18257" lon="5.57804">
        <ele>264.9</ele>
        <time>2022-10-19T13:18:40Z</time>
      </trkpt>
      <trkpt lat="43.18262" lon="5.57805">
        <ele>264.3</ele>
        <time>2022-10-19T13:18:46Z</time>
      </trkpt>
      <trkpt lat="43.18267" lon="5.57805">
        <ele>263.5</ele>
        <time>2022-10-19T13:18:52Z</time>
      </trkpt>
      <trkpt lat="43.18273" lon="5.57806">
        <ele>262.7</ele>
        <time>2022-10-19T13:18:58Z</time>
      </trkpt>
      <trkpt lat="43.18278" lon="5.57805">
        <ele>262</ele>
        <time>2022-10-19T13:19:04Z</time>
      </trkpt>
      <trkpt lat="43.18282" lon="5.57806">
        <ele>261.4</ele>
        <time>2022-10-19T13:19:10Z</time>
      </trkpt>
      <trkpt lat="43.18288" lon="5.57805">
        <ele>260.5</ele>
        <time>2022-10-19T13:19:18Z</time>
      </trkpt>
      <trkpt lat="43.18293" lon="5.57806">
        <ele>259.8</ele>
        <time>2022-10-19T13:19:24Z</time>
      </trkpt>
      <trkpt lat="43.18297" lon="5.57807">
        <ele>259.1</ele>
        <time>2022-10-19T13:19:30Z</time>
      </trkpt>
      <trkpt lat="43.18302" lon="5.57808">
        <ele>258.4</ele>
        <time>2022-10-19T13:19:36Z</time>
      </trkpt>
      <trkpt lat="43.18306" lon="5.57811">
        <ele>257.6</ele>
        <time>2022-10-19T13:19:44Z</time>
      </trkpt>
      <trkpt lat="43.18311" lon="5.57816">
        <ele>256.6</ele>
        <time>2022-10-19T13:19:52Z</time>
      </trkpt>
      <trkpt lat="43.18316" lon="5.57818">
        <ele>255.4</ele>
        <time>2022-10-19T13:20:00Z</time>
      </trkpt>
      <trkpt lat="43.18321" lon="5.57822">
        <ele>254.4</ele>
        <time>2022-10-19T13:20:08Z</time>
      </trkpt>
      <trkpt lat="43.18325" lon="5.57826">
        <ele>253.5</ele>
        <time>2022-10-19T13:20:16Z</time>
      </trkpt>
      <trkpt lat="43.1833" lon="5.57827">
        <ele>252.7</ele>
        <time>2022-10-19T13:20:24Z</time>
      </trkpt>
      <trkpt lat="43.18334" lon="5.5783">
        <ele>251.8</ele>
        <time>2022-10-19T13:20:32Z</time>
      </trkpt>
      <trkpt lat="43.18338" lon="5.57833">
        <ele>250.7</ele>
        <time>2022-10-19T13:20:40Z</time>
      </trkpt>
      <trkpt lat="43.18342" lon="5.57835">
        <ele>249.3</ele>
        <time>2022-10-19T13:20:50Z</time>
      </trkpt>
      <trkpt lat="43.18347" lon="5.57836">
        <ele>247.8</ele>
        <time>2022-10-19T13:21:00Z</time>
      </trkpt>
      <trkpt lat="43.18352" lon="5.57838">
        <ele>246.4</ele>
        <time>2022-10-19T13:21:10Z</time>
      </trkpt>
      <trkpt lat="43.18356" lon="5.57842">
        <ele>245.1</ele>
        <time>2022-10-19T13:21:18Z</time>
      </trkpt>
      <trkpt lat="43.1836" lon="5.57847">
        <ele>243.8</ele>
        <time>2022-10-19T13:21:26Z</time>
      </trkpt>
      <trkpt lat="43.18363" lon="5.57852">
        <ele>242.9</ele>
        <time>2022-10-19T13:21:34Z</time>
      </trkpt>
      <trkpt lat="43.18366" lon="5.57857">
        <ele>242.1</ele>
        <time>2022-10-19T13:21:42Z</time>
      </trkpt>
      <trkpt lat="43.18369" lon="5.57863">
        <ele>241.1</ele>
        <time>2022-10-19T13:21:48Z</time>
      </trkpt>
      <trkpt lat="43.18374" lon="5.57867">
        <ele>239.7</ele>
        <time>2022-10-19T13:21:54Z</time>
      </trkpt>
      <trkpt lat="43.18376" lon="5.57872">
        <ele>238.7</ele>
        <time>2022-10-19T13:22:02Z</time>
      </trkpt>
      <trkpt lat="43.18376" lon="5.57879">
        <ele>238.2</ele>
        <time>2022-10-19T13:22:14Z</time>
      </trkpt>
      <trkpt lat="43.18375" lon="5.57885">
        <ele>237.9</ele>
        <time>2022-10-19T13:22:20Z</time>
      </trkpt>
      <trkpt lat="43.18374" lon="5.57891">
        <ele>237.5</ele>
        <time>2022-10-19T13:22:26Z</time>
      </trkpt>
      <trkpt lat="43.18374" lon="5.57897">
        <ele>236.7</ele>
        <time>2022-10-19T13:22:54Z</time>
      </trkpt>
      <trkpt lat="43.18371" lon="5.57904">
        <ele>236.2</ele>
        <time>2022-10-19T13:25:32Z</time>
      </trkpt>
      <trkpt lat="43.18373" lon="5.57911">
        <ele>235</ele>
        <time>2022-10-19T13:25:38Z</time>
      </trkpt>
      <trkpt lat="43.18373" lon="5.57918">
        <ele>234</ele>
        <time>2022-10-19T13:25:46Z</time>
      </trkpt>
      <trkpt lat="43.18376" lon="5.57923">
        <ele>232.5</ele>
        <time>2022-10-19T13:25:54Z</time>
      </trkpt>
      <trkpt lat="43.18382" lon="5.57921">
        <ele>232</ele>
        <time>2022-10-19T13:26:02Z</time>
      </trkpt>
      <trkpt lat="43.18387" lon="5.57918">
        <ele>231.9</ele>
        <time>2022-10-19T13:26:10Z</time>
      </trkpt>
      <trkpt lat="43.18392" lon="5.57916">
        <ele>231.5</ele>
        <time>2022-10-19T13:26:18Z</time>
      </trkpt>
      <trkpt lat="43.18398" lon="5.57915">
        <ele>230.9</ele>
        <time>2022-10-19T13:26:24Z</time>
      </trkpt>
      <trkpt lat="43.18403" lon="5.57915">
        <ele>230.2</ele>
        <time>2022-10-19T13:26:30Z</time>
      </trkpt>
      <trkpt lat="43.18406" lon="5.57918">
        <ele>229.2</ele>
        <time>2022-10-19T13:26:50Z</time>
      </trkpt>
      <trkpt lat="43.18411" lon="5.57918">
        <ele>228.6</ele>
        <time>2022-10-19T13:26:56Z</time>
      </trkpt>
      <trkpt lat="43.18415" lon="5.57913">
        <ele>228.5</ele>
        <time>2022-10-19T13:27:02Z</time>
      </trkpt>
      <trkpt lat="43.18418" lon="5.57908">
        <ele>227.9</ele>
        <time>2022-10-19T13:27:10Z</time>
      </trkpt>
      <trkpt lat="43.18421" lon="5.57902">
        <ele>227.3</ele>
        <time>2022-10-19T13:27:16Z</time>
      </trkpt>
      <trkpt lat="43.18421" lon="5.57909">
        <ele>226.9</ele>
        <time>2022-10-19T13:27:30Z</time>
      </trkpt>
      <trkpt lat="43.18423" lon="5.57915">
        <ele>225.8</ele>
        <time>2022-10-19T13:27:36Z</time>
      </trkpt>
      <trkpt lat="43.18423" lon="5.57922">
        <ele>225.2</ele>
        <time>2022-10-19T13:27:44Z</time>
      </trkpt>
      <trkpt lat="43.18422" lon="5.57928">
        <ele>224.9</ele>
        <time>2022-10-19T13:27:52Z</time>
      </trkpt>
      <trkpt lat="43.18419" lon="5.57935">
        <ele>224.7</ele>
        <time>2022-10-19T13:27:58Z</time>
      </trkpt>
      <trkpt lat="43.18415" lon="5.5794">
        <ele>224.7</ele>
        <time>2022-10-19T13:28:04Z</time>
      </trkpt>
      <trkpt lat="43.18411" lon="5.57946">
        <ele>224.2</ele>
        <time>2022-10-19T13:28:10Z</time>
      </trkpt>
      <trkpt lat="43.18407" lon="5.5795">
        <ele>223.9</ele>
        <time>2022-10-19T13:28:16Z</time>
      </trkpt>
      <trkpt lat="43.18403" lon="5.57955">
        <ele>223.3</ele>
        <time>2022-10-19T13:28:22Z</time>
      </trkpt>
      <trkpt lat="43.184" lon="5.57961">
        <ele>222.5</ele>
        <time>2022-10-19T13:28:28Z</time>
      </trkpt>
      <trkpt lat="43.18396" lon="5.57965">
        <ele>221.9</ele>
        <time>2022-10-19T13:28:34Z</time>
      </trkpt>
      <trkpt lat="43.18393" lon="5.5797">
        <ele>221.2</ele>
        <time>2022-10-19T13:28:40Z</time>
      </trkpt>
      <trkpt lat="43.18388" lon="5.57975">
        <ele>220.6</ele>
        <time>2022-10-19T13:28:46Z</time>
      </trkpt>
      <trkpt lat="43.18383" lon="5.57978">
        <ele>220.7</ele>
        <time>2022-10-19T13:28:52Z</time>
      </trkpt>
      <trkpt lat="43.18378" lon="5.57981">
        <ele>220.6</ele>
        <time>2022-10-19T13:29:04Z</time>
      </trkpt>
      <trkpt lat="43.18374" lon="5.57986">
        <ele>220.2</ele>
        <time>2022-10-19T13:29:10Z</time>
      </trkpt>
      <trkpt lat="43.1837" lon="5.5799">
        <ele>219.6</ele>
        <time>2022-10-19T13:29:16Z</time>
      </trkpt>
      <trkpt lat="43.18366" lon="5.57994">
        <ele>219</ele>
        <time>2022-10-19T13:29:22Z</time>
      </trkpt>
      <trkpt lat="43.18362" lon="5.57999">
        <ele>218.2</ele>
        <time>2022-10-19T13:29:28Z</time>
      </trkpt>
      <trkpt lat="43.18358" lon="5.58003">
        <ele>217.7</ele>
        <time>2022-10-19T13:29:34Z</time>
      </trkpt>
      <trkpt lat="43.18354" lon="5.58008">
        <ele>216.7</ele>
        <time>2022-10-19T13:29:40Z</time>
      </trkpt>
      <trkpt lat="43.18351" lon="5.58014">
        <ele>215.6</ele>
        <time>2022-10-19T13:29:46Z</time>
      </trkpt>
      <trkpt lat="43.18346" lon="5.58019">
        <ele>214.6</ele>
        <time>2022-10-19T13:29:54Z</time>
      </trkpt>
      <trkpt lat="43.1834" lon="5.58022">
        <ele>214.2</ele>
        <time>2022-10-19T13:30:02Z</time>
      </trkpt>
      <trkpt lat="43.18336" lon="5.58025">
        <ele>213.6</ele>
        <time>2022-10-19T13:30:08Z</time>
      </trkpt>
      <trkpt lat="43.18333" lon="5.58028">
        <ele>212.8</ele>
        <time>2022-10-19T13:30:14Z</time>
      </trkpt>
      <trkpt lat="43.18328" lon="5.58028">
        <ele>212.7</ele>
        <time>2022-10-19T13:30:20Z</time>
      </trkpt>
      <trkpt lat="43.18323" lon="5.5803">
        <ele>212.2</ele>
        <time>2022-10-19T13:30:26Z</time>
      </trkpt>
      <trkpt lat="43.18317" lon="5.5803">
        <ele>211.9</ele>
        <time>2022-10-19T13:30:32Z</time>
      </trkpt>
      <trkpt lat="43.18311" lon="5.58029">
        <ele>212</ele>
        <time>2022-10-19T13:30:38Z</time>
      </trkpt>
      <trkpt lat="43.18308" lon="5.58033">
        <ele>211.1</ele>
        <time>2022-10-19T13:30:44Z</time>
      </trkpt>
      <trkpt lat="43.1831" lon="5.58039">
        <ele>210.1</ele>
        <time>2022-10-19T13:30:52Z</time>
      </trkpt>
      <trkpt lat="43.18313" lon="5.58045">
        <ele>209.1</ele>
        <time>2022-10-19T13:31:00Z</time>
      </trkpt>
      <trkpt lat="43.18312" lon="5.58052">
        <ele>207.6</ele>
        <time>2022-10-19T13:31:08Z</time>
      </trkpt>
      <trkpt lat="43.18315" lon="5.58057">
        <ele>206.5</ele>
        <time>2022-10-19T13:31:14Z</time>
      </trkpt>
      <trkpt lat="43.1832" lon="5.58061">
        <ele>205.7</ele>
        <time>2022-10-19T13:31:20Z</time>
      </trkpt>
      <trkpt lat="43.18326" lon="5.58063">
        <ele>205.5</ele>
        <time>2022-10-19T13:31:26Z</time>
      </trkpt>
      <trkpt lat="43.18331" lon="5.58067">
        <ele>205.1</ele>
        <time>2022-10-19T13:31:34Z</time>
      </trkpt>
      <trkpt lat="43.18335" lon="5.5807">
        <ele>204.8</ele>
        <time>2022-10-19T13:31:40Z</time>
      </trkpt>
      <trkpt lat="43.18339" lon="5.58074">
        <ele>204</ele>
        <time>2022-10-19T13:31:46Z</time>
      </trkpt>
      <trkpt lat="43.18344" lon="5.58077">
        <ele>203.2</ele>
        <time>2022-10-19T13:31:52Z</time>
      </trkpt>
      <trkpt lat="43.18348" lon="5.5808">
        <ele>202.4</ele>
        <time>2022-10-19T13:31:58Z</time>
      </trkpt>
      <trkpt lat="43.18353" lon="5.58083">
        <ele>201.7</ele>
        <time>2022-10-19T13:32:04Z</time>
      </trkpt>
      <trkpt lat="43.18358" lon="5.58086">
        <ele>200.9</ele>
        <time>2022-10-19T13:32:12Z</time>
      </trkpt>
      <trkpt lat="43.18362" lon="5.58086">
        <ele>200.2</ele>
        <time>2022-10-19T13:32:18Z</time>
      </trkpt>
      <trkpt lat="43.18366" lon="5.5808">
        <ele>200.4</ele>
        <time>2022-10-19T13:32:30Z</time>
      </trkpt>
      <trkpt lat="43.18369" lon="5.58075">
        <ele>200.6</ele>
        <time>2022-10-19T13:32:36Z</time>
      </trkpt>
      <trkpt lat="43.18372" lon="5.58069">
        <ele>201.1</ele>
        <time>2022-10-19T13:32:44Z</time>
      </trkpt>
      <trkpt lat="43.18377" lon="5.58066">
        <ele>200.7</ele>
        <time>2022-10-19T13:32:50Z</time>
      </trkpt>
      <trkpt lat="43.18382" lon="5.58063">
        <ele>200.2</ele>
        <time>2022-10-19T13:32:56Z</time>
      </trkpt>
      <trkpt lat="43.18387" lon="5.58061">
        <ele>199.6</ele>
        <time>2022-10-19T13:33:02Z</time>
      </trkpt>
      <trkpt lat="43.18393" lon="5.5806">
        <ele>199.5</ele>
        <time>2022-10-19T13:33:08Z</time>
      </trkpt>
      <trkpt lat="43.18398" lon="5.58058">
        <ele>199.7</ele>
        <time>2022-10-19T13:33:14Z</time>
      </trkpt>
      <trkpt lat="43.18403" lon="5.58058">
        <ele>199.1</ele>
        <time>2022-10-19T13:33:24Z</time>
      </trkpt>
      <trkpt lat="43.18409" lon="5.5806">
        <ele>197.8</ele>
        <time>2022-10-19T13:33:30Z</time>
      </trkpt>
      <trkpt lat="43.18415" lon="5.5806">
        <ele>197.5</ele>
        <time>2022-10-19T13:33:38Z</time>
      </trkpt>
      <trkpt lat="43.1842" lon="5.58062">
        <ele>196.3</ele>
        <time>2022-10-19T13:33:46Z</time>
      </trkpt>
      <trkpt lat="43.18426" lon="5.58063">
        <ele>195.8</ele>
        <time>2022-10-19T13:33:52Z</time>
      </trkpt>
      <trkpt lat="43.18431" lon="5.58066">
        <ele>195</ele>
        <time>2022-10-19T13:33:58Z</time>
      </trkpt>
      <trkpt lat="43.18437" lon="5.58067">
        <ele>194.5</ele>
        <time>2022-10-19T13:34:04Z</time>
      </trkpt>
      <trkpt lat="43.18442" lon="5.58069">
        <ele>194.1</ele>
        <time>2022-10-19T13:34:10Z</time>
      </trkpt>
      <trkpt lat="43.18447" lon="5.58071">
        <ele>193.7</ele>
        <time>2022-10-19T13:34:18Z</time>
      </trkpt>
      <trkpt lat="43.18452" lon="5.58073">
        <ele>193.2</ele>
        <time>2022-10-19T13:34:24Z</time>
      </trkpt>
      <trkpt lat="43.18456" lon="5.58078">
        <ele>192.3</ele>
        <time>2022-10-19T13:34:30Z</time>
      </trkpt>
      <trkpt lat="43.1846" lon="5.58083">
        <ele>191.3</ele>
        <time>2022-10-19T13:34:38Z</time>
      </trkpt>
      <trkpt lat="43.18464" lon="5.58086">
        <ele>190.9</ele>
        <time>2022-10-19T13:34:44Z</time>
      </trkpt>
      <trkpt lat="43.18469" lon="5.58088">
        <ele>190.6</ele>
        <time>2022-10-19T13:34:50Z</time>
      </trkpt>
      <trkpt lat="43.18473" lon="5.5809">
        <ele>190.5</ele>
        <time>2022-10-19T13:34:56Z</time>
      </trkpt>
      <trkpt lat="43.18477" lon="5.58091">
        <ele>189.4</ele>
        <time>2022-10-19T13:35:02Z</time>
      </trkpt>
      <trkpt lat="43.18482" lon="5.58096">
        <ele>187.9</ele>
        <time>2022-10-19T13:35:10Z</time>
      </trkpt>
      <trkpt lat="43.18485" lon="5.58102">
        <ele>186.4</ele>
        <time>2022-10-19T13:35:16Z</time>
      </trkpt>
      <trkpt lat="43.18486" lon="5.5811">
        <ele>184.8</ele>
        <time>2022-10-19T13:35:22Z</time>
      </trkpt>
      <trkpt lat="43.1849" lon="5.58113">
        <ele>183.8</ele>
        <time>2022-10-19T13:35:28Z</time>
      </trkpt>
      <trkpt lat="43.18485" lon="5.58114">
        <ele>184.2</ele>
        <time>2022-10-19T13:36:00Z</time>
      </trkpt>
      <trkpt lat="43.1848" lon="5.58117">
        <ele>184.1</ele>
        <time>2022-10-19T13:36:06Z</time>
      </trkpt>
      <trkpt lat="43.18475" lon="5.58116">
        <ele>184.7</ele>
        <time>2022-10-19T13:36:12Z</time>
      </trkpt>
      <trkpt lat="43.18471" lon="5.58114">
        <ele>185.1</ele>
        <time>2022-10-19T13:36:20Z</time>
      </trkpt>
      <trkpt lat="43.18466" lon="5.5811">
        <ele>185.4</ele>
        <time>2022-10-19T13:36:26Z</time>
      </trkpt>
      <trkpt lat="43.18462" lon="5.58108">
        <ele>185.2</ele>
        <time>2022-10-19T13:36:32Z</time>
      </trkpt>
      <trkpt lat="43.18457" lon="5.58108">
        <ele>184.4</ele>
        <time>2022-10-19T13:36:38Z</time>
      </trkpt>
      <trkpt lat="43.18451" lon="5.58108">
        <ele>183.9</ele>
        <time>2022-10-19T13:36:44Z</time>
      </trkpt>
      <trkpt lat="43.18447" lon="5.58106">
        <ele>183.7</ele>
        <time>2022-10-19T13:36:50Z</time>
      </trkpt>
      <trkpt lat="43.18442" lon="5.58104">
        <ele>183.8</ele>
        <time>2022-10-19T13:36:54Z</time>
      </trkpt>
      <trkpt lat="43.18437" lon="5.58102">
        <ele>184</ele>
        <time>2022-10-19T13:37:00Z</time>
      </trkpt>
      <trkpt lat="43.18432" lon="5.581">
        <ele>184.1</ele>
        <time>2022-10-19T13:37:08Z</time>
      </trkpt>
      <trkpt lat="43.18428" lon="5.58097">
        <ele>184.6</ele>
        <time>2022-10-19T13:37:14Z</time>
      </trkpt>
      <trkpt lat="43.18423" lon="5.58095">
        <ele>184.7</ele>
        <time>2022-10-19T13:37:20Z</time>
      </trkpt>
      <trkpt lat="43.18418" lon="5.58096">
        <ele>184</ele>
        <time>2022-10-19T13:37:26Z</time>
      </trkpt>
      <trkpt lat="43.18413" lon="5.58098">
        <ele>184.3</ele>
        <time>2022-10-19T13:37:32Z</time>
      </trkpt>
      <trkpt lat="43.18407" lon="5.58103">
        <ele>184.5</ele>
        <time>2022-10-19T13:37:38Z</time>
      </trkpt>
      <trkpt lat="43.18403" lon="5.5811">
        <ele>184.1</ele>
        <time>2022-10-19T13:37:44Z</time>
      </trkpt>
      <trkpt lat="43.18401" lon="5.58117">
        <ele>183.7</ele>
        <time>2022-10-19T13:37:50Z</time>
      </trkpt>
      <trkpt lat="43.18403" lon="5.58125">
        <ele>182</ele>
        <time>2022-10-19T13:37:58Z</time>
      </trkpt>
      <trkpt lat="43.18402" lon="5.58134">
        <ele>180.9</ele>
        <time>2022-10-19T13:38:04Z</time>
      </trkpt>
      <trkpt lat="43.18402" lon="5.58141">
        <ele>180.2</ele>
        <time>2022-10-19T13:38:10Z</time>
      </trkpt>
      <trkpt lat="43.18403" lon="5.58148">
        <ele>178.9</ele>
        <time>2022-10-19T13:38:16Z</time>
      </trkpt>
      <trkpt lat="43.18404" lon="5.58155">
        <ele>178</ele>
        <time>2022-10-19T13:38:22Z</time>
      </trkpt>
      <trkpt lat="43.18404" lon="5.58162">
        <ele>177.5</ele>
        <time>2022-10-19T13:38:28Z</time>
      </trkpt>
      <trkpt lat="43.18405" lon="5.58169">
        <ele>176.7</ele>
        <time>2022-10-19T13:38:34Z</time>
      </trkpt>
      <trkpt lat="43.18406" lon="5.58176">
        <ele>176.2</ele>
        <time>2022-10-19T13:38:40Z</time>
      </trkpt>
      <trkpt lat="43.18406" lon="5.58183">
        <ele>175.9</ele>
        <time>2022-10-19T13:38:48Z</time>
      </trkpt>
      <trkpt lat="43.18407" lon="5.58191">
        <ele>175.7</ele>
        <time>2022-10-19T13:38:54Z</time>
      </trkpt>
      <trkpt lat="43.18408" lon="5.58197">
        <ele>175</ele>
        <time>2022-10-19T13:39:00Z</time>
      </trkpt>
      <trkpt lat="43.1841" lon="5.58203">
        <ele>174.2</ele>
        <time>2022-10-19T13:39:06Z</time>
      </trkpt>
      <trkpt lat="43.18412" lon="5.58209">
        <ele>173.3</ele>
        <time>2022-10-19T13:39:12Z</time>
      </trkpt>
      <trkpt lat="43.18412" lon="5.58215">
        <ele>173.4</ele>
        <time>2022-10-19T13:39:20Z</time>
      </trkpt>
      <trkpt lat="43.18411" lon="5.58224">
        <ele>173.3</ele>
        <time>2022-10-19T13:39:46Z</time>
      </trkpt>
      <trkpt lat="43.18412" lon="5.58231">
        <ele>172.5</ele>
        <time>2022-10-19T13:39:52Z</time>
      </trkpt>
      <trkpt lat="43.18411" lon="5.58239">
        <ele>171.8</ele>
        <time>2022-10-19T13:39:58Z</time>
      </trkpt>
      <trkpt lat="43.18412" lon="5.58245">
        <ele>171</ele>
        <time>2022-10-19T13:40:04Z</time>
      </trkpt>
      <trkpt lat="43.18413" lon="5.58253">
        <ele>170.3</ele>
        <time>2022-10-19T13:40:10Z</time>
      </trkpt>
      <trkpt lat="43.18411" lon="5.5826">
        <ele>169.6</ele>
        <time>2022-10-19T13:40:16Z</time>
      </trkpt>
      <trkpt lat="43.1841" lon="5.58267">
        <ele>169</ele>
        <time>2022-10-19T13:40:22Z</time>
      </trkpt>
      <trkpt lat="43.18408" lon="5.58274">
        <ele>168.4</ele>
        <time>2022-10-19T13:40:28Z</time>
      </trkpt>
      <trkpt lat="43.18406" lon="5.58282">
        <ele>167.5</ele>
        <time>2022-10-19T13:40:34Z</time>
      </trkpt>
      <trkpt lat="43.18402" lon="5.58287">
        <ele>166.8</ele>
        <time>2022-10-19T13:40:42Z</time>
      </trkpt>
      <trkpt lat="43.18406" lon="5.58292">
        <ele>165.5</ele>
        <time>2022-10-19T13:41:16Z</time>
      </trkpt>
      <trkpt lat="43.18409" lon="5.58297">
        <ele>164.2</ele>
        <time>2022-10-19T13:41:28Z</time>
      </trkpt>
      <trkpt lat="43.18412" lon="5.58302">
        <ele>162.9</ele>
        <time>2022-10-19T13:41:38Z</time>
      </trkpt>
      <trkpt lat="43.18415" lon="5.58307">
        <ele>161.8</ele>
        <time>2022-10-19T13:41:48Z</time>
      </trkpt>
      <trkpt lat="43.18419" lon="5.58314">
        <ele>160.6</ele>
        <time>2022-10-19T13:41:58Z</time>
      </trkpt>
      <trkpt lat="43.18423" lon="5.5832">
        <ele>159.3</ele>
        <time>2022-10-19T13:42:06Z</time>
      </trkpt>
      <trkpt lat="43.18426" lon="5.58324">
        <ele>158.4</ele>
        <time>2022-10-19T13:42:12Z</time>
      </trkpt>
      <trkpt lat="43.18426" lon="5.58331">
        <ele>157.7</ele>
        <time>2022-10-19T13:42:22Z</time>
      </trkpt>
      <trkpt lat="43.1843" lon="5.58336">
        <ele>156.5</ele>
        <time>2022-10-19T13:42:30Z</time>
      </trkpt>
      <trkpt lat="43.18434" lon="5.5834">
        <ele>155.6</ele>
        <time>2022-10-19T13:42:38Z</time>
      </trkpt>
      <trkpt lat="43.18433" lon="5.58347">
        <ele>154.5</ele>
        <time>2022-10-19T13:42:48Z</time>
      </trkpt>
      <trkpt lat="43.18436" lon="5.58353">
        <ele>153.4</ele>
        <time>2022-10-19T13:42:54Z</time>
      </trkpt>
      <trkpt lat="43.18441" lon="5.58356">
        <ele>152.7</ele>
        <time>2022-10-19T13:43:00Z</time>
      </trkpt>
      <trkpt lat="43.18446" lon="5.5836">
        <ele>152</ele>
        <time>2022-10-19T13:43:06Z</time>
      </trkpt>
      <trkpt lat="43.1845" lon="5.58364">
        <ele>151.1</ele>
        <time>2022-10-19T13:43:12Z</time>
      </trkpt>
      <trkpt lat="43.18456" lon="5.58367">
        <ele>150.5</ele>
        <time>2022-10-19T13:43:20Z</time>
      </trkpt>
      <trkpt lat="43.18462" lon="5.58371">
        <ele>149.9</ele>
        <time>2022-10-19T13:43:26Z</time>
      </trkpt>
      <trkpt lat="43.18466" lon="5.58374">
        <ele>149.6</ele>
        <time>2022-10-19T13:43:32Z</time>
      </trkpt>
      <trkpt lat="43.18472" lon="5.58374">
        <ele>149.5</ele>
        <time>2022-10-19T13:43:38Z</time>
      </trkpt>
      <trkpt lat="43.18477" lon="5.58375">
        <ele>148.1</ele>
        <time>2022-10-19T13:43:46Z</time>
      </trkpt>
      <trkpt lat="43.18483" lon="5.58378">
        <ele>146.8</ele>
        <time>2022-10-19T13:43:56Z</time>
      </trkpt>
      <trkpt lat="43.18486" lon="5.58384">
        <ele>146.2</ele>
        <time>2022-10-19T13:44:04Z</time>
      </trkpt>
      <trkpt lat="43.18489" lon="5.58388">
        <ele>145.9</ele>
        <time>2022-10-19T13:44:10Z</time>
      </trkpt>
      <trkpt lat="43.18492" lon="5.58395">
        <ele>145</ele>
        <time>2022-10-19T13:44:16Z</time>
      </trkpt>
      <trkpt lat="43.18495" lon="5.584">
        <ele>144.3</ele>
        <time>2022-10-19T13:44:22Z</time>
      </trkpt>
      <trkpt lat="43.18499" lon="5.58406">
        <ele>143.5</ele>
        <time>2022-10-19T13:44:30Z</time>
      </trkpt>
      <trkpt lat="43.18503" lon="5.5841">
        <ele>143</ele>
        <time>2022-10-19T13:44:36Z</time>
      </trkpt>
      <trkpt lat="43.18508" lon="5.58412">
        <ele>142.6</ele>
        <time>2022-10-19T13:44:44Z</time>
      </trkpt>
      <trkpt lat="43.18509" lon="5.58406">
        <ele>142.3</ele>
        <time>2022-10-19T13:46:14Z</time>
      </trkpt>
      <trkpt lat="43.18509" lon="5.58397">
        <ele>142.1</ele>
        <time>2022-10-19T13:46:52Z</time>
      </trkpt>
      <trkpt lat="43.18507" lon="5.5839">
        <ele>142.3</ele>
        <time>2022-10-19T13:46:58Z</time>
      </trkpt>
      <trkpt lat="43.18505" lon="5.58382">
        <ele>141.7</ele>
        <time>2022-10-19T13:47:04Z</time>
      </trkpt>
      <trkpt lat="43.18503" lon="5.58374">
        <ele>141</ele>
        <time>2022-10-19T13:47:10Z</time>
      </trkpt>
      <trkpt lat="43.18501" lon="5.58367">
        <ele>140.5</ele>
        <time>2022-10-19T13:47:14Z</time>
      </trkpt>
      <trkpt lat="43.18499" lon="5.58361">
        <ele>140.3</ele>
        <time>2022-10-19T13:47:18Z</time>
      </trkpt>
      <trkpt lat="43.18497" lon="5.58353">
        <ele>139.7</ele>
        <time>2022-10-19T13:47:24Z</time>
      </trkpt>
      <trkpt lat="43.18495" lon="5.58345">
        <ele>139.3</ele>
        <time>2022-10-19T13:47:30Z</time>
      </trkpt>
      <trkpt lat="43.18492" lon="5.58338">
        <ele>140.2</ele>
        <time>2022-10-19T13:47:36Z</time>
      </trkpt>
      <trkpt lat="43.1849" lon="5.58331">
        <ele>140.6</ele>
        <time>2022-10-19T13:47:40Z</time>
      </trkpt>
      <trkpt lat="43.18488" lon="5.58323">
        <ele>140.5</ele>
        <time>2022-10-19T13:47:46Z</time>
      </trkpt>
      <trkpt lat="43.18485" lon="5.58317">
        <ele>141</ele>
        <time>2022-10-19T13:47:52Z</time>
      </trkpt>
      <trkpt lat="43.18485" lon="5.58311">
        <ele>139.9</ele>
        <time>2022-10-19T13:47:58Z</time>
      </trkpt>
      <trkpt lat="43.18484" lon="5.58304">
        <ele>139.6</ele>
        <time>2022-10-19T13:48:02Z</time>
      </trkpt>
      <trkpt lat="43.18483" lon="5.58296">
        <ele>139.9</ele>
        <time>2022-10-19T13:48:08Z</time>
      </trkpt>
      <trkpt lat="43.18483" lon="5.58288">
        <ele>140.1</ele>
        <time>2022-10-19T13:48:14Z</time>
      </trkpt>
      <trkpt lat="43.18485" lon="5.58281">
        <ele>140</ele>
        <time>2022-10-19T13:48:20Z</time>
      </trkpt>
      <trkpt lat="43.18488" lon="5.58276">
        <ele>140.2</ele>
        <time>2022-10-19T13:48:26Z</time>
      </trkpt>
      <trkpt lat="43.18493" lon="5.58276">
        <ele>139.5</ele>
        <time>2022-10-19T13:48:34Z</time>
      </trkpt>
      <trkpt lat="43.18498" lon="5.58276">
        <ele>138.7</ele>
        <time>2022-10-19T13:48:44Z</time>
      </trkpt>
      <trkpt lat="43.18503" lon="5.58276">
        <ele>139.1</ele>
        <time>2022-10-19T13:48:50Z</time>
      </trkpt>
      <trkpt lat="43.18507" lon="5.58278">
        <ele>139.7</ele>
        <time>2022-10-19T13:48:58Z</time>
      </trkpt>
      <trkpt lat="43.18513" lon="5.58279">
        <ele>140.4</ele>
        <time>2022-10-19T13:49:06Z</time>
      </trkpt>
      <trkpt lat="43.18518" lon="5.5828">
        <ele>141.2</ele>
        <time>2022-10-19T13:49:14Z</time>
      </trkpt>
      <trkpt lat="43.18523" lon="5.5828">
        <ele>142.3</ele>
        <time>2022-10-19T13:49:20Z</time>
      </trkpt>
      <trkpt lat="43.18529" lon="5.58282">
        <ele>142.7</ele>
        <time>2022-10-19T13:49:28Z</time>
      </trkpt>
      <trkpt lat="43.18533" lon="5.58284">
        <ele>142.8</ele>
        <time>2022-10-19T13:49:38Z</time>
      </trkpt>
      <trkpt lat="43.18538" lon="5.58282">
        <ele>144</ele>
        <time>2022-10-19T13:49:44Z</time>
      </trkpt>
      <trkpt lat="43.18544" lon="5.5828">
        <ele>145.1</ele>
        <time>2022-10-19T13:49:50Z</time>
      </trkpt>
      <trkpt lat="43.18549" lon="5.58279">
        <ele>146</ele>
        <time>2022-10-19T13:49:56Z</time>
      </trkpt>
      <trkpt lat="43.18553" lon="5.58278">
        <ele>146.8</ele>
        <time>2022-10-19T13:50:02Z</time>
      </trkpt>
      <trkpt lat="43.18559" lon="5.58276">
        <ele>147.1</ele>
        <time>2022-10-19T13:50:08Z</time>
      </trkpt>
      <trkpt lat="43.18564" lon="5.58274">
        <ele>147.5</ele>
        <time>2022-10-19T13:50:12Z</time>
      </trkpt>
      <trkpt lat="43.18568" lon="5.5827">
        <ele>147.9</ele>
        <time>2022-10-19T13:50:16Z</time>
      </trkpt>
      <trkpt lat="43.1857" lon="5.58264">
        <ele>149</ele>
        <time>2022-10-19T13:50:22Z</time>
      </trkpt>
      <trkpt lat="43.18574" lon="5.58259">
        <ele>149.5</ele>
        <time>2022-10-19T13:50:28Z</time>
      </trkpt>
      <trkpt lat="43.18577" lon="5.58253">
        <ele>150.2</ele>
        <time>2022-10-19T13:50:34Z</time>
      </trkpt>
      <trkpt lat="43.18579" lon="5.58245">
        <ele>150.7</ele>
        <time>2022-10-19T13:50:40Z</time>
      </trkpt>
      <trkpt lat="43.18582" lon="5.58238">
        <ele>150.6</ele>
        <time>2022-10-19T13:50:46Z</time>
      </trkpt>
      <trkpt lat="43.18584" lon="5.58229">
        <ele>150.7</ele>
        <time>2022-10-19T13:50:52Z</time>
      </trkpt>
      <trkpt lat="43.18585" lon="5.58221">
        <ele>150.4</ele>
        <time>2022-10-19T13:50:58Z</time>
      </trkpt>
      <trkpt lat="43.18586" lon="5.58215">
        <ele>149.8</ele>
        <time>2022-10-19T13:51:02Z</time>
      </trkpt>
      <trkpt lat="43.18587" lon="5.58206">
        <ele>149.4</ele>
        <time>2022-10-19T13:51:08Z</time>
      </trkpt>
      <trkpt lat="43.18587" lon="5.582">
        <ele>149.3</ele>
        <time>2022-10-19T13:51:14Z</time>
      </trkpt>
      <trkpt lat="43.18588" lon="5.58192">
        <ele>148.8</ele>
        <time>2022-10-19T13:51:20Z</time>
      </trkpt>
      <trkpt lat="43.18588" lon="5.58185">
        <ele>148.5</ele>
        <time>2022-10-19T13:51:26Z</time>
      </trkpt>
      <trkpt lat="43.18587" lon="5.58177">
        <ele>148.1</ele>
        <time>2022-10-19T13:51:32Z</time>
      </trkpt>
      <trkpt lat="43.18588" lon="5.5817">
        <ele>147.2</ele>
        <time>2022-10-19T13:51:38Z</time>
      </trkpt>
      <trkpt lat="43.18587" lon="5.58162">
        <ele>147.4</ele>
        <time>2022-10-19T13:51:44Z</time>
      </trkpt>
      <trkpt lat="43.18587" lon="5.58154">
        <ele>147.2</ele>
        <time>2022-10-19T13:51:50Z</time>
      </trkpt>
      <trkpt lat="43.18587" lon="5.58145">
        <ele>147.4</ele>
        <time>2022-10-19T13:51:56Z</time>
      </trkpt>
      <trkpt lat="43.18587" lon="5.58139">
        <ele>147.1</ele>
        <time>2022-10-19T13:52:00Z</time>
      </trkpt>
      <trkpt lat="43.18589" lon="5.5813">
        <ele>146.5</ele>
        <time>2022-10-19T13:52:06Z</time>
      </trkpt>
      <trkpt lat="43.18591" lon="5.58122">
        <ele>146.3</ele>
        <time>2022-10-19T13:52:12Z</time>
      </trkpt>
      <trkpt lat="43.18593" lon="5.58113">
        <ele>145.9</ele>
        <time>2022-10-19T13:52:18Z</time>
      </trkpt>
      <trkpt lat="43.18593" lon="5.58105">
        <ele>145.8</ele>
        <time>2022-10-19T13:52:24Z</time>
      </trkpt>
      <trkpt lat="43.18593" lon="5.58096">
        <ele>146.4</ele>
        <time>2022-10-19T13:52:30Z</time>
      </trkpt>
      <trkpt lat="43.18591" lon="5.5809">
        <ele>147.2</ele>
        <time>2022-10-19T13:52:34Z</time>
      </trkpt>
      <trkpt lat="43.18592" lon="5.58082">
        <ele>146.8</ele>
        <time>2022-10-19T13:52:38Z</time>
      </trkpt>
      <trkpt lat="43.18592" lon="5.58074">
        <ele>146.5</ele>
        <time>2022-10-19T13:52:44Z</time>
      </trkpt>
      <trkpt lat="43.18591" lon="5.58067">
        <ele>146.7</ele>
        <time>2022-10-19T13:52:48Z</time>
      </trkpt>
      <trkpt lat="43.18594" lon="5.5806">
        <ele>144.9</ele>
        <time>2022-10-19T13:52:54Z</time>
      </trkpt>
      <trkpt lat="43.18595" lon="5.58052">
        <ele>144.1</ele>
        <time>2022-10-19T13:53:00Z</time>
      </trkpt>
      <trkpt lat="43.18597" lon="5.58046">
        <ele>143</ele>
        <time>2022-10-19T13:53:04Z</time>
      </trkpt>
      <trkpt lat="43.18595" lon="5.58039">
        <ele>144</ele>
        <time>2022-10-19T13:53:08Z</time>
      </trkpt>
      <trkpt lat="43.18593" lon="5.58032">
        <ele>145.2</ele>
        <time>2022-10-19T13:53:12Z</time>
      </trkpt>
      <trkpt lat="43.18593" lon="5.58025">
        <ele>144.7</ele>
        <time>2022-10-19T13:53:16Z</time>
      </trkpt>
      <trkpt lat="43.18594" lon="5.58018">
        <ele>144.1</ele>
        <time>2022-10-19T13:53:20Z</time>
      </trkpt>
      <trkpt lat="43.18594" lon="5.58011">
        <ele>143.2</ele>
        <time>2022-10-19T13:53:26Z</time>
      </trkpt>
      <trkpt lat="43.18593" lon="5.58004">
        <ele>143.5</ele>
        <time>2022-10-19T13:53:32Z</time>
      </trkpt>
      <trkpt lat="43.18596" lon="5.57995">
        <ele>142</ele>
        <time>2022-10-19T13:53:38Z</time>
      </trkpt>
      <trkpt lat="43.18597" lon="5.57989">
        <ele>141.3</ele>
        <time>2022-10-19T13:53:44Z</time>
      </trkpt>
      <trkpt lat="43.186" lon="5.57981">
        <ele>140.6</ele>
        <time>2022-10-19T13:53:50Z</time>
      </trkpt>
      <trkpt lat="43.186" lon="5.57972">
        <ele>140.9</ele>
        <time>2022-10-19T13:53:56Z</time>
      </trkpt>
      <trkpt lat="43.186" lon="5.57964">
        <ele>141.8</ele>
        <time>2022-10-19T13:54:02Z</time>
      </trkpt>
      <trkpt lat="43.18602" lon="5.57955">
        <ele>141.8</ele>
        <time>2022-10-19T13:54:08Z</time>
      </trkpt>
      <trkpt lat="43.18603" lon="5.57949">
        <ele>142.2</ele>
        <time>2022-10-19T13:54:14Z</time>
      </trkpt>
      <trkpt lat="43.18603" lon="5.57941">
        <ele>142.8</ele>
        <time>2022-10-19T13:54:18Z</time>
      </trkpt>
      <trkpt lat="43.18602" lon="5.57935">
        <ele>143.2</ele>
        <time>2022-10-19T13:54:32Z</time>
      </trkpt>
      <trkpt lat="43.18602" lon="5.57928">
        <ele>143.4</ele>
        <time>2022-10-19T13:55:00Z</time>
      </trkpt>
      <trkpt lat="43.18605" lon="5.57922">
        <ele>143</ele>
        <time>2022-10-19T13:55:08Z</time>
      </trkpt>
      <trkpt lat="43.18606" lon="5.57916">
        <ele>142.9</ele>
        <time>2022-10-19T13:57:18Z</time>
      </trkpt>
      <trkpt lat="43.18606" lon="5.57922">
        <ele>142.8</ele>
        <time>2022-10-19T13:57:56Z</time>
      </trkpt>
      <trkpt lat="43.18605" lon="5.57916">
        <ele>143</ele>
        <time>2022-10-19T14:01:51Z</time>
      </trkpt>
      <trkpt lat="43.1861" lon="5.57918">
        <ele>142.1</ele>
        <time>2022-10-19T14:01:59Z</time>
      </trkpt>
      <trkpt lat="43.18614" lon="5.5792">
        <ele>142.8</ele>
        <time>2022-10-19T14:02:35Z</time>
      </trkpt>
      <trkpt lat="43.18619" lon="5.57919">
        <ele>144.2</ele>
        <time>2022-10-19T14:02:53Z</time>
      </trkpt>
      <trkpt lat="43.18624" lon="5.57914">
        <ele>145.8</ele>
        <time>2022-10-19T14:03:07Z</time>
      </trkpt>
      <trkpt lat="43.18626" lon="5.57908">
        <ele>147.1</ele>
        <time>2022-10-19T14:03:27Z</time>
      </trkpt>
      <trkpt lat="43.18628" lon="5.57902">
        <ele>148.3</ele>
        <time>2022-10-19T14:03:35Z</time>
      </trkpt>
      <trkpt lat="43.1863" lon="5.57897">
        <ele>149.8</ele>
        <time>2022-10-19T14:03:49Z</time>
      </trkpt>
      <trkpt lat="43.18631" lon="5.5789">
        <ele>150.9</ele>
        <time>2022-10-19T14:04:07Z</time>
      </trkpt>
      <trkpt lat="43.18633" lon="5.57884">
        <ele>152.3</ele>
        <time>2022-10-19T14:04:15Z</time>
      </trkpt>
      <trkpt lat="43.18634" lon="5.57878">
        <ele>153.6</ele>
        <time>2022-10-19T14:04:33Z</time>
      </trkpt>
      <trkpt lat="43.18639" lon="5.57882">
        <ele>155.3</ele>
        <time>2022-10-19T14:05:35Z</time>
      </trkpt>
      <trkpt lat="43.18641" lon="5.57888">
        <ele>154.9</ele>
        <time>2022-10-19T14:05:43Z</time>
      </trkpt>
      <trkpt lat="43.18645" lon="5.57892">
        <ele>155.9</ele>
        <time>2022-10-19T14:05:53Z</time>
      </trkpt>
      <trkpt lat="43.1865" lon="5.57893">
        <ele>157.3</ele>
        <time>2022-10-19T14:06:07Z</time>
      </trkpt>
      <trkpt lat="43.18654" lon="5.57891">
        <ele>159.3</ele>
        <time>2022-10-19T14:06:19Z</time>
      </trkpt>
      <trkpt lat="43.18659" lon="5.57892">
        <ele>160.9</ele>
        <time>2022-10-19T14:06:33Z</time>
      </trkpt>
      <trkpt lat="43.18664" lon="5.57892">
        <ele>162.7</ele>
        <time>2022-10-19T14:06:45Z</time>
      </trkpt>
      <trkpt lat="43.18669" lon="5.57891">
        <ele>164.2</ele>
        <time>2022-10-19T14:06:59Z</time>
      </trkpt>
      <trkpt lat="43.18673" lon="5.57887">
        <ele>165.6</ele>
        <time>2022-10-19T14:07:09Z</time>
      </trkpt>
      <trkpt lat="43.18677" lon="5.57883">
        <ele>167.1</ele>
        <time>2022-10-19T14:07:25Z</time>
      </trkpt>
      <trkpt lat="43.18681" lon="5.57879">
        <ele>168.6</ele>
        <time>2022-10-19T14:07:35Z</time>
      </trkpt>
      <trkpt lat="43.18684" lon="5.57873">
        <ele>170</ele>
        <time>2022-10-19T14:07:43Z</time>
      </trkpt>
      <trkpt lat="43.18684" lon="5.57865">
        <ele>171</ele>
        <time>2022-10-19T14:07:51Z</time>
      </trkpt>
      <trkpt lat="43.18685" lon="5.57858">
        <ele>171.7</ele>
        <time>2022-10-19T14:07:59Z</time>
      </trkpt>
      <trkpt lat="43.18685" lon="5.57851">
        <ele>172</ele>
        <time>2022-10-19T14:08:11Z</time>
      </trkpt>
      <trkpt lat="43.18686" lon="5.57845">
        <ele>172.3</ele>
        <time>2022-10-19T14:08:41Z</time>
      </trkpt>
      <trkpt lat="43.18685" lon="5.57837">
        <ele>172.5</ele>
        <time>2022-10-19T14:10:01Z</time>
      </trkpt>
      <trkpt lat="43.18684" lon="5.57831">
        <ele>172.7</ele>
        <time>2022-10-19T14:10:11Z</time>
      </trkpt>
      <trkpt lat="43.18682" lon="5.57825">
        <ele>172.9</ele>
        <time>2022-10-19T14:10:17Z</time>
      </trkpt>
      <trkpt lat="43.18683" lon="5.57819">
        <ele>173.2</ele>
        <time>2022-10-19T14:10:45Z</time>
      </trkpt>
      <trkpt lat="43.18687" lon="5.57815">
        <ele>173</ele>
        <time>2022-10-19T14:10:57Z</time>
      </trkpt>
      <trkpt lat="43.18691" lon="5.57811">
        <ele>172.6</ele>
        <time>2022-10-19T14:11:05Z</time>
      </trkpt>
      <trkpt lat="43.18694" lon="5.57806">
        <ele>172</ele>
        <time>2022-10-19T14:11:15Z</time>
      </trkpt>
      <trkpt lat="43.18698" lon="5.57799">
        <ele>170.6</ele>
        <time>2022-10-19T14:11:23Z</time>
      </trkpt>
      <trkpt lat="43.18703" lon="5.57793">
        <ele>168.8</ele>
        <time>2022-10-19T14:11:31Z</time>
      </trkpt>
      <trkpt lat="43.18708" lon="5.57794">
        <ele>166.7</ele>
        <time>2022-10-19T14:11:43Z</time>
      </trkpt>
      <trkpt lat="43.18711" lon="5.57799">
        <ele>166.1</ele>
        <time>2022-10-19T14:11:49Z</time>
      </trkpt>
      <trkpt lat="43.18713" lon="5.57805">
        <ele>165.9</ele>
        <time>2022-10-19T14:11:59Z</time>
      </trkpt>
      <trkpt lat="43.18716" lon="5.57811">
        <ele>165.7</ele>
        <time>2022-10-19T14:12:07Z</time>
      </trkpt>
      <trkpt lat="43.1872" lon="5.57816">
        <ele>165.1</ele>
        <time>2022-10-19T14:12:17Z</time>
      </trkpt>
      <trkpt lat="43.18725" lon="5.57818">
        <ele>163.6</ele>
        <time>2022-10-19T14:12:25Z</time>
      </trkpt>
      <trkpt lat="43.18729" lon="5.57822">
        <ele>162.2</ele>
        <time>2022-10-19T14:12:33Z</time>
      </trkpt>
      <trkpt lat="43.18733" lon="5.57826">
        <ele>161</ele>
        <time>2022-10-19T14:12:41Z</time>
      </trkpt>
      <trkpt lat="43.18739" lon="5.57829">
        <ele>159.2</ele>
        <time>2022-10-19T14:12:49Z</time>
      </trkpt>
      <trkpt lat="43.18744" lon="5.57829">
        <ele>157</ele>
        <time>2022-10-19T14:12:55Z</time>
      </trkpt>
      <trkpt lat="43.18748" lon="5.57835">
        <ele>156.2</ele>
        <time>2022-10-19T14:13:03Z</time>
      </trkpt>
      <trkpt lat="43.18754" lon="5.57838">
        <ele>155.3</ele>
        <time>2022-10-19T14:13:09Z</time>
      </trkpt>
      <trkpt lat="43.18757" lon="5.57845">
        <ele>156.1</ele>
        <time>2022-10-19T14:14:21Z</time>
      </trkpt>
      <trkpt lat="43.18761" lon="5.57849">
        <ele>155.8</ele>
        <time>2022-10-19T14:14:27Z</time>
      </trkpt>
      <trkpt lat="43.18767" lon="5.57855">
        <ele>155</ele>
        <time>2022-10-19T14:14:33Z</time>
      </trkpt>
      <trkpt lat="43.18771" lon="5.5786">
        <ele>154.7</ele>
        <time>2022-10-19T14:14:39Z</time>
      </trkpt>
      <trkpt lat="43.18776" lon="5.57866">
        <ele>154.2</ele>
        <time>2022-10-19T14:14:45Z</time>
      </trkpt>
      <trkpt lat="43.18779" lon="5.57871">
        <ele>154.3</ele>
        <time>2022-10-19T14:14:49Z</time>
      </trkpt>
      <trkpt lat="43.18782" lon="5.57876">
        <ele>154.6</ele>
        <time>2022-10-19T14:14:53Z</time>
      </trkpt>
      <trkpt lat="43.18786" lon="5.5788">
        <ele>154.6</ele>
        <time>2022-10-19T14:14:57Z</time>
      </trkpt>
      <trkpt lat="43.18792" lon="5.57884">
        <ele>154</ele>
        <time>2022-10-19T14:15:03Z</time>
      </trkpt>
      <trkpt lat="43.18796" lon="5.57887">
        <ele>153.5</ele>
        <time>2022-10-19T14:15:07Z</time>
      </trkpt>
      <trkpt lat="43.18799" lon="5.57892">
        <ele>154</ele>
        <time>2022-10-19T14:15:11Z</time>
      </trkpt>
      <trkpt lat="43.18803" lon="5.57896">
        <ele>154</ele>
        <time>2022-10-19T14:15:15Z</time>
      </trkpt>
      <trkpt lat="43.18807" lon="5.579">
        <ele>154.1</ele>
        <time>2022-10-19T14:15:19Z</time>
      </trkpt>
      <trkpt lat="43.18813" lon="5.57904">
        <ele>153.3</ele>
        <time>2022-10-19T14:15:25Z</time>
      </trkpt>
      <trkpt lat="43.18818" lon="5.57907">
        <ele>152.4</ele>
        <time>2022-10-19T14:15:29Z</time>
      </trkpt>
      <trkpt lat="43.18823" lon="5.57907">
        <ele>150.8</ele>
        <time>2022-10-19T14:15:33Z</time>
      </trkpt>
      <trkpt lat="43.18827" lon="5.5791">
        <ele>150.1</ele>
        <time>2022-10-19T14:15:37Z</time>
      </trkpt>
      <trkpt lat="43.18832" lon="5.57914">
        <ele>149.6</ele>
        <time>2022-10-19T14:15:41Z</time>
      </trkpt>
      <trkpt lat="43.18837" lon="5.57917">
        <ele>148.6</ele>
        <time>2022-10-19T14:15:45Z</time>
      </trkpt>
      <trkpt lat="43.18842" lon="5.57923">
        <ele>148.5</ele>
        <time>2022-10-19T14:15:51Z</time>
      </trkpt>
      <trkpt lat="43.18846" lon="5.57929">
        <ele>148.5</ele>
        <time>2022-10-19T14:15:57Z</time>
      </trkpt>
      <trkpt lat="43.18849" lon="5.57933">
        <ele>148.2</ele>
        <time>2022-10-19T14:16:01Z</time>
      </trkpt>
      <trkpt lat="43.18854" lon="5.57937">
        <ele>147.7</ele>
        <time>2022-10-19T14:16:07Z</time>
      </trkpt>
      <trkpt lat="43.1886" lon="5.5794">
        <ele>146.3</ele>
        <time>2022-10-19T14:16:13Z</time>
      </trkpt>
      <trkpt lat="43.18865" lon="5.57943">
        <ele>145.1</ele>
        <time>2022-10-19T14:16:19Z</time>
      </trkpt>
      <trkpt lat="43.18871" lon="5.57946">
        <ele>143.8</ele>
        <time>2022-10-19T14:16:25Z</time>
      </trkpt>
      <trkpt lat="43.18876" lon="5.5795">
        <ele>143.2</ele>
        <time>2022-10-19T14:16:31Z</time>
      </trkpt>
      <trkpt lat="43.18879" lon="5.57958">
        <ele>144.8</ele>
        <time>2022-10-19T14:16:37Z</time>
      </trkpt>
      <trkpt lat="43.18882" lon="5.57965">
        <ele>146</ele>
        <time>2022-10-19T14:16:43Z</time>
      </trkpt>
      <trkpt lat="43.18887" lon="5.57971">
        <ele>146.4</ele>
        <time>2022-10-19T14:16:49Z</time>
      </trkpt>
      <trkpt lat="43.18893" lon="5.57971">
        <ele>144.4</ele>
        <time>2022-10-19T14:16:55Z</time>
      </trkpt>
      <trkpt lat="43.18898" lon="5.57972">
        <ele>143</ele>
        <time>2022-10-19T14:17:01Z</time>
      </trkpt>
      <trkpt lat="43.18903" lon="5.57976">
        <ele>143</ele>
        <time>2022-10-19T14:17:07Z</time>
      </trkpt>
      <trkpt lat="43.18907" lon="5.57979">
        <ele>142.7</ele>
        <time>2022-10-19T14:17:13Z</time>
      </trkpt>
      <trkpt lat="43.18914" lon="5.57981">
        <ele>141.6</ele>
        <time>2022-10-19T14:17:19Z</time>
      </trkpt>
      <trkpt lat="43.18918" lon="5.57983">
        <ele>141.4</ele>
        <time>2022-10-19T14:17:25Z</time>
      </trkpt>
      <trkpt lat="43.18925" lon="5.57983">
        <ele>141.4</ele>
        <time>2022-10-19T14:17:31Z</time>
      </trkpt>
      <trkpt lat="43.18931" lon="5.57983">
        <ele>141.1</ele>
        <time>2022-10-19T14:17:37Z</time>
      </trkpt>
      <trkpt lat="43.18937" lon="5.57979">
        <ele>139.1</ele>
        <time>2022-10-19T14:17:43Z</time>
      </trkpt>
      <trkpt lat="43.1894" lon="5.57974">
        <ele>137.1</ele>
        <time>2022-10-19T14:17:47Z</time>
      </trkpt>
      <trkpt lat="43.18943" lon="5.57969">
        <ele>136.2</ele>
        <time>2022-10-19T14:17:51Z</time>
      </trkpt>
      <trkpt lat="43.18948" lon="5.57964">
        <ele>135.9</ele>
        <time>2022-10-19T14:17:57Z</time>
      </trkpt>
      <trkpt lat="43.18953" lon="5.5796">
        <ele>135.4</ele>
        <time>2022-10-19T14:18:05Z</time>
      </trkpt>
      <trkpt lat="43.18958" lon="5.5796">
        <ele>134.4</ele>
        <time>2022-10-19T14:18:13Z</time>
      </trkpt>
      <trkpt lat="43.18964" lon="5.57955">
        <ele>133.7</ele>
        <time>2022-10-19T14:18:19Z</time>
      </trkpt>
      <trkpt lat="43.1897" lon="5.57953">
        <ele>132.8</ele>
        <time>2022-10-19T14:18:29Z</time>
      </trkpt>
      <trkpt lat="43.18976" lon="5.57955">
        <ele>132.1</ele>
        <time>2022-10-19T14:18:35Z</time>
      </trkpt>
      <trkpt lat="43.18976" lon="5.57963">
        <ele>131.5</ele>
        <time>2022-10-19T14:18:47Z</time>
      </trkpt>
      <trkpt lat="43.18978" lon="5.57969">
        <ele>131</ele>
        <time>2022-10-19T14:18:53Z</time>
      </trkpt>
      <trkpt lat="43.18978" lon="5.57976">
        <ele>133.5</ele>
        <time>2022-10-19T14:18:59Z</time>
      </trkpt>
      <trkpt lat="43.18978" lon="5.57982">
        <ele>137.9</ele>
        <time>2022-10-19T14:19:15Z</time>
      </trkpt>
      <trkpt lat="43.18982" lon="5.57981">
        <ele>137.5</ele>
        <time>2022-10-19T14:20:07Z</time>
      </trkpt>
      <trkpt lat="43.18988" lon="5.57981">
        <ele>137.7</ele>
        <time>2022-10-19T14:21:25Z</time>
      </trkpt>
      <trkpt lat="43.18984" lon="5.57976">
        <ele>133.9</ele>
        <time>2022-10-19T14:22:23Z</time>
      </trkpt>
      <trkpt lat="43.18989" lon="5.57977">
        <ele>134.7</ele>
        <time>2022-10-19T14:24:57Z</time>
      </trkpt>
      <trkpt lat="43.18985" lon="5.57982">
        <ele>138.6</ele>
        <time>2022-10-19T14:25:17Z</time>
      </trkpt>
      <trkpt lat="43.18986" lon="5.57989">
        <ele>144.2</ele>
        <time>2022-10-19T14:28:45Z</time>
      </trkpt>
      <trkpt lat="43.18989" lon="5.57995">
        <ele>149.2</ele>
        <time>2022-10-19T14:30:15Z</time>
      </trkpt>
      <trkpt lat="43.18987" lon="5.57987">
        <ele>142.7</ele>
        <time>2022-10-19T14:31:37Z</time>
      </trkpt>
      <trkpt lat="43.18989" lon="5.57993">
        <ele>147.8</ele>
        <time>2022-10-19T14:33:07Z</time>
      </trkpt>
      <trkpt lat="43.18987" lon="5.57986">
        <ele>141.7</ele>
        <time>2022-10-19T14:33:27Z</time>
      </trkpt>
      <trkpt lat="43.18988" lon="5.57993">
        <ele>147.7</ele>
        <time>2022-10-19T14:35:23Z</time>
      </trkpt>
      <trkpt lat="43.18993" lon="5.57994">
        <ele>149.4</ele>
        <time>2022-10-19T14:37:01Z</time>
      </trkpt>
      <trkpt lat="43.18991" lon="5.57987">
        <ele>143.6</ele>
        <time>2022-10-19T14:37:23Z</time>
      </trkpt>
      <trkpt lat="43.18987" lon="5.57985">
        <ele>141</ele>
        <time>2022-10-19T14:37:45Z</time>
      </trkpt>
      <trkpt lat="43.18987" lon="5.57992">
        <ele>146.9</ele>
        <time>2022-10-19T14:38:39Z</time>
      </trkpt>
      <trkpt lat="43.18992" lon="5.5799">
        <ele>145.6</ele>
        <time>2022-10-19T14:39:39Z</time>
      </trkpt>
      <trkpt lat="43.18992" lon="5.57982">
        <ele>138.9</ele>
        <time>2022-10-19T14:39:49Z</time>
      </trkpt>
      <trkpt lat="43.18987" lon="5.57978">
        <ele>135.6</ele>
        <time>2022-10-19T14:40:19Z</time>
      </trkpt>
      <trkpt lat="43.18981" lon="5.57976">
        <ele>133.8</ele>
        <time>2022-10-19T14:40:25Z</time>
      </trkpt>
      <trkpt lat="43.18976" lon="5.57976">
        <ele>133.3</ele>
        <time>2022-10-19T14:40:33Z</time>
      </trkpt>
      <trkpt lat="43.1897" lon="5.57975">
        <ele>133.3</ele>
        <time>2022-10-19T14:40:41Z</time>
      </trkpt>
      <trkpt lat="43.18966" lon="5.57973">
        <ele>132.4</ele>
        <time>2022-10-19T14:40:49Z</time>
      </trkpt>
      <trkpt lat="43.18964" lon="5.57979">
        <ele>136.4</ele>
        <time>2022-10-19T14:42:19Z</time>
      </trkpt>
      <trkpt lat="43.18966" lon="5.57985">
        <ele>139.6</ele>
        <time>2022-10-19T14:43:21Z</time>
      </trkpt>
      <trkpt lat="43.18963" lon="5.5799">
        <ele>142.8</ele>
        <time>2022-10-19T14:43:31Z</time>
      </trkpt>
      <trkpt lat="43.18968" lon="5.57989">
        <ele>141.9</ele>
        <time>2022-10-19T14:44:11Z</time>
      </trkpt>
      <trkpt lat="43.18973" lon="5.57989">
        <ele>141.8</ele>
        <time>2022-10-19T14:44:15Z</time>
      </trkpt>
      <trkpt lat="43.18978" lon="5.57989">
        <ele>142.8</ele>
        <time>2022-10-19T14:44:21Z</time>
      </trkpt>
      <trkpt lat="43.18983" lon="5.57985">
        <ele>140.9</ele>
        <time>2022-10-19T14:44:27Z</time>
      </trkpt>
      <trkpt lat="43.18988" lon="5.57982">
        <ele>138.4</ele>
        <time>2022-10-19T14:44:33Z</time>
      </trkpt>
      <trkpt lat="43.1899" lon="5.57975">
        <ele>132.5</ele>
        <time>2022-10-19T14:45:01Z</time>
      </trkpt>
      <trkpt lat="43.18985" lon="5.57976">
        <ele>133.4</ele>
        <time>2022-10-19T14:45:13Z</time>
      </trkpt>
      <trkpt lat="43.18987" lon="5.5797">
        <ele>130.6</ele>
        <time>2022-10-19T14:45:23Z</time>
      </trkpt>
      <trkpt lat="43.18988" lon="5.57963">
        <ele>130.9</ele>
        <time>2022-10-19T14:45:55Z</time>
      </trkpt>
      <trkpt lat="43.18983" lon="5.57963">
        <ele>131.1</ele>
        <time>2022-10-19T14:46:37Z</time>
      </trkpt>
      <trkpt lat="43.1898" lon="5.57967">
        <ele>131</ele>
        <time>2022-10-19T14:46:55Z</time>
      </trkpt>
      <trkpt lat="43.18981" lon="5.57975">
        <ele>132.4</ele>
        <time>2022-10-19T14:47:19Z</time>
      </trkpt>
      <trkpt lat="43.18984" lon="5.57979">
        <ele>135.9</ele>
        <time>2022-10-19T14:47:31Z</time>
      </trkpt>
      <trkpt lat="43.18989" lon="5.57977">
        <ele>134.8</ele>
        <time>2022-10-19T14:47:39Z</time>
      </trkpt>
      <trkpt lat="43.18991" lon="5.57977">
        <ele>134.6</ele>
        <time>2022-10-19T14:48:29Z</time>
      </trkpt>
      <trkpt lat="43.18987" lon="5.57975">
        <ele>132.8</ele>
        <time>2022-10-19T14:48:40Z</time>
      </trkpt>
      <trkpt lat="43.18982" lon="5.57975">
        <ele>132.8</ele>
        <time>2022-10-19T14:48:56Z</time>
      </trkpt>
      <trkpt lat="43.18977" lon="5.57974">
        <ele>131.7</ele>
        <time>2022-10-19T14:49:26Z</time>
      </trkpt>
      <trkpt lat="43.18977" lon="5.5798">
        <ele>136.1</ele>
        <time>2022-10-19T14:49:56Z</time>
      </trkpt>
      <trkpt lat="43.18981" lon="5.57984">
        <ele>139.7</ele>
        <time>2022-10-19T14:50:54Z</time>
      </trkpt>
      <trkpt lat="43.18987" lon="5.57985">
        <ele>140.7</ele>
        <time>2022-10-19T14:50:58Z</time>
      </trkpt>
      <trkpt lat="43.18991" lon="5.57986">
        <ele>142.6</ele>
        <time>2022-10-19T14:51:08Z</time>
      </trkpt>
      <trkpt lat="43.1899" lon="5.57985">
        <ele>141.5</ele>
        <time>2022-10-19T14:55:18Z</time>
      </trkpt>
      <trkpt lat="43.18995" lon="5.57984">
        <ele>141.1</ele>
        <time>2022-10-19T14:58:48Z</time>
      </trkpt>
      <trkpt lat="43.18997" lon="5.57978">
        <ele>136</ele>
        <time>2022-10-19T14:59:16Z</time>
      </trkpt>
      <trkpt lat="43.19002" lon="5.57979">
        <ele>136.6</ele>
        <time>2022-10-19T14:59:28Z</time>
      </trkpt>
      <trkpt lat="43.19003" lon="5.57973">
        <ele>131.1</ele>
        <time>2022-10-19T14:59:44Z</time>
      </trkpt>
      <trkpt lat="43.18999" lon="5.57966">
        <ele>130.3</ele>
        <time>2022-10-19T15:00:00Z</time>
      </trkpt>
      <trkpt lat="43.18997" lon="5.5796">
        <ele>130.6</ele>
        <time>2022-10-19T15:00:06Z</time>
      </trkpt>
      <trkpt lat="43.18998" lon="5.57954">
        <ele>130.8</ele>
        <time>2022-10-19T15:00:12Z</time>
      </trkpt>
      <trkpt lat="43.18993" lon="5.57952">
        <ele>131.2</ele>
        <time>2022-10-19T15:00:54Z</time>
      </trkpt>
      <trkpt lat="43.18992" lon="5.57944">
        <ele>131.5</ele>
        <time>2022-10-19T15:01:02Z</time>
      </trkpt>
      <trkpt lat="43.18992" lon="5.5795">
        <ele>131.3</ele>
        <time>2022-10-19T15:01:22Z</time>
      </trkpt>
      <trkpt lat="43.18992" lon="5.57957">
        <ele>131</ele>
        <time>2022-10-19T15:01:32Z</time>
      </trkpt>
      <trkpt lat="43.1899" lon="5.57962">
        <ele>130.8</ele>
        <time>2022-10-19T15:01:52Z</time>
      </trkpt>
      <trkpt lat="43.18985" lon="5.57962">
        <ele>131.1</ele>
        <time>2022-10-19T15:02:10Z</time>
      </trkpt>
      <trkpt lat="43.18982" lon="5.57967">
        <ele>130.9</ele>
        <time>2022-10-19T15:02:16Z</time>
      </trkpt>
      <trkpt lat="43.18982" lon="5.57974">
        <ele>131.8</ele>
        <time>2022-10-19T15:02:24Z</time>
      </trkpt>
      <trkpt lat="43.18985" lon="5.57979">
        <ele>135.9</ele>
        <time>2022-10-19T15:02:34Z</time>
      </trkpt>
      <trkpt lat="43.1899" lon="5.5798">
        <ele>136.8</ele>
        <time>2022-10-19T15:03:06Z</time>
      </trkpt>
      <trkpt lat="43.18989" lon="5.57985">
        <ele>141.5</ele>
        <time>2022-10-19T15:04:44Z</time>
      </trkpt>
      <trkpt lat="43.18992" lon="5.57989">
        <ele>145.3</ele>
        <time>2022-10-19T15:07:20Z</time>
      </trkpt>
      <trkpt lat="43.18993" lon="5.57983">
        <ele>139.6</ele>
        <time>2022-10-19T15:08:28Z</time>
      </trkpt>
      <trkpt lat="43.18994" lon="5.57977">
        <ele>134.2</ele>
        <time>2022-10-19T15:10:04Z</time>
      </trkpt>
      <trkpt lat="43.18994" lon="5.5797">
        <ele>130.3</ele>
        <time>2022-10-19T15:11:54Z</time>
      </trkpt>
      <trkpt lat="43.18989" lon="5.57968">
        <ele>130.6</ele>
        <time>2022-10-19T15:15:18Z</time>
      </trkpt>
      <trkpt lat="43.18989" lon="5.57975">
        <ele>132.4</ele>
        <time>2022-10-19T15:17:14Z</time>
      </trkpt>
      <trkpt lat="43.18994" lon="5.57976">
        <ele>133.7</ele>
        <time>2022-10-19T15:17:44Z</time>
      </trkpt>
      <trkpt lat="43.18995" lon="5.57968">
        <ele>130.3</ele>
        <time>2022-10-19T15:17:56Z</time>
      </trkpt>
      <trkpt lat="43.18996" lon="5.57961">
        <ele>130.6</ele>
        <time>2022-10-19T15:18:02Z</time>
      </trkpt>
      <trkpt lat="43.18996" lon="5.57954">
        <ele>130.9</ele>
        <time>2022-10-19T15:18:08Z</time>
      </trkpt>
      <trkpt lat="43.18999" lon="5.57948">
        <ele>130.9</ele>
        <time>2022-10-19T15:18:30Z</time>
      </trkpt>
      <trkpt lat="43.19001" lon="5.57943">
        <ele>131.3</ele>
        <time>2022-10-19T15:18:40Z</time>
      </trkpt>
      <trkpt lat="43.19005" lon="5.57948">
        <ele>132</ele>
        <time>2022-10-19T15:18:50Z</time>
      </trkpt>
      <trkpt lat="43.1901" lon="5.57945">
        <ele>133.6</ele>
        <time>2022-10-19T15:18:58Z</time>
      </trkpt>
      <trkpt lat="43.19015" lon="5.5794">
        <ele>133.9</ele>
        <time>2022-10-19T15:19:06Z</time>
      </trkpt>
      <trkpt lat="43.19019" lon="5.57936">
        <ele>134</ele>
        <time>2022-10-19T15:19:12Z</time>
      </trkpt>
      <trkpt lat="43.19021" lon="5.5793">
        <ele>133.1</ele>
        <time>2022-10-19T15:19:20Z</time>
      </trkpt>
      <trkpt lat="43.19023" lon="5.57924">
        <ele>131.8</ele>
        <time>2022-10-19T15:19:34Z</time>
      </trkpt>
      <trkpt lat="43.19028" lon="5.57924">
        <ele>132.2</ele>
        <time>2022-10-19T15:21:44Z</time>
      </trkpt>
      <trkpt lat="43.19032" lon="5.57921">
        <ele>131.2</ele>
        <time>2022-10-19T15:21:52Z</time>
      </trkpt>
      <trkpt lat="43.19036" lon="5.57919">
        <ele>130.3</ele>
        <time>2022-10-19T15:21:58Z</time>
      </trkpt>
      <trkpt lat="43.19041" lon="5.57915">
        <ele>129.2</ele>
        <time>2022-10-19T15:22:08Z</time>
      </trkpt>
      <trkpt lat="43.19046" lon="5.57915">
        <ele>128.9</ele>
        <time>2022-10-19T15:22:18Z</time>
      </trkpt>
      <trkpt lat="43.1905" lon="5.57915">
        <ele>128.8</ele>
        <time>2022-10-19T15:22:34Z</time>
      </trkpt>
      <trkpt lat="43.19055" lon="5.57918">
        <ele>129.4</ele>
        <time>2022-10-19T15:22:42Z</time>
      </trkpt>
      <trkpt lat="43.1906" lon="5.57923">
        <ele>129.7</ele>
        <time>2022-10-19T15:22:50Z</time>
      </trkpt>
      <trkpt lat="43.19064" lon="5.57925">
        <ele>129.4</ele>
        <time>2022-10-19T15:22:58Z</time>
      </trkpt>
      <trkpt lat="43.19069" lon="5.57927">
        <ele>129.1</ele>
        <time>2022-10-19T15:23:04Z</time>
      </trkpt>
      <trkpt lat="43.19074" lon="5.57928">
        <ele>128.5</ele>
        <time>2022-10-19T15:23:10Z</time>
      </trkpt>
      <trkpt lat="43.19079" lon="5.57932">
        <ele>128</ele>
        <time>2022-10-19T15:23:18Z</time>
      </trkpt>
      <trkpt lat="43.19082" lon="5.57939">
        <ele>127.9</ele>
        <time>2022-10-19T15:23:24Z</time>
      </trkpt>
      <trkpt lat="43.19087" lon="5.57944">
        <ele>127.7</ele>
        <time>2022-10-19T15:23:30Z</time>
      </trkpt>
      <trkpt lat="43.19092" lon="5.57949">
        <ele>128.4</ele>
        <time>2022-10-19T15:23:36Z</time>
      </trkpt>
      <trkpt lat="43.19097" lon="5.57951">
        <ele>128.5</ele>
        <time>2022-10-19T15:23:42Z</time>
      </trkpt>
      <trkpt lat="43.19102" lon="5.57955">
        <ele>128.7</ele>
        <time>2022-10-19T15:23:48Z</time>
      </trkpt>
      <trkpt lat="43.19107" lon="5.5796">
        <ele>128.9</ele>
        <time>2022-10-19T15:23:54Z</time>
      </trkpt>
      <trkpt lat="43.19111" lon="5.57965">
        <ele>129</ele>
        <time>2022-10-19T15:24:00Z</time>
      </trkpt>
      <trkpt lat="43.19115" lon="5.5797">
        <ele>128.3</ele>
        <time>2022-10-19T15:24:06Z</time>
      </trkpt>
      <trkpt lat="43.19119" lon="5.57976">
        <ele>127.8</ele>
        <time>2022-10-19T15:24:12Z</time>
      </trkpt>
      <trkpt lat="43.19121" lon="5.57983">
        <ele>127.3</ele>
        <time>2022-10-19T15:24:18Z</time>
      </trkpt>
      <trkpt lat="43.19121" lon="5.5799">
        <ele>127.5</ele>
        <time>2022-10-19T15:24:22Z</time>
      </trkpt>
      <trkpt lat="43.19123" lon="5.57996">
        <ele>127</ele>
        <time>2022-10-19T15:24:28Z</time>
      </trkpt>
      <trkpt lat="43.19123" lon="5.58005">
        <ele>127.3</ele>
        <time>2022-10-19T15:24:34Z</time>
      </trkpt>
      <trkpt lat="43.19124" lon="5.58014">
        <ele>127.4</ele>
        <time>2022-10-19T15:24:40Z</time>
      </trkpt>
      <trkpt lat="43.19125" lon="5.58021">
        <ele>127.6</ele>
        <time>2022-10-19T15:24:46Z</time>
      </trkpt>
      <trkpt lat="43.19127" lon="5.58029">
        <ele>127.6</ele>
        <time>2022-10-19T15:24:52Z</time>
      </trkpt>
      <trkpt lat="43.19129" lon="5.58035">
        <ele>127.2</ele>
        <time>2022-10-19T15:24:58Z</time>
      </trkpt>
      <trkpt lat="43.1913" lon="5.58042">
        <ele>127.1</ele>
        <time>2022-10-19T15:25:02Z</time>
      </trkpt>
      <trkpt lat="43.19132" lon="5.58049">
        <ele>126.6</ele>
        <time>2022-10-19T15:25:06Z</time>
      </trkpt>
      <trkpt lat="43.19135" lon="5.58057">
        <ele>126.1</ele>
        <time>2022-10-19T15:25:12Z</time>
      </trkpt>
      <trkpt lat="43.19137" lon="5.58065">
        <ele>127.3</ele>
        <time>2022-10-19T15:25:18Z</time>
      </trkpt>
      <trkpt lat="43.19139" lon="5.58073">
        <ele>128</ele>
        <time>2022-10-19T15:25:24Z</time>
      </trkpt>
      <trkpt lat="43.19143" lon="5.58082">
        <ele>128.1</ele>
        <time>2022-10-19T15:25:30Z</time>
      </trkpt>
      <trkpt lat="43.19148" lon="5.58089">
        <ele>127.1</ele>
        <time>2022-10-19T15:25:36Z</time>
      </trkpt>
      <trkpt lat="43.19154" lon="5.58093">
        <ele>125.2</ele>
        <time>2022-10-19T15:25:42Z</time>
      </trkpt>
      <trkpt lat="43.19159" lon="5.58097">
        <ele>123.9</ele>
        <time>2022-10-19T15:25:48Z</time>
      </trkpt>
      <trkpt lat="43.19165" lon="5.58101">
        <ele>122.6</ele>
        <time>2022-10-19T15:25:54Z</time>
      </trkpt>
      <trkpt lat="43.19169" lon="5.58107">
        <ele>121.9</ele>
        <time>2022-10-19T15:26:00Z</time>
      </trkpt>
      <trkpt lat="43.19173" lon="5.58112">
        <ele>121.6</ele>
        <time>2022-10-19T15:26:06Z</time>
      </trkpt>
      <trkpt lat="43.19177" lon="5.58117">
        <ele>120.8</ele>
        <time>2022-10-19T15:26:12Z</time>
      </trkpt>
      <trkpt lat="43.19181" lon="5.58124">
        <ele>120.2</ele>
        <time>2022-10-19T15:26:18Z</time>
      </trkpt>
      <trkpt lat="43.19185" lon="5.5813">
        <ele>119.9</ele>
        <time>2022-10-19T15:26:24Z</time>
      </trkpt>
      <trkpt lat="43.1919" lon="5.58138">
        <ele>120.1</ele>
        <time>2022-10-19T15:26:30Z</time>
      </trkpt>
      <trkpt lat="43.19193" lon="5.58143">
        <ele>120.1</ele>
        <time>2022-10-19T15:26:34Z</time>
      </trkpt>
      <trkpt lat="43.19195" lon="5.5815">
        <ele>119.8</ele>
        <time>2022-10-19T15:26:40Z</time>
      </trkpt>
      <trkpt lat="43.19196" lon="5.58158">
        <ele>119.8</ele>
        <time>2022-10-19T15:26:46Z</time>
      </trkpt>
      <trkpt lat="43.19195" lon="5.58165">
        <ele>120</ele>
        <time>2022-10-19T15:26:52Z</time>
      </trkpt>
      <trkpt lat="43.19193" lon="5.58172">
        <ele>120.4</ele>
        <time>2022-10-19T15:26:58Z</time>
      </trkpt>
      <trkpt lat="43.19192" lon="5.58178">
        <ele>120.6</ele>
        <time>2022-10-19T15:27:02Z</time>
      </trkpt>
      <trkpt lat="43.19192" lon="5.58185">
        <ele>120.5</ele>
        <time>2022-10-19T15:27:08Z</time>
      </trkpt>
      <trkpt lat="43.19192" lon="5.58193">
        <ele>120.3</ele>
        <time>2022-10-19T15:27:14Z</time>
      </trkpt>
      <trkpt lat="43.19192" lon="5.58201">
        <ele>119.7</ele>
        <time>2022-10-19T15:27:20Z</time>
      </trkpt>
      <trkpt lat="43.19191" lon="5.58209">
        <ele>119.6</ele>
        <time>2022-10-19T15:27:26Z</time>
      </trkpt>
      <trkpt lat="43.19192" lon="5.58216">
        <ele>118.8</ele>
        <time>2022-10-19T15:27:30Z</time>
      </trkpt>
      <trkpt lat="43.19193" lon="5.58224">
        <ele>117.6</ele>
        <time>2022-10-19T15:27:36Z</time>
      </trkpt>
      <trkpt lat="43.19194" lon="5.58231">
        <ele>117.4</ele>
        <time>2022-10-19T15:27:40Z</time>
      </trkpt>
      <trkpt lat="43.19196" lon="5.58239">
        <ele>117</ele>
        <time>2022-10-19T15:27:46Z</time>
      </trkpt>
      <trkpt lat="43.19196" lon="5.58249">
        <ele>117</ele>
        <time>2022-10-19T15:27:52Z</time>
      </trkpt>
      <trkpt lat="43.19198" lon="5.58257">
        <ele>116.7</ele>
        <time>2022-10-19T15:27:56Z</time>
      </trkpt>
      <trkpt lat="43.19196" lon="5.58266">
        <ele>116.3</ele>
        <time>2022-10-19T15:28:02Z</time>
      </trkpt>
      <trkpt lat="43.19196" lon="5.58274">
        <ele>116</ele>
        <time>2022-10-19T15:28:08Z</time>
      </trkpt>
      <trkpt lat="43.19196" lon="5.58282">
        <ele>115.8</ele>
        <time>2022-10-19T15:28:14Z</time>
      </trkpt>
      <trkpt lat="43.19195" lon="5.58291">
        <ele>115.9</ele>
        <time>2022-10-19T15:28:20Z</time>
      </trkpt>
      <trkpt lat="43.19193" lon="5.58299">
        <ele>116.3</ele>
        <time>2022-10-19T15:28:26Z</time>
      </trkpt>
      <trkpt lat="43.19194" lon="5.58306">
        <ele>116.2</ele>
        <time>2022-10-19T15:28:32Z</time>
      </trkpt>
      <trkpt lat="43.19194" lon="5.58314">
        <ele>116.3</ele>
        <time>2022-10-19T15:28:38Z</time>
      </trkpt>
      <trkpt lat="43.19195" lon="5.58321">
        <ele>116.5</ele>
        <time>2022-10-19T15:28:44Z</time>
      </trkpt>
      <trkpt lat="43.19194" lon="5.58329">
        <ele>116.9</ele>
        <time>2022-10-19T15:28:50Z</time>
      </trkpt>
      <trkpt lat="43.19194" lon="5.58338">
        <ele>117.2</ele>
        <time>2022-10-19T15:28:56Z</time>
      </trkpt>
      <trkpt lat="43.19195" lon="5.58347">
        <ele>117.4</ele>
        <time>2022-10-19T15:29:02Z</time>
      </trkpt>
      <trkpt lat="43.19194" lon="5.58356">
        <ele>117.9</ele>
        <time>2022-10-19T15:29:08Z</time>
      </trkpt>
      <trkpt lat="43.19194" lon="5.58365">
        <ele>118.3</ele>
        <time>2022-10-19T15:29:14Z</time>
      </trkpt>
      <trkpt lat="43.19193" lon="5.58373">
        <ele>118.7</ele>
        <time>2022-10-19T15:29:20Z</time>
      </trkpt>
      <trkpt lat="43.19194" lon="5.58381">
        <ele>118.7</ele>
        <time>2022-10-19T15:29:26Z</time>
      </trkpt>
      <trkpt lat="43.19196" lon="5.5839">
        <ele>118.7</ele>
        <time>2022-10-19T15:29:32Z</time>
      </trkpt>
      <trkpt lat="43.19196" lon="5.58396">
        <ele>118.4</ele>
        <time>2022-10-19T15:29:36Z</time>
      </trkpt>
      <trkpt lat="43.19197" lon="5.58405">
        <ele>117.9</ele>
        <time>2022-10-19T15:29:42Z</time>
      </trkpt>
      <trkpt lat="43.19198" lon="5.58415">
        <ele>117.4</ele>
        <time>2022-10-19T15:29:48Z</time>
      </trkpt>
      <trkpt lat="43.19199" lon="5.58422">
        <ele>117</ele>
        <time>2022-10-19T15:29:54Z</time>
      </trkpt>
      <trkpt lat="43.19198" lon="5.5843">
        <ele>117</ele>
        <time>2022-10-19T15:30:00Z</time>
      </trkpt>
      <trkpt lat="43.19196" lon="5.58438">
        <ele>117</ele>
        <time>2022-10-19T15:30:06Z</time>
      </trkpt>
      <trkpt lat="43.19195" lon="5.58444">
        <ele>117</ele>
        <time>2022-10-19T15:30:10Z</time>
      </trkpt>
      <trkpt lat="43.19192" lon="5.58449">
        <ele>116.9</ele>
        <time>2022-10-19T15:30:14Z</time>
      </trkpt>
      <trkpt lat="43.19189" lon="5.58457">
        <ele>116.6</ele>
        <time>2022-10-19T15:30:20Z</time>
      </trkpt>
      <trkpt lat="43.19187" lon="5.58465">
        <ele>116.2</ele>
        <time>2022-10-19T15:30:26Z</time>
      </trkpt>
      <trkpt lat="43.19185" lon="5.58472">
        <ele>115.7</ele>
        <time>2022-10-19T15:30:32Z</time>
      </trkpt>
      <trkpt lat="43.19182" lon="5.58481">
        <ele>115.3</ele>
        <time>2022-10-19T15:30:38Z</time>
      </trkpt>
      <trkpt lat="43.1918" lon="5.58489">
        <ele>114.9</ele>
        <time>2022-10-19T15:30:44Z</time>
      </trkpt>
      <trkpt lat="43.19177" lon="5.58496">
        <ele>114.5</ele>
        <time>2022-10-19T15:30:50Z</time>
      </trkpt>
      <trkpt lat="43.19175" lon="5.58502">
        <ele>114.2</ele>
        <time>2022-10-19T15:30:54Z</time>
      </trkpt>
      <trkpt lat="43.19174" lon="5.58508">
        <ele>113.8</ele>
        <time>2022-10-19T15:30:58Z</time>
      </trkpt>
      <trkpt lat="43.19171" lon="5.58513">
        <ele>113.6</ele>
        <time>2022-10-19T15:31:02Z</time>
      </trkpt>
      <trkpt lat="43.1917" lon="5.58521">
        <ele>113.1</ele>
        <time>2022-10-19T15:31:08Z</time>
      </trkpt>
      <trkpt lat="43.19167" lon="5.58529">
        <ele>112.7</ele>
        <time>2022-10-19T15:31:14Z</time>
      </trkpt>
      <trkpt lat="43.19164" lon="5.58537">
        <ele>112.3</ele>
        <time>2022-10-19T15:31:20Z</time>
      </trkpt>
      <trkpt lat="43.19161" lon="5.58544">
        <ele>111.9</ele>
        <time>2022-10-19T15:31:26Z</time>
      </trkpt>
      <trkpt lat="43.19157" lon="5.58552">
        <ele>111.5</ele>
        <time>2022-10-19T15:31:32Z</time>
      </trkpt>
      <trkpt lat="43.19155" lon="5.58558">
        <ele>111.2</ele>
        <time>2022-10-19T15:31:36Z</time>
      </trkpt>
      <trkpt lat="43.19152" lon="5.58565">
        <ele>111.2</ele>
        <time>2022-10-19T15:31:42Z</time>
      </trkpt>
      <trkpt lat="43.19148" lon="5.58571">
        <ele>111.4</ele>
        <time>2022-10-19T15:31:48Z</time>
      </trkpt>
      <trkpt lat="43.19147" lon="5.58578">
        <ele>111.3</ele>
        <time>2022-10-19T15:31:52Z</time>
      </trkpt>
      <trkpt lat="43.19146" lon="5.58584">
        <ele>111.2</ele>
        <time>2022-10-19T15:31:56Z</time>
      </trkpt>
      <trkpt lat="43.19143" lon="5.58589">
        <ele>111.2</ele>
        <time>2022-10-19T15:32:00Z</time>
      </trkpt>
      <trkpt lat="43.1914" lon="5.58595">
        <ele>111.1</ele>
        <time>2022-10-19T15:32:04Z</time>
      </trkpt>
      <trkpt lat="43.19136" lon="5.58602">
        <ele>110.8</ele>
        <time>2022-10-19T15:32:10Z</time>
      </trkpt>
      <trkpt lat="43.19132" lon="5.58609">
        <ele>110.4</ele>
        <time>2022-10-19T15:32:16Z</time>
      </trkpt>
      <trkpt lat="43.19127" lon="5.58609">
        <ele>110.6</ele>
        <time>2022-10-19T15:32:22Z</time>
      </trkpt>
      <trkpt lat="43.19123" lon="5.58615">
        <ele>110.3</ele>
        <time>2022-10-19T15:32:26Z</time>
      </trkpt>
      <trkpt lat="43.19121" lon="5.58621">
        <ele>110</ele>
        <time>2022-10-19T15:32:30Z</time>
      </trkpt>
      <trkpt lat="43.19118" lon="5.58626">
        <ele>109.7</ele>
        <time>2022-10-19T15:32:34Z</time>
      </trkpt>
      <trkpt lat="43.19114" lon="5.58631">
        <ele>109.5</ele>
        <time>2022-10-19T15:32:38Z</time>
      </trkpt>
      <trkpt lat="43.19111" lon="5.58637">
        <ele>109.2</ele>
        <time>2022-10-19T15:32:42Z</time>
      </trkpt>
      <trkpt lat="43.19106" lon="5.58642">
        <ele>108.7</ele>
        <time>2022-10-19T15:32:48Z</time>
      </trkpt>
      <trkpt lat="43.19101" lon="5.58647">
        <ele>108.3</ele>
        <time>2022-10-19T15:32:54Z</time>
      </trkpt>
      <trkpt lat="43.19097" lon="5.58652">
        <ele>107.8</ele>
        <time>2022-10-19T15:32:58Z</time>
      </trkpt>
      <trkpt lat="43.19092" lon="5.58658">
        <ele>107.2</ele>
        <time>2022-10-19T15:33:04Z</time>
      </trkpt>
      <trkpt lat="43.19088" lon="5.58664">
        <ele>106.5</ele>
        <time>2022-10-19T15:33:08Z</time>
      </trkpt>
      <trkpt lat="43.19085" lon="5.58669">
        <ele>105.9</ele>
        <time>2022-10-19T15:33:12Z</time>
      </trkpt>
      <trkpt lat="43.19082" lon="5.58676">
        <ele>105.3</ele>
        <time>2022-10-19T15:33:18Z</time>
      </trkpt>
      <trkpt lat="43.19079" lon="5.58682">
        <ele>104.8</ele>
        <time>2022-10-19T15:33:22Z</time>
      </trkpt>
      <trkpt lat="43.19078" lon="5.58688">
        <ele>104.2</ele>
        <time>2022-10-19T15:33:26Z</time>
      </trkpt>
      <trkpt lat="43.19077" lon="5.58694">
        <ele>103.8</ele>
        <time>2022-10-19T15:33:30Z</time>
      </trkpt>
      <trkpt lat="43.19075" lon="5.58703">
        <ele>103</ele>
        <time>2022-10-19T15:33:36Z</time>
      </trkpt>
      <trkpt lat="43.19075" lon="5.5871">
        <ele>102.4</ele>
        <time>2022-10-19T15:33:40Z</time>
      </trkpt>
      <trkpt lat="43.19074" lon="5.58718">
        <ele>101.7</ele>
        <time>2022-10-19T15:33:46Z</time>
      </trkpt>
      <trkpt lat="43.19074" lon="5.58725">
        <ele>101.2</ele>
        <time>2022-10-19T15:33:52Z</time>
      </trkpt>
      <trkpt lat="43.19075" lon="5.58731">
        <ele>101.1</ele>
        <time>2022-10-19T15:33:56Z</time>
      </trkpt>
      <trkpt lat="43.19072" lon="5.58737">
        <ele>100.7</ele>
        <time>2022-10-19T15:34:02Z</time>
      </trkpt>
      <trkpt lat="43.19067" lon="5.58742">
        <ele>100.1</ele>
        <time>2022-10-19T15:34:08Z</time>
      </trkpt>
      <trkpt lat="43.19063" lon="5.5875">
        <ele>99.6</ele>
        <time>2022-10-19T15:34:14Z</time>
      </trkpt>
      <trkpt lat="43.19058" lon="5.58755">
        <ele>99</ele>
        <time>2022-10-19T15:34:20Z</time>
      </trkpt>
      <trkpt lat="43.19054" lon="5.58761">
        <ele>98.5</ele>
        <time>2022-10-19T15:34:24Z</time>
      </trkpt>
      <trkpt lat="43.19049" lon="5.58765">
        <ele>98</ele>
        <time>2022-10-19T15:34:28Z</time>
      </trkpt>
      <trkpt lat="43.19044" lon="5.58767">
        <ele>97.6</ele>
        <time>2022-10-19T15:34:32Z</time>
      </trkpt>
      <trkpt lat="43.1904" lon="5.58771">
        <ele>97.1</ele>
        <time>2022-10-19T15:34:36Z</time>
      </trkpt>
      <trkpt lat="43.19035" lon="5.58776">
        <ele>96.6</ele>
        <time>2022-10-19T15:34:42Z</time>
      </trkpt>
      <trkpt lat="43.19033" lon="5.58781">
        <ele>96.2</ele>
        <time>2022-10-19T15:34:46Z</time>
      </trkpt>
      <trkpt lat="43.19028" lon="5.58785">
        <ele>95.8</ele>
        <time>2022-10-19T15:34:52Z</time>
      </trkpt>
      <trkpt lat="43.19023" lon="5.58787">
        <ele>95.3</ele>
        <time>2022-10-19T15:34:58Z</time>
      </trkpt>
      <trkpt lat="43.19017" lon="5.58789">
        <ele>94.8</ele>
        <time>2022-10-19T15:35:02Z</time>
      </trkpt>
      <trkpt lat="43.19012" lon="5.58791">
        <ele>94.4</ele>
        <time>2022-10-19T15:35:08Z</time>
      </trkpt>
      <trkpt lat="43.19007" lon="5.58791">
        <ele>94</ele>
        <time>2022-10-19T15:35:12Z</time>
      </trkpt>
      <trkpt lat="43.19001" lon="5.5879">
        <ele>93.7</ele>
        <time>2022-10-19T15:35:16Z</time>
      </trkpt>
      <trkpt lat="43.18996" lon="5.5879">
        <ele>93.6</ele>
        <time>2022-10-19T15:35:20Z</time>
      </trkpt>
      <trkpt lat="43.18991" lon="5.58791">
        <ele>93.5</ele>
        <time>2022-10-19T15:35:24Z</time>
      </trkpt>
      <trkpt lat="43.18986" lon="5.58792">
        <ele>93.5</ele>
        <time>2022-10-19T15:35:28Z</time>
      </trkpt>
      <trkpt lat="43.18979" lon="5.58792">
        <ele>93.5</ele>
        <time>2022-10-19T15:35:34Z</time>
      </trkpt>
      <trkpt lat="43.18973" lon="5.58792">
        <ele>93.5</ele>
        <time>2022-10-19T15:35:40Z</time>
      </trkpt>
      <trkpt lat="43.18968" lon="5.58793">
        <ele>93.1</ele>
        <time>2022-10-19T15:35:44Z</time>
      </trkpt>
      <trkpt lat="43.18963" lon="5.58797">
        <ele>92.5</ele>
        <time>2022-10-19T15:35:48Z</time>
      </trkpt>
      <trkpt lat="43.18957" lon="5.58802">
        <ele>91.6</ele>
        <time>2022-10-19T15:35:54Z</time>
      </trkpt>
      <trkpt lat="43.18953" lon="5.58805">
        <ele>90.9</ele>
        <time>2022-10-19T15:35:58Z</time>
      </trkpt>
      <trkpt lat="43.18948" lon="5.58809">
        <ele>90.3</ele>
        <time>2022-10-19T15:36:04Z</time>
      </trkpt>
      <trkpt lat="43.18944" lon="5.58814">
        <ele>89.4</ele>
        <time>2022-10-19T15:36:10Z</time>
      </trkpt>
      <trkpt lat="43.1894" lon="5.58821">
        <ele>87.7</ele>
        <time>2022-10-19T15:36:16Z</time>
      </trkpt>
      <trkpt lat="43.18936" lon="5.58828">
        <ele>86.1</ele>
        <time>2022-10-19T15:36:22Z</time>
      </trkpt>
      <trkpt lat="43.18933" lon="5.58833">
        <ele>85.1</ele>
        <time>2022-10-19T15:36:26Z</time>
      </trkpt>
      <trkpt lat="43.18931" lon="5.58841">
        <ele>83.8</ele>
        <time>2022-10-19T15:36:32Z</time>
      </trkpt>
      <trkpt lat="43.18927" lon="5.58848">
        <ele>82.2</ele>
        <time>2022-10-19T15:36:38Z</time>
      </trkpt>
      <trkpt lat="43.18925" lon="5.58856">
        <ele>81.1</ele>
        <time>2022-10-19T15:36:44Z</time>
      </trkpt>
      <trkpt lat="43.18924" lon="5.58865">
        <ele>80.4</ele>
        <time>2022-10-19T15:36:50Z</time>
      </trkpt>
      <trkpt lat="43.18924" lon="5.58874">
        <ele>79.5</ele>
        <time>2022-10-19T15:36:56Z</time>
      </trkpt>
      <trkpt lat="43.18922" lon="5.58881">
        <ele>78.5</ele>
        <time>2022-10-19T15:37:00Z</time>
      </trkpt>
      <trkpt lat="43.18921" lon="5.58888">
        <ele>77.6</ele>
        <time>2022-10-19T15:37:04Z</time>
      </trkpt>
      <trkpt lat="43.18921" lon="5.58896">
        <ele>77</ele>
        <time>2022-10-19T15:37:08Z</time>
      </trkpt>
      <trkpt lat="43.1892" lon="5.58902">
        <ele>76.1</ele>
        <time>2022-10-19T15:37:14Z</time>
      </trkpt>
      <trkpt lat="43.18918" lon="5.58909">
        <ele>74.9</ele>
        <time>2022-10-19T15:37:20Z</time>
      </trkpt>
      <trkpt lat="43.18917" lon="5.58916">
        <ele>74.3</ele>
        <time>2022-10-19T15:37:24Z</time>
      </trkpt>
      <trkpt lat="43.18917" lon="5.58924">
        <ele>73.9</ele>
        <time>2022-10-19T15:37:28Z</time>
      </trkpt>
      <trkpt lat="43.18918" lon="5.58933">
        <ele>73.7</ele>
        <time>2022-10-19T15:37:34Z</time>
      </trkpt>
      <trkpt lat="43.1892" lon="5.58939">
        <ele>73.7</ele>
        <time>2022-10-19T15:37:38Z</time>
      </trkpt>
      <trkpt lat="43.18922" lon="5.58946">
        <ele>73.6</ele>
        <time>2022-10-19T15:37:42Z</time>
      </trkpt>
      <trkpt lat="43.18923" lon="5.58953">
        <ele>74.3</ele>
        <time>2022-10-19T15:37:46Z</time>
      </trkpt>
      <trkpt lat="43.18926" lon="5.58961">
        <ele>74.8</ele>
        <time>2022-10-19T15:37:50Z</time>
      </trkpt>
      <trkpt lat="43.18928" lon="5.58968">
        <ele>75</ele>
        <time>2022-10-19T15:37:54Z</time>
      </trkpt>
      <trkpt lat="43.1893" lon="5.58976">
        <ele>74.5</ele>
        <time>2022-10-19T15:38:00Z</time>
      </trkpt>
      <trkpt lat="43.18933" lon="5.58983">
        <ele>73.2</ele>
        <time>2022-10-19T15:38:04Z</time>
      </trkpt>
      <trkpt lat="43.18937" lon="5.5899">
        <ele>71.2</ele>
        <time>2022-10-19T15:38:10Z</time>
      </trkpt>
      <trkpt lat="43.18939" lon="5.58997">
        <ele>69.6</ele>
        <time>2022-10-19T15:38:14Z</time>
      </trkpt>
      <trkpt lat="43.18939" lon="5.59005">
        <ele>68.4</ele>
        <time>2022-10-19T15:38:20Z</time>
      </trkpt>
      <trkpt lat="43.1894" lon="5.59013">
        <ele>67.4</ele>
        <time>2022-10-19T15:38:26Z</time>
      </trkpt>
      <trkpt lat="43.18941" lon="5.5902">
        <ele>66.5</ele>
        <time>2022-10-19T15:38:30Z</time>
      </trkpt>
      <trkpt lat="43.18939" lon="5.59029">
        <ele>66</ele>
        <time>2022-10-19T15:38:34Z</time>
      </trkpt>
      <trkpt lat="43.18937" lon="5.59038">
        <ele>65.1</ele>
        <time>2022-10-19T15:38:38Z</time>
      </trkpt>
      <trkpt lat="43.18934" lon="5.59045">
        <ele>64.8</ele>
        <time>2022-10-19T15:38:42Z</time>
      </trkpt>
      <trkpt lat="43.18933" lon="5.59051">
        <ele>64.1</ele>
        <time>2022-10-19T15:38:46Z</time>
      </trkpt>
      <trkpt lat="43.18931" lon="5.59057">
        <ele>64</ele>
        <time>2022-10-19T15:38:50Z</time>
      </trkpt>
      <trkpt lat="43.1893" lon="5.59064">
        <ele>64.1</ele>
        <time>2022-10-19T15:38:56Z</time>
      </trkpt>
      <trkpt lat="43.18931" lon="5.59073">
        <ele>64</ele>
        <time>2022-10-19T15:39:02Z</time>
      </trkpt>
      <trkpt lat="43.1893" lon="5.59079">
        <ele>64.1</ele>
        <time>2022-10-19T15:39:06Z</time>
      </trkpt>
      <trkpt lat="43.18929" lon="5.59086">
        <ele>64.4</ele>
        <time>2022-10-19T15:39:12Z</time>
      </trkpt>
      <trkpt lat="43.18928" lon="5.59093">
        <ele>64.7</ele>
        <time>2022-10-19T15:39:18Z</time>
      </trkpt>
      <trkpt lat="43.18927" lon="5.59099">
        <ele>64.9</ele>
        <time>2022-10-19T15:39:24Z</time>
      </trkpt>
      <trkpt lat="43.18927" lon="5.59106">
        <ele>65.1</ele>
        <time>2022-10-19T15:39:30Z</time>
      </trkpt>
      <trkpt lat="43.18924" lon="5.59112">
        <ele>64.6</ele>
        <time>2022-10-19T15:39:34Z</time>
      </trkpt>
      <trkpt lat="43.18922" lon="5.59117">
        <ele>63.9</ele>
        <time>2022-10-19T15:39:38Z</time>
      </trkpt>
      <trkpt lat="43.18919" lon="5.59123">
        <ele>62.6</ele>
        <time>2022-10-19T15:39:42Z</time>
      </trkpt>
      <trkpt lat="43.18915" lon="5.5913">
        <ele>61.3</ele>
        <time>2022-10-19T15:39:46Z</time>
      </trkpt>
      <trkpt lat="43.18912" lon="5.59135">
        <ele>61.3</ele>
        <time>2022-10-19T15:39:50Z</time>
      </trkpt>
      <trkpt lat="43.18909" lon="5.59141">
        <ele>61.6</ele>
        <time>2022-10-19T15:39:54Z</time>
      </trkpt>
      <trkpt lat="43.18906" lon="5.59147">
        <ele>62.4</ele>
        <time>2022-10-19T15:39:58Z</time>
      </trkpt>
      <trkpt lat="43.18902" lon="5.59154">
        <ele>62.5</ele>
        <time>2022-10-19T15:40:04Z</time>
      </trkpt>
      <trkpt lat="43.18899" lon="5.59162">
        <ele>61.6</ele>
        <time>2022-10-19T15:40:10Z</time>
      </trkpt>
      <trkpt lat="43.18895" lon="5.59167">
        <ele>60.2</ele>
        <time>2022-10-19T15:40:14Z</time>
      </trkpt>
      <trkpt lat="43.18891" lon="5.59172">
        <ele>59.2</ele>
        <time>2022-10-19T15:40:18Z</time>
      </trkpt>
      <trkpt lat="43.18887" lon="5.59176">
        <ele>59.3</ele>
        <time>2022-10-19T15:40:22Z</time>
      </trkpt>
      <trkpt lat="43.18884" lon="5.59182">
        <ele>59.9</ele>
        <time>2022-10-19T15:40:26Z</time>
      </trkpt>
      <trkpt lat="43.18878" lon="5.59187">
        <ele>60.1</ele>
        <time>2022-10-19T15:40:32Z</time>
      </trkpt>
      <trkpt lat="43.18873" lon="5.59193">
        <ele>59.4</ele>
        <time>2022-10-19T15:40:38Z</time>
      </trkpt>
      <trkpt lat="43.18868" lon="5.59198">
        <ele>59.2</ele>
        <time>2022-10-19T15:40:44Z</time>
      </trkpt>
      <trkpt lat="43.18864" lon="5.59202">
        <ele>59</ele>
        <time>2022-10-19T15:40:48Z</time>
      </trkpt>
      <trkpt lat="43.1886" lon="5.59207">
        <ele>58.9</ele>
        <time>2022-10-19T15:40:52Z</time>
      </trkpt>
      <trkpt lat="43.18855" lon="5.59209">
        <ele>59</ele>
        <time>2022-10-19T15:40:56Z</time>
      </trkpt>
      <trkpt lat="43.18851" lon="5.59211">
        <ele>58.8</ele>
        <time>2022-10-19T15:41:00Z</time>
      </trkpt>
      <trkpt lat="43.18847" lon="5.59215">
        <ele>58.3</ele>
        <time>2022-10-19T15:41:04Z</time>
      </trkpt>
      <trkpt lat="43.18844" lon="5.5922">
        <ele>57.2</ele>
        <time>2022-10-19T15:41:08Z</time>
      </trkpt>
      <trkpt lat="43.1884" lon="5.59225">
        <ele>56.9</ele>
        <time>2022-10-19T15:41:12Z</time>
      </trkpt>
      <trkpt lat="43.18837" lon="5.59229">
        <ele>57.4</ele>
        <time>2022-10-19T15:41:16Z</time>
      </trkpt>
      <trkpt lat="43.18832" lon="5.59232">
        <ele>57.4</ele>
        <time>2022-10-19T15:41:20Z</time>
      </trkpt>
      <trkpt lat="43.18827" lon="5.59233">
        <ele>57.8</ele>
        <time>2022-10-19T15:41:24Z</time>
      </trkpt>
      <trkpt lat="43.1882" lon="5.59237">
        <ele>58.1</ele>
        <time>2022-10-19T15:41:30Z</time>
      </trkpt>
      <trkpt lat="43.18815" lon="5.5924">
        <ele>57.9</ele>
        <time>2022-10-19T15:41:34Z</time>
      </trkpt>
      <trkpt lat="43.1881" lon="5.59243">
        <ele>57.4</ele>
        <time>2022-10-19T15:41:38Z</time>
      </trkpt>
      <trkpt lat="43.18805" lon="5.59246">
        <ele>56.5</ele>
        <time>2022-10-19T15:41:42Z</time>
      </trkpt>
      <trkpt lat="43.18799" lon="5.59251">
        <ele>55.6</ele>
        <time>2022-10-19T15:41:48Z</time>
      </trkpt>
      <trkpt lat="43.18793" lon="5.59254">
        <ele>55.9</ele>
        <time>2022-10-19T15:41:54Z</time>
      </trkpt>
      <trkpt lat="43.18787" lon="5.59258">
        <ele>55.9</ele>
        <time>2022-10-19T15:42:00Z</time>
      </trkpt>
      <trkpt lat="43.18781" lon="5.59261">
        <ele>55.6</ele>
        <time>2022-10-19T15:42:06Z</time>
      </trkpt>
      <trkpt lat="43.18776" lon="5.59263">
        <ele>55.5</ele>
        <time>2022-10-19T15:42:10Z</time>
      </trkpt>
      <trkpt lat="43.18771" lon="5.59264">
        <ele>56</ele>
        <time>2022-10-19T15:42:14Z</time>
      </trkpt>
      <trkpt lat="43.18766" lon="5.59269">
        <ele>56</ele>
        <time>2022-10-19T15:42:22Z</time>
      </trkpt>
      <trkpt lat="43.18762" lon="5.59272">
        <ele>55.6</ele>
        <time>2022-10-19T15:42:26Z</time>
      </trkpt>
      <trkpt lat="43.18757" lon="5.59275">
        <ele>54.7</ele>
        <time>2022-10-19T15:42:30Z</time>
      </trkpt>
      <trkpt lat="43.18754" lon="5.59279">
        <ele>53.5</ele>
        <time>2022-10-19T15:42:34Z</time>
      </trkpt>
      <trkpt lat="43.18751" lon="5.59285">
        <ele>52.9</ele>
        <time>2022-10-19T15:42:40Z</time>
      </trkpt>
      <trkpt lat="43.1875" lon="5.59293">
        <ele>52.5</ele>
        <time>2022-10-19T15:42:46Z</time>
      </trkpt>
      <trkpt lat="43.18747" lon="5.59298">
        <ele>53</ele>
        <time>2022-10-19T15:42:50Z</time>
      </trkpt>
      <trkpt lat="43.18744" lon="5.59304">
        <ele>53.1</ele>
        <time>2022-10-19T15:42:56Z</time>
      </trkpt>
      <trkpt lat="43.1874" lon="5.59309">
        <ele>53.8</ele>
        <time>2022-10-19T15:43:00Z</time>
      </trkpt>
      <trkpt lat="43.18736" lon="5.59314">
        <ele>54.2</ele>
        <time>2022-10-19T15:43:04Z</time>
      </trkpt>
      <trkpt lat="43.18731" lon="5.59318">
        <ele>54.2</ele>
        <time>2022-10-19T15:43:08Z</time>
      </trkpt>
      <trkpt lat="43.18729" lon="5.59324">
        <ele>53.4</ele>
        <time>2022-10-19T15:43:12Z</time>
      </trkpt>
      <trkpt lat="43.18726" lon="5.5933">
        <ele>52.2</ele>
        <time>2022-10-19T15:43:16Z</time>
      </trkpt>
      <trkpt lat="43.18724" lon="5.59337">
        <ele>51.9</ele>
        <time>2022-10-19T15:43:20Z</time>
      </trkpt>
      <trkpt lat="43.18718" lon="5.59344">
        <ele>52.5</ele>
        <time>2022-10-19T15:43:26Z</time>
      </trkpt>
      <trkpt lat="43.18713" lon="5.59348">
        <ele>52.7</ele>
        <time>2022-10-19T15:43:32Z</time>
      </trkpt>
      <trkpt lat="43.18708" lon="5.59353">
        <ele>52.5</ele>
        <time>2022-10-19T15:43:38Z</time>
      </trkpt>
      <trkpt lat="43.18704" lon="5.59359">
        <ele>51.8</ele>
        <time>2022-10-19T15:43:44Z</time>
      </trkpt>
      <trkpt lat="43.18699" lon="5.59363">
        <ele>51.1</ele>
        <time>2022-10-19T15:43:50Z</time>
      </trkpt>
      <trkpt lat="43.18695" lon="5.59366">
        <ele>50.5</ele>
        <time>2022-10-19T15:43:54Z</time>
      </trkpt>
      <trkpt lat="43.18689" lon="5.59369">
        <ele>51.2</ele>
        <time>2022-10-19T15:43:58Z</time>
      </trkpt>
      <trkpt lat="43.18683" lon="5.59373">
        <ele>51.5</ele>
        <time>2022-10-19T15:44:06Z</time>
      </trkpt>
      <trkpt lat="43.18678" lon="5.59378">
        <ele>51.3</ele>
        <time>2022-10-19T15:44:10Z</time>
      </trkpt>
      <trkpt lat="43.18675" lon="5.59383">
        <ele>50.7</ele>
        <time>2022-10-19T15:44:14Z</time>
      </trkpt>
      <trkpt lat="43.18672" lon="5.59388">
        <ele>49.8</ele>
        <time>2022-10-19T15:44:18Z</time>
      </trkpt>
      <trkpt lat="43.18669" lon="5.59394">
        <ele>49.2</ele>
        <time>2022-10-19T15:44:22Z</time>
      </trkpt>
      <trkpt lat="43.18666" lon="5.594">
        <ele>48.7</ele>
        <time>2022-10-19T15:44:26Z</time>
      </trkpt>
      <trkpt lat="43.18665" lon="5.59408">
        <ele>48.6</ele>
        <time>2022-10-19T15:44:32Z</time>
      </trkpt>
      <trkpt lat="43.18663" lon="5.59415">
        <ele>48.9</ele>
        <time>2022-10-19T15:44:38Z</time>
      </trkpt>
      <trkpt lat="43.18664" lon="5.59423">
        <ele>48.6</ele>
        <time>2022-10-19T15:44:42Z</time>
      </trkpt>
      <trkpt lat="43.18665" lon="5.59431">
        <ele>48.4</ele>
        <time>2022-10-19T15:44:48Z</time>
      </trkpt>
      <trkpt lat="43.18666" lon="5.59439">
        <ele>48.1</ele>
        <time>2022-10-19T15:44:52Z</time>
      </trkpt>
      <trkpt lat="43.18666" lon="5.59445">
        <ele>48.2</ele>
        <time>2022-10-19T15:44:56Z</time>
      </trkpt>
      <trkpt lat="43.18664" lon="5.59452">
        <ele>48.6</ele>
        <time>2022-10-19T15:45:00Z</time>
      </trkpt>
      <trkpt lat="43.18663" lon="5.59459">
        <ele>48.8</ele>
        <time>2022-10-19T15:45:04Z</time>
      </trkpt>
      <trkpt lat="43.18661" lon="5.59466">
        <ele>49</ele>
        <time>2022-10-19T15:45:08Z</time>
      </trkpt>
      <trkpt lat="43.18658" lon="5.59472">
        <ele>49</ele>
        <time>2022-10-19T15:45:12Z</time>
      </trkpt>
      <trkpt lat="43.18657" lon="5.59479">
        <ele>50.1</ele>
        <time>2022-10-19T15:45:16Z</time>
      </trkpt>
      <trkpt lat="43.18652" lon="5.59484">
        <ele>50.2</ele>
        <time>2022-10-19T15:45:20Z</time>
      </trkpt>
      <trkpt lat="43.18647" lon="5.59487">
        <ele>49.4</ele>
        <time>2022-10-19T15:45:26Z</time>
      </trkpt>
      <trkpt lat="43.18642" lon="5.5949">
        <ele>48.4</ele>
        <time>2022-10-19T15:45:30Z</time>
      </trkpt>
      <trkpt lat="43.18638" lon="5.59494">
        <ele>47.5</ele>
        <time>2022-10-19T15:45:34Z</time>
      </trkpt>
      <trkpt lat="43.18634" lon="5.59497">
        <ele>47.2</ele>
        <time>2022-10-19T15:45:38Z</time>
      </trkpt>
      <trkpt lat="43.18628" lon="5.59501">
        <ele>47</ele>
        <time>2022-10-19T15:45:42Z</time>
      </trkpt>
      <trkpt lat="43.18623" lon="5.59504">
        <ele>47.1</ele>
        <time>2022-10-19T15:45:46Z</time>
      </trkpt>
      <trkpt lat="43.1862" lon="5.59507">
        <ele>47</ele>
        <time>2022-10-19T15:45:50Z</time>
      </trkpt>
      <trkpt lat="43.18615" lon="5.5951">
        <ele>46.7</ele>
        <time>2022-10-19T15:45:54Z</time>
      </trkpt>
      <trkpt lat="43.1861" lon="5.59513">
        <ele>46.1</ele>
        <time>2022-10-19T15:45:58Z</time>
      </trkpt>
      <trkpt lat="43.18605" lon="5.59515">
        <ele>45.9</ele>
        <time>2022-10-19T15:46:02Z</time>
      </trkpt>
      <trkpt lat="43.18599" lon="5.59516">
        <ele>45.8</ele>
        <time>2022-10-19T15:46:08Z</time>
      </trkpt>
      <trkpt lat="43.18595" lon="5.59518">
        <ele>45.5</ele>
        <time>2022-10-19T15:46:14Z</time>
      </trkpt>
      <trkpt lat="43.1859" lon="5.59522">
        <ele>45</ele>
        <time>2022-10-19T15:46:20Z</time>
      </trkpt>
      <trkpt lat="43.18586" lon="5.59524">
        <ele>44.7</ele>
        <time>2022-10-19T15:46:24Z</time>
      </trkpt>
      <trkpt lat="43.1858" lon="5.59527">
        <ele>44.6</ele>
        <time>2022-10-19T15:46:30Z</time>
      </trkpt>
      <trkpt lat="43.18575" lon="5.5953">
        <ele>45.3</ele>
        <time>2022-10-19T15:46:34Z</time>
      </trkpt>
      <trkpt lat="43.1857" lon="5.59533">
        <ele>45.9</ele>
        <time>2022-10-19T15:46:40Z</time>
      </trkpt>
      <trkpt lat="43.18565" lon="5.59537">
        <ele>46</ele>
        <time>2022-10-19T15:46:44Z</time>
      </trkpt>
      <trkpt lat="43.1856" lon="5.5954">
        <ele>45.8</ele>
        <time>2022-10-19T15:46:48Z</time>
      </trkpt>
      <trkpt lat="43.18556" lon="5.59545">
        <ele>44.9</ele>
        <time>2022-10-19T15:46:52Z</time>
      </trkpt>
      <trkpt lat="43.18552" lon="5.5955">
        <ele>44.5</ele>
        <time>2022-10-19T15:46:56Z</time>
      </trkpt>
      <trkpt lat="43.18548" lon="5.59555">
        <ele>44.2</ele>
        <time>2022-10-19T15:47:00Z</time>
      </trkpt>
      <trkpt lat="43.18544" lon="5.59559">
        <ele>44.7</ele>
        <time>2022-10-19T15:47:04Z</time>
      </trkpt>
      <trkpt lat="43.1854" lon="5.59563">
        <ele>45.1</ele>
        <time>2022-10-19T15:47:08Z</time>
      </trkpt>
      <trkpt lat="43.18535" lon="5.59565">
        <ele>45.3</ele>
        <time>2022-10-19T15:47:12Z</time>
      </trkpt>
      <trkpt lat="43.1853" lon="5.59568">
        <ele>45.2</ele>
        <time>2022-10-19T15:47:18Z</time>
      </trkpt>
      <trkpt lat="43.18527" lon="5.59572">
        <ele>44.9</ele>
        <time>2022-10-19T15:47:26Z</time>
      </trkpt>
      <trkpt lat="43.18522" lon="5.59574">
        <ele>45.5</ele>
        <time>2022-10-19T15:47:34Z</time>
      </trkpt>
      <trkpt lat="43.18517" lon="5.59577">
        <ele>45.8</ele>
        <time>2022-10-19T15:47:42Z</time>
      </trkpt>
      <trkpt lat="43.18514" lon="5.59582">
        <ele>45.2</ele>
        <time>2022-10-19T15:47:46Z</time>
      </trkpt>
      <trkpt lat="43.1851" lon="5.59588">
        <ele>45.3</ele>
        <time>2022-10-19T15:47:50Z</time>
      </trkpt>
      <trkpt lat="43.18505" lon="5.5959">
        <ele>45.6</ele>
        <time>2022-10-19T15:47:54Z</time>
      </trkpt>
      <trkpt lat="43.185" lon="5.59596">
        <ele>45.2</ele>
        <time>2022-10-19T15:48:00Z</time>
      </trkpt>
      <trkpt lat="43.18497" lon="5.59601">
        <ele>45.4</ele>
        <time>2022-10-19T15:48:04Z</time>
      </trkpt>
      <trkpt lat="43.18494" lon="5.59608">
        <ele>45.2</ele>
        <time>2022-10-19T15:48:10Z</time>
      </trkpt>
      <trkpt lat="43.18491" lon="5.59614">
        <ele>45.2</ele>
        <time>2022-10-19T15:48:14Z</time>
      </trkpt>
      <trkpt lat="43.18488" lon="5.59619">
        <ele>45.5</ele>
        <time>2022-10-19T15:48:18Z</time>
      </trkpt>
      <trkpt lat="43.18484" lon="5.59622">
        <ele>46.1</ele>
        <time>2022-10-19T15:48:22Z</time>
      </trkpt>
      <trkpt lat="43.18481" lon="5.59626">
        <ele>46.4</ele>
        <time>2022-10-19T15:48:26Z</time>
      </trkpt>
      <trkpt lat="43.18477" lon="5.59634">
        <ele>45.8</ele>
        <time>2022-10-19T15:48:32Z</time>
      </trkpt>
      <trkpt lat="43.18474" lon="5.5964">
        <ele>45.5</ele>
        <time>2022-10-19T15:48:38Z</time>
      </trkpt>
      <trkpt lat="43.18469" lon="5.59644">
        <ele>45.7</ele>
        <time>2022-10-19T15:48:44Z</time>
      </trkpt>
      <trkpt lat="43.18466" lon="5.59649">
        <ele>45.6</ele>
        <time>2022-10-19T15:48:48Z</time>
      </trkpt>
      <trkpt lat="43.18462" lon="5.59652">
        <ele>45.8</ele>
        <time>2022-10-19T15:48:52Z</time>
      </trkpt>
      <trkpt lat="43.1846" lon="5.59654">
        <ele>45.8</ele>
        <time>2022-10-19T15:48:54Z</time>
      </trkpt>
      <trkpt lat="43.18454" lon="5.59657">
        <ele>46.2</ele>
        <time>2022-10-19T15:49:00Z</time>
      </trkpt>
      <trkpt lat="43.1845" lon="5.59659">
        <ele>46.6</ele>
        <time>2022-10-19T15:49:04Z</time>
      </trkpt>
      <trkpt lat="43.18444" lon="5.5966">
        <ele>47.3</ele>
        <time>2022-10-19T15:49:10Z</time>
      </trkpt>
      <trkpt lat="43.18439" lon="5.59663">
        <ele>47.9</ele>
        <time>2022-10-19T15:49:14Z</time>
      </trkpt>
      <trkpt lat="43.18433" lon="5.59667">
        <ele>48.4</ele>
        <time>2022-10-19T15:49:20Z</time>
      </trkpt>
      <trkpt lat="43.18429" lon="5.5967">
        <ele>48.8</ele>
        <time>2022-10-19T15:49:24Z</time>
      </trkpt>
      <trkpt lat="43.18424" lon="5.59675">
        <ele>49.1</ele>
        <time>2022-10-19T15:49:30Z</time>
      </trkpt>
      <trkpt lat="43.18419" lon="5.5968">
        <ele>49.7</ele>
        <time>2022-10-19T15:49:36Z</time>
      </trkpt>
      <trkpt lat="43.18414" lon="5.59685">
        <ele>49.7</ele>
        <time>2022-10-19T15:49:42Z</time>
      </trkpt>
      <trkpt lat="43.18411" lon="5.59692">
        <ele>49.3</ele>
        <time>2022-10-19T15:49:48Z</time>
      </trkpt>
      <trkpt lat="43.18409" lon="5.597">
        <ele>49.3</ele>
        <time>2022-10-19T15:49:54Z</time>
      </trkpt>
      <trkpt lat="43.18409" lon="5.59708">
        <ele>49</ele>
        <time>2022-10-19T15:49:58Z</time>
      </trkpt>
      <trkpt lat="43.18408" lon="5.59716">
        <ele>49</ele>
        <time>2022-10-19T15:50:04Z</time>
      </trkpt>
      <trkpt lat="43.18406" lon="5.59725">
        <ele>49.4</ele>
        <time>2022-10-19T15:50:10Z</time>
      </trkpt>
      <trkpt lat="43.18406" lon="5.59733">
        <ele>49.9</ele>
        <time>2022-10-19T15:50:16Z</time>
      </trkpt>
      <trkpt lat="43.18406" lon="5.59742">
        <ele>50.5</ele>
        <time>2022-10-19T15:50:22Z</time>
      </trkpt>
      <trkpt lat="43.18404" lon="5.5975">
        <ele>51.2</ele>
        <time>2022-10-19T15:50:28Z</time>
      </trkpt>
      <trkpt lat="43.18401" lon="5.59757">
        <ele>51.5</ele>
        <time>2022-10-19T15:50:34Z</time>
      </trkpt>
      <trkpt lat="43.18396" lon="5.59761">
        <ele>52.5</ele>
        <time>2022-10-19T15:50:40Z</time>
      </trkpt>
      <trkpt lat="43.1839" lon="5.59763">
        <ele>53.7</ele>
        <time>2022-10-19T15:50:46Z</time>
      </trkpt>
      <trkpt lat="43.18385" lon="5.59764">
        <ele>54.1</ele>
        <time>2022-10-19T15:50:52Z</time>
      </trkpt>
      <trkpt lat="43.1838" lon="5.59762">
        <ele>54.2</ele>
        <time>2022-10-19T15:50:58Z</time>
      </trkpt>
      <trkpt lat="43.18374" lon="5.5976">
        <ele>54.3</ele>
        <time>2022-10-19T15:51:04Z</time>
      </trkpt>
      <trkpt lat="43.18368" lon="5.59758">
        <ele>54.5</ele>
        <time>2022-10-19T15:51:10Z</time>
      </trkpt>
      <trkpt lat="43.18363" lon="5.59757">
        <ele>54.7</ele>
        <time>2022-10-19T15:51:14Z</time>
      </trkpt>
      <trkpt lat="43.18357" lon="5.59755">
        <ele>54.7</ele>
        <time>2022-10-19T15:51:20Z</time>
      </trkpt>
      <trkpt lat="43.18352" lon="5.59755">
        <ele>54.5</ele>
        <time>2022-10-19T15:51:24Z</time>
      </trkpt>
      <trkpt lat="43.18346" lon="5.59754">
        <ele>54.3</ele>
        <time>2022-10-19T15:51:30Z</time>
      </trkpt>
      <trkpt lat="43.18341" lon="5.59755">
        <ele>54.1</ele>
        <time>2022-10-19T15:51:34Z</time>
      </trkpt>
      <trkpt lat="43.18336" lon="5.59754">
        <ele>53.9</ele>
        <time>2022-10-19T15:51:38Z</time>
      </trkpt>
      <trkpt lat="43.1833" lon="5.59754">
        <ele>53.7</ele>
        <time>2022-10-19T15:51:42Z</time>
      </trkpt>
      <trkpt lat="43.18325" lon="5.59759">
        <ele>53.5</ele>
        <time>2022-10-19T15:51:48Z</time>
      </trkpt>
      <trkpt lat="43.18321" lon="5.59765">
        <ele>53.2</ele>
        <time>2022-10-19T15:51:54Z</time>
      </trkpt>
      <trkpt lat="43.18316" lon="5.59773">
        <ele>53.1</ele>
        <time>2022-10-19T15:52:00Z</time>
      </trkpt>
      <trkpt lat="43.18313" lon="5.5978">
        <ele>52.8</ele>
        <time>2022-10-19T15:52:06Z</time>
      </trkpt>
      <trkpt lat="43.1831" lon="5.59786">
        <ele>52.4</ele>
        <time>2022-10-19T15:52:16Z</time>
      </trkpt>
      <trkpt lat="43.1831" lon="5.59795">
        <ele>51.8</ele>
        <time>2022-10-19T15:52:22Z</time>
      </trkpt>
      <trkpt lat="43.1831" lon="5.59802">
        <ele>51.3</ele>
        <time>2022-10-19T15:52:28Z</time>
      </trkpt>
      <trkpt lat="43.18312" lon="5.59808">
        <ele>50.6</ele>
        <time>2022-10-19T15:52:32Z</time>
      </trkpt>
      <trkpt lat="43.18314" lon="5.59814">
        <ele>49.9</ele>
        <time>2022-10-19T15:52:36Z</time>
      </trkpt>
      <trkpt lat="43.18317" lon="5.59821">
        <ele>49</ele>
        <time>2022-10-19T15:52:40Z</time>
      </trkpt>
      <trkpt lat="43.1832" lon="5.59827">
        <ele>48.3</ele>
        <time>2022-10-19T15:52:46Z</time>
      </trkpt>
      <trkpt lat="43.18323" lon="5.59834">
        <ele>47.6</ele>
        <time>2022-10-19T15:52:52Z</time>
      </trkpt>
      <trkpt lat="43.18326" lon="5.59839">
        <ele>47.2</ele>
        <time>2022-10-19T15:52:56Z</time>
      </trkpt>
      <trkpt lat="43.18331" lon="5.59845">
        <ele>46.7</ele>
        <time>2022-10-19T15:53:02Z</time>
      </trkpt>
      <trkpt lat="43.18334" lon="5.59851">
        <ele>46.1</ele>
        <time>2022-10-19T15:53:06Z</time>
      </trkpt>
      <trkpt lat="43.18337" lon="5.59856">
        <ele>45.6</ele>
        <time>2022-10-19T15:53:10Z</time>
      </trkpt>
      <trkpt lat="43.18341" lon="5.59863">
        <ele>44.8</ele>
        <time>2022-10-19T15:53:16Z</time>
      </trkpt>
      <trkpt lat="43.18344" lon="5.59867">
        <ele>44.4</ele>
        <time>2022-10-19T15:53:20Z</time>
      </trkpt>
      <trkpt lat="43.18348" lon="5.5987">
        <ele>44.1</ele>
        <time>2022-10-19T15:53:24Z</time>
      </trkpt>
      <trkpt lat="43.18353" lon="5.59873">
        <ele>43.7</ele>
        <time>2022-10-19T15:53:28Z</time>
      </trkpt>
      <trkpt lat="43.18359" lon="5.59876">
        <ele>43.4</ele>
        <time>2022-10-19T15:53:34Z</time>
      </trkpt>
      <trkpt lat="43.18365" lon="5.59881">
        <ele>43</ele>
        <time>2022-10-19T15:53:40Z</time>
      </trkpt>
      <trkpt lat="43.1837" lon="5.59886">
        <ele>42.6</ele>
        <time>2022-10-19T15:53:46Z</time>
      </trkpt>
      <trkpt lat="43.18372" lon="5.59892">
        <ele>42.1</ele>
        <time>2022-10-19T15:53:50Z</time>
      </trkpt>
      <trkpt lat="43.18375" lon="5.59899">
        <ele>41.6</ele>
        <time>2022-10-19T15:53:54Z</time>
      </trkpt>
      <trkpt lat="43.18379" lon="5.59904">
        <ele>41.3</ele>
        <time>2022-10-19T15:53:58Z</time>
      </trkpt>
      <trkpt lat="43.18383" lon="5.59907">
        <ele>40.9</ele>
        <time>2022-10-19T15:54:02Z</time>
      </trkpt>
      <trkpt lat="43.18389" lon="5.5991">
        <ele>40.8</ele>
        <time>2022-10-19T15:54:08Z</time>
      </trkpt>
      <trkpt lat="43.18394" lon="5.5991">
        <ele>40.7</ele>
        <time>2022-10-19T15:54:12Z</time>
      </trkpt>
      <trkpt lat="43.18399" lon="5.59909">
        <ele>40.9</ele>
        <time>2022-10-19T15:54:16Z</time>
      </trkpt>
      <trkpt lat="43.18404" lon="5.59909">
        <ele>40.8</ele>
        <time>2022-10-19T15:54:20Z</time>
      </trkpt>
      <trkpt lat="43.1841" lon="5.59913">
        <ele>40.4</ele>
        <time>2022-10-19T15:54:26Z</time>
      </trkpt>
      <trkpt lat="43.18409" lon="5.59919">
        <ele>39.9</ele>
        <time>2022-10-19T15:54:34Z</time>
      </trkpt>
      <trkpt lat="43.18405" lon="5.59926">
        <ele>39.7</ele>
        <time>2022-10-19T15:54:40Z</time>
      </trkpt>
      <trkpt lat="43.18406" lon="5.59932">
        <ele>39.4</ele>
        <time>2022-10-19T15:54:46Z</time>
      </trkpt>
      <trkpt lat="43.18403" lon="5.59938">
        <ele>39.2</ele>
        <time>2022-10-19T15:54:52Z</time>
      </trkpt>
      <trkpt lat="43.18399" lon="5.59943">
        <ele>39</ele>
        <time>2022-10-19T15:54:56Z</time>
      </trkpt>
      <trkpt lat="43.18393" lon="5.59945">
        <ele>39</ele>
        <time>2022-10-19T15:55:02Z</time>
      </trkpt>
      <trkpt lat="43.18388" lon="5.59943">
        <ele>39.1</ele>
        <time>2022-10-19T15:55:06Z</time>
      </trkpt>
      <trkpt lat="43.18382" lon="5.59942">
        <ele>39.3</ele>
        <time>2022-10-19T15:55:12Z</time>
      </trkpt>
      <trkpt lat="43.18376" lon="5.59938">
        <ele>39.6</ele>
        <time>2022-10-19T15:55:18Z</time>
      </trkpt>
      <trkpt lat="43.18372" lon="5.59936">
        <ele>39.7</ele>
        <time>2022-10-19T15:55:24Z</time>
      </trkpt>
      <trkpt lat="43.18367" lon="5.59933">
        <ele>39.9</ele>
        <time>2022-10-19T15:55:30Z</time>
      </trkpt>
      <trkpt lat="43.18362" lon="5.59932">
        <ele>40</ele>
        <time>2022-10-19T15:55:38Z</time>
      </trkpt>
    </trkseg>
  </trk>
</gpx>